<?xml version='1.0' encoding='UTF-8'?>
<gpx version="1.1" creator="https://www.komoot.de" xmlns="http://www.topografix.com/GPX/1/1" xmlns:xsi="http://www.w3.org/2001/XMLSchema-instance" xsi:schemaLocation="http://www.topografix.com/GPX/1/1 http://www.topografix.com/GPX/1/1/gpx.xsd">
  <metadata>
    <name>57_630Moenthal</name>
    <author>
      <link href="https://www.komoot.de">
        <text>komoot</text>
        <type>text/html</type>
      </link>
    </author>
  </metadata>
  <trk>
    <name>57_630Moenthal</name>
    <trkseg>
      <trkpt lat="47.542015" lon="7.871481">
        <ele>343.711325</ele>
        <time>2021-11-14T19:06:09.758Z</time>
      </trkpt>
      <trkpt lat="47.542039" lon="7.871556">
        <ele>343.711325</ele>
        <time>2021-11-14T19:06:11.369Z</time>
      </trkpt>
      <trkpt lat="47.542067" lon="7.871664">
        <ele>343.711325</ele>
        <time>2021-11-14T19:06:13.162Z</time>
      </trkpt>
      <trkpt lat="47.542091" lon="7.871721">
        <ele>343.711325</ele>
        <time>2021-11-14T19:06:13.830Z</time>
      </trkpt>
      <trkpt lat="47.542218" lon="7.871866">
        <ele>343.711325</ele>
        <time>2021-11-14T19:06:19.171Z</time>
      </trkpt>
      <trkpt lat="47.542394" lon="7.872341">
        <ele>343.711325</ele>
        <time>2021-11-14T19:06:29.815Z</time>
      </trkpt>
      <trkpt lat="47.542436" lon="7.872494">
        <ele>343.711325</ele>
        <time>2021-11-14T19:06:33.391Z</time>
      </trkpt>
      <trkpt lat="47.542537" lon="7.872430">
        <ele>343.862970</ele>
        <time>2021-11-14T19:06:35.649Z</time>
      </trkpt>
      <trkpt lat="47.542714" lon="7.872334">
        <ele>344.897954</ele>
        <time>2021-11-14T19:06:42.642Z</time>
      </trkpt>
      <trkpt lat="47.542814" lon="7.872280">
        <ele>345.482389</ele>
        <time>2021-11-14T19:06:45.747Z</time>
      </trkpt>
      <trkpt lat="47.542919" lon="7.872226">
        <ele>346.092691</ele>
        <time>2021-11-14T19:06:49.611Z</time>
      </trkpt>
      <trkpt lat="47.543013" lon="7.872182">
        <ele>346.633990</ele>
        <time>2021-11-14T19:06:53.045Z</time>
      </trkpt>
      <trkpt lat="47.543233" lon="7.872082">
        <ele>347.897579</ele>
        <time>2021-11-14T19:07:00.311Z</time>
      </trkpt>
      <trkpt lat="47.543251" lon="7.872152">
        <ele>348.175225</ele>
        <time>2021-11-14T19:07:03.684Z</time>
      </trkpt>
      <trkpt lat="47.543332" lon="7.872237">
        <ele>348.720272</ele>
        <time>2021-11-14T19:07:06.990Z</time>
      </trkpt>
      <trkpt lat="47.544390" lon="7.872423">
        <ele>354.819060</ele>
        <time>2021-11-14T19:07:48.709Z</time>
      </trkpt>
      <trkpt lat="47.544883" lon="7.872555">
        <ele>358.265796</ele>
        <time>2021-11-14T19:08:11.118Z</time>
      </trkpt>
      <trkpt lat="47.545131" lon="7.872664">
        <ele>360.045513</ele>
        <time>2021-11-14T19:08:22.122Z</time>
      </trkpt>
      <trkpt lat="47.545375" lon="7.872836">
        <ele>361.904554</ele>
        <time>2021-11-14T19:08:33.063Z</time>
      </trkpt>
      <trkpt lat="47.545478" lon="7.872968">
        <ele>362.841531</ele>
        <time>2021-11-14T19:08:39.871Z</time>
      </trkpt>
      <trkpt lat="47.545515" lon="7.873015">
        <ele>363.176850</ele>
        <time>2021-11-14T19:08:41.827Z</time>
      </trkpt>
      <trkpt lat="47.545746" lon="7.873302">
        <ele>365.251004</ele>
        <time>2021-11-14T19:08:55.027Z</time>
      </trkpt>
      <trkpt lat="47.545934" lon="7.873549">
        <ele>366.756081</ele>
        <time>2021-11-14T19:09:05.127Z</time>
      </trkpt>
      <trkpt lat="47.546077" lon="7.873763">
        <ele>367.847137</ele>
        <time>2021-11-14T19:09:14.323Z</time>
      </trkpt>
      <trkpt lat="47.546135" lon="7.873859">
        <ele>368.313949</ele>
        <time>2021-11-14T19:09:17.562Z</time>
      </trkpt>
      <trkpt lat="47.546309" lon="7.874154">
        <ele>369.733381</ele>
        <time>2021-11-14T19:09:28.677Z</time>
      </trkpt>
      <trkpt lat="47.547126" lon="7.875801">
        <ele>376.058926</ele>
        <time>2021-11-14T19:10:14.438Z</time>
      </trkpt>
      <trkpt lat="47.547574" lon="7.876801">
        <ele>377.322205</ele>
        <time>2021-11-14T19:10:33.434Z</time>
      </trkpt>
      <trkpt lat="47.547992" lon="7.877974">
        <ele>377.838872</ele>
        <time>2021-11-14T19:10:46.234Z</time>
      </trkpt>
      <trkpt lat="47.548234" lon="7.878638">
        <ele>376.280236</ele>
        <time>2021-11-14T19:10:51.547Z</time>
      </trkpt>
      <trkpt lat="47.548422" lon="7.878959">
        <ele>375.402424</ele>
        <time>2021-11-14T19:10:54.389Z</time>
      </trkpt>
      <trkpt lat="47.548718" lon="7.879258">
        <ele>374.306137</ele>
        <time>2021-11-14T19:10:57.928Z</time>
      </trkpt>
      <trkpt lat="47.549140" lon="7.879391">
        <ele>372.985884</ele>
        <time>2021-11-14T19:11:02.114Z</time>
      </trkpt>
      <trkpt lat="47.549318" lon="7.879398">
        <ele>372.277607</ele>
        <time>2021-11-14T19:11:03.741Z</time>
      </trkpt>
      <trkpt lat="47.549327" lon="7.879547">
        <ele>371.862670</ele>
        <time>2021-11-14T19:11:04.728Z</time>
      </trkpt>
      <trkpt lat="47.549726" lon="7.880786">
        <ele>368.054908</ele>
        <time>2021-11-14T19:11:13.662Z</time>
      </trkpt>
      <trkpt lat="47.549927" lon="7.881490">
        <ele>365.934701</ele>
        <time>2021-11-14T19:11:18.694Z</time>
      </trkpt>
      <trkpt lat="47.550234" lon="7.883221">
        <ele>361.512981</ele>
        <time>2021-11-14T19:11:31.095Z</time>
      </trkpt>
      <trkpt lat="47.550332" lon="7.884727">
        <ele>357.326153</ele>
        <time>2021-11-14T19:11:40.939Z</time>
      </trkpt>
      <trkpt lat="47.550391" lon="7.885109">
        <ele>355.977124</ele>
        <time>2021-11-14T19:11:43.472Z</time>
      </trkpt>
      <trkpt lat="47.550548" lon="7.885799">
        <ele>353.470453</ele>
        <time>2021-11-14T19:11:48.076Z</time>
      </trkpt>
      <trkpt lat="47.550677" lon="7.886476">
        <ele>351.048791</ele>
        <time>2021-11-14T19:11:52.506Z</time>
      </trkpt>
      <trkpt lat="47.550758" lon="7.887295">
        <ele>347.877131</ele>
        <time>2021-11-14T19:11:57.649Z</time>
      </trkpt>
      <trkpt lat="47.550789" lon="7.887816">
        <ele>345.723281</ele>
        <time>2021-11-14T19:12:00.880Z</time>
      </trkpt>
      <trkpt lat="47.550831" lon="7.888611">
        <ele>342.439381</ele>
        <time>2021-11-14T19:12:05.836Z</time>
      </trkpt>
      <trkpt lat="47.550833" lon="7.889069">
        <ele>340.553255</ele>
        <time>2021-11-14T19:12:08.646Z</time>
      </trkpt>
      <trkpt lat="47.550915" lon="7.890600">
        <ele>334.550118</ele>
        <time>2021-11-14T19:12:18.039Z</time>
      </trkpt>
      <trkpt lat="47.550904" lon="7.891725">
        <ele>330.237954</ele>
        <time>2021-11-14T19:12:25.043Z</time>
      </trkpt>
      <trkpt lat="47.550892" lon="7.893176">
        <ele>327.084413</ele>
        <time>2021-11-14T19:12:34.655Z</time>
      </trkpt>
      <trkpt lat="47.550908" lon="7.894308">
        <ele>325.372819</ele>
        <time>2021-11-14T19:12:43.860Z</time>
      </trkpt>
      <trkpt lat="47.550878" lon="7.895158">
        <ele>324.247633</ele>
        <time>2021-11-14T19:12:51.045Z</time>
      </trkpt>
      <trkpt lat="47.550838" lon="7.895509">
        <ele>323.870999</ele>
        <time>2021-11-14T19:12:54.209Z</time>
      </trkpt>
      <trkpt lat="47.550660" lon="7.896255">
        <ele>323.033816</ele>
        <time>2021-11-14T19:13:00.698Z</time>
      </trkpt>
      <trkpt lat="47.550639" lon="7.896345">
        <ele>322.933061</ele>
        <time>2021-11-14T19:13:01.885Z</time>
      </trkpt>
      <trkpt lat="47.550648" lon="7.896481">
        <ele>322.788475</ele>
        <time>2021-11-14T19:13:02.840Z</time>
      </trkpt>
      <trkpt lat="47.550819" lon="7.898109">
        <ele>319.938321</ele>
        <time>2021-11-14T19:13:14.588Z</time>
      </trkpt>
      <trkpt lat="47.550801" lon="7.900244">
        <ele>314.375180</ele>
        <time>2021-11-14T19:13:28.426Z</time>
      </trkpt>
      <trkpt lat="47.550769" lon="7.901362">
        <ele>311.397778</ele>
        <time>2021-11-14T19:13:35.697Z</time>
      </trkpt>
      <trkpt lat="47.550757" lon="7.901591">
        <ele>310.786630</ele>
        <time>2021-11-14T19:13:37.833Z</time>
      </trkpt>
      <trkpt lat="47.550688" lon="7.902451">
        <ele>308.482264</ele>
        <time>2021-11-14T19:13:46.267Z</time>
      </trkpt>
      <trkpt lat="47.550498" lon="7.903445">
        <ele>305.816096</ele>
        <time>2021-11-14T19:13:56.518Z</time>
      </trkpt>
      <trkpt lat="47.550302" lon="7.904164">
        <ele>303.835981</ele>
        <time>2021-11-14T19:14:03.801Z</time>
      </trkpt>
      <trkpt lat="47.550025" lon="7.904774">
        <ele>301.958564</ele>
        <time>2021-11-14T19:14:10.794Z</time>
      </trkpt>
      <trkpt lat="47.549868" lon="7.905010">
        <ele>301.112388</ele>
        <time>2021-11-14T19:14:13.864Z</time>
      </trkpt>
      <trkpt lat="47.549867" lon="7.905155">
        <ele>300.792597</ele>
        <time>2021-11-14T19:14:15.325Z</time>
      </trkpt>
      <trkpt lat="47.550067" lon="7.905245">
        <ele>300.169739</ele>
        <time>2021-11-14T19:14:18.182Z</time>
      </trkpt>
      <trkpt lat="47.550283" lon="7.905413">
        <ele>299.442787</ele>
        <time>2021-11-14T19:14:21.781Z</time>
      </trkpt>
      <trkpt lat="47.550283" lon="7.905413">
        <ele>299.442787</ele>
        <time>2021-11-14T19:14:21.802Z</time>
      </trkpt>
      <trkpt lat="47.550497" lon="7.905558">
        <ele>298.741572</ele>
        <time>2021-11-14T19:14:25.233Z</time>
      </trkpt>
      <trkpt lat="47.549539" lon="7.908625">
        <ele>293.232289</ele>
        <time>2021-11-14T19:14:49.610Z</time>
      </trkpt>
      <trkpt lat="47.549520" lon="7.908678">
        <ele>293.153877</ele>
        <time>2021-11-14T19:14:50.103Z</time>
      </trkpt>
      <trkpt lat="47.549320" lon="7.909342">
        <ele>292.203815</ele>
        <time>2021-11-14T19:14:56.005Z</time>
      </trkpt>
      <trkpt lat="47.549244" lon="7.909593">
        <ele>291.961274</ele>
        <time>2021-11-14T19:14:58.293Z</time>
      </trkpt>
      <trkpt lat="47.549195" lon="7.909756">
        <ele>291.820880</ele>
        <time>2021-11-14T19:14:59.728Z</time>
      </trkpt>
      <trkpt lat="47.549102" lon="7.910058">
        <ele>291.559703</ele>
        <time>2021-11-14T19:15:02.453Z</time>
      </trkpt>
      <trkpt lat="47.549012" lon="7.910340">
        <ele>291.314271</ele>
        <time>2021-11-14T19:15:04.946Z</time>
      </trkpt>
      <trkpt lat="47.548412" lon="7.912168">
        <ele>289.816775</ele>
        <time>2021-11-14T19:15:21.275Z</time>
      </trkpt>
      <trkpt lat="47.548027" lon="7.913334">
        <ele>289.113913</ele>
        <time>2021-11-14T19:15:32.036Z</time>
      </trkpt>
      <trkpt lat="47.547994" lon="7.913433">
        <ele>289.054125</ele>
        <time>2021-11-14T19:15:32.957Z</time>
      </trkpt>
      <trkpt lat="47.547423" lon="7.915080">
        <ele>288.686176</ele>
        <time>2021-11-14T19:15:50.433Z</time>
      </trkpt>
      <trkpt lat="47.547113" lon="7.915971">
        <ele>288.773052</ele>
        <time>2021-11-14T19:16:00.880Z</time>
      </trkpt>
      <trkpt lat="47.547091" lon="7.916039">
        <ele>288.779587</ele>
        <time>2021-11-14T19:16:01.905Z</time>
      </trkpt>
      <trkpt lat="47.547032" lon="7.916218">
        <ele>288.796852</ele>
        <time>2021-11-14T19:16:04.108Z</time>
      </trkpt>
      <trkpt lat="47.546821" lon="7.916867">
        <ele>288.948286</ele>
        <time>2021-11-14T19:16:12.217Z</time>
      </trkpt>
      <trkpt lat="47.546262" lon="7.919081">
        <ele>289.767220</ele>
        <time>2021-11-14T19:16:39.728Z</time>
      </trkpt>
      <trkpt lat="47.546128" lon="7.919617">
        <ele>289.973723</ele>
        <time>2021-11-14T19:16:45.196Z</time>
      </trkpt>
      <trkpt lat="47.545973" lon="7.920313">
        <ele>290.238508</ele>
        <time>2021-11-14T19:16:53.660Z</time>
      </trkpt>
      <trkpt lat="47.545913" lon="7.920765">
        <ele>290.404936</ele>
        <time>2021-11-14T19:16:57.833Z</time>
      </trkpt>
      <trkpt lat="47.545881" lon="7.921096">
        <ele>290.525741</ele>
        <time>2021-11-14T19:17:01.850Z</time>
      </trkpt>
      <trkpt lat="47.545810" lon="7.921755">
        <ele>290.950872</ele>
        <time>2021-11-14T19:17:10.758Z</time>
      </trkpt>
      <trkpt lat="47.545778" lon="7.921947">
        <ele>291.274558</ele>
        <time>2021-11-14T19:17:14.367Z</time>
      </trkpt>
      <trkpt lat="47.545714" lon="7.922249">
        <ele>291.792634</ele>
        <time>2021-11-14T19:17:17.566Z</time>
      </trkpt>
      <trkpt lat="47.545699" lon="7.922325">
        <ele>291.922233</ele>
        <time>2021-11-14T19:17:18.763Z</time>
      </trkpt>
      <trkpt lat="47.545690" lon="7.922369">
        <ele>291.997482</ele>
        <time>2021-11-14T19:17:20.861Z</time>
      </trkpt>
      <trkpt lat="47.545641" lon="7.922610">
        <ele>292.409437</ele>
        <time>2021-11-14T19:17:23.215Z</time>
      </trkpt>
      <trkpt lat="47.545587" lon="7.922895">
        <ele>292.893930</ele>
        <time>2021-11-14T19:17:29.011Z</time>
      </trkpt>
      <trkpt lat="47.545553" lon="7.923142">
        <ele>293.306520</ele>
        <time>2021-11-14T19:17:31.658Z</time>
      </trkpt>
      <trkpt lat="47.545536" lon="7.923407">
        <ele>293.742206</ele>
        <time>2021-11-14T19:17:37.548Z</time>
      </trkpt>
      <trkpt lat="47.545521" lon="7.923709">
        <ele>294.237832</ele>
        <time>2021-11-14T19:17:41.702Z</time>
      </trkpt>
      <trkpt lat="47.545481" lon="7.924396">
        <ele>295.508300</ele>
        <time>2021-11-14T19:17:56.305Z</time>
      </trkpt>
      <trkpt lat="47.545466" lon="7.924880">
        <ele>296.688638</ele>
        <time>2021-11-14T19:18:07.611Z</time>
      </trkpt>
      <trkpt lat="47.545446" lon="7.925350">
        <ele>297.835901</ele>
        <time>2021-11-14T19:18:17.986Z</time>
      </trkpt>
      <trkpt lat="47.545417" lon="7.925848">
        <ele>299.053611</ele>
        <time>2021-11-14T19:18:28.465Z</time>
      </trkpt>
      <trkpt lat="47.545409" lon="7.926773">
        <ele>301.307236</ele>
        <time>2021-11-14T19:18:45.666Z</time>
      </trkpt>
      <trkpt lat="47.545407" lon="7.927001">
        <ele>301.596916</ele>
        <time>2021-11-14T19:18:49.475Z</time>
      </trkpt>
      <trkpt lat="47.545406" lon="7.927306">
        <ele>301.671091</ele>
        <time>2021-11-14T19:18:54.080Z</time>
      </trkpt>
      <trkpt lat="47.545421" lon="7.927686">
        <ele>301.763663</ele>
        <time>2021-11-14T19:18:59.615Z</time>
      </trkpt>
      <trkpt lat="47.545475" lon="7.928419">
        <ele>301.942984</ele>
        <time>2021-11-14T19:19:08.933Z</time>
      </trkpt>
      <trkpt lat="47.545563" lon="7.929641">
        <ele>302.073021</ele>
        <time>2021-11-14T19:19:18.812Z</time>
      </trkpt>
      <trkpt lat="47.545661" lon="7.930955">
        <ele>300.337674</ele>
        <time>2021-11-14T19:19:28.208Z</time>
      </trkpt>
      <trkpt lat="47.545696" lon="7.931497">
        <ele>299.622959</ele>
        <time>2021-11-14T19:19:32.173Z</time>
      </trkpt>
      <trkpt lat="47.545721" lon="7.931992">
        <ele>298.971372</ele>
        <time>2021-11-14T19:19:35.935Z</time>
      </trkpt>
      <trkpt lat="47.545724" lon="7.932758">
        <ele>298.671166</ele>
        <time>2021-11-14T19:19:42.196Z</time>
      </trkpt>
      <trkpt lat="47.545702" lon="7.933290">
        <ele>298.627895</ele>
        <time>2021-11-14T19:19:46.839Z</time>
      </trkpt>
      <trkpt lat="47.545675" lon="7.933609">
        <ele>298.601795</ele>
        <time>2021-11-14T19:19:49.769Z</time>
      </trkpt>
      <trkpt lat="47.545674" lon="7.933625">
        <ele>298.600491</ele>
        <time>2021-11-14T19:19:50.079Z</time>
      </trkpt>
      <trkpt lat="47.545457" lon="7.935110">
        <ele>298.808747</ele>
        <time>2021-11-14T19:20:08.101Z</time>
      </trkpt>
      <trkpt lat="47.545074" lon="7.936484">
        <ele>300.341968</ele>
        <time>2021-11-14T19:20:29.741Z</time>
      </trkpt>
      <trkpt lat="47.544903" lon="7.936917">
        <ele>300.859384</ele>
        <time>2021-11-14T19:20:37.058Z</time>
      </trkpt>
      <trkpt lat="47.544705" lon="7.937395">
        <ele>301.461698</ele>
        <time>2021-11-14T19:20:45.242Z</time>
      </trkpt>
      <trkpt lat="47.544472" lon="7.937932">
        <ele>302.203647</ele>
        <time>2021-11-14T19:20:54.521Z</time>
      </trkpt>
      <trkpt lat="47.543826" lon="7.939433">
        <ele>304.272631</ele>
        <time>2021-11-14T19:21:20.947Z</time>
      </trkpt>
      <trkpt lat="47.543435" lon="7.940669">
        <ele>305.509142</ele>
        <time>2021-11-14T19:21:40.566Z</time>
      </trkpt>
      <trkpt lat="47.543435" lon="7.940670">
        <ele>305.510035</ele>
        <time>2021-11-14T19:21:40.700Z</time>
      </trkpt>
      <trkpt lat="47.543161" lon="7.942213">
        <ele>306.668124</ele>
        <time>2021-11-14T19:22:01.163Z</time>
      </trkpt>
      <trkpt lat="47.543007" lon="7.943867">
        <ele>306.247474</ele>
        <time>2021-11-14T19:22:17.353Z</time>
      </trkpt>
      <trkpt lat="47.542913" lon="7.945267">
        <ele>305.266304</ele>
        <time>2021-11-14T19:22:28.259Z</time>
      </trkpt>
      <trkpt lat="47.542872" lon="7.945781">
        <ele>304.633308</ele>
        <time>2021-11-14T19:22:32.076Z</time>
      </trkpt>
      <trkpt lat="47.542875" lon="7.946089">
        <ele>304.256584</ele>
        <time>2021-11-14T19:22:34.324Z</time>
      </trkpt>
      <trkpt lat="47.542902" lon="7.946514">
        <ele>303.734511</ele>
        <time>2021-11-14T19:22:37.410Z</time>
      </trkpt>
      <trkpt lat="47.542943" lon="7.946806">
        <ele>303.369751</ele>
        <time>2021-11-14T19:22:39.614Z</time>
      </trkpt>
      <trkpt lat="47.542974" lon="7.946965">
        <ele>303.167346</ele>
        <time>2021-11-14T19:22:40.923Z</time>
      </trkpt>
      <trkpt lat="47.542979" lon="7.946989">
        <ele>303.136628</ele>
        <time>2021-11-14T19:22:41.080Z</time>
      </trkpt>
      <trkpt lat="47.542989" lon="7.947104">
        <ele>302.994821</ele>
        <time>2021-11-14T19:22:41.962Z</time>
      </trkpt>
      <trkpt lat="47.542984" lon="7.947304">
        <ele>302.770635</ele>
        <time>2021-11-14T19:22:43.520Z</time>
      </trkpt>
      <trkpt lat="47.542979" lon="7.947370">
        <ele>302.725079</ele>
        <time>2021-11-14T19:22:44.021Z</time>
      </trkpt>
      <trkpt lat="47.542935" lon="7.947564">
        <ele>302.584695</ele>
        <time>2021-11-14T19:22:45.598Z</time>
      </trkpt>
      <trkpt lat="47.542892" lon="7.947789">
        <ele>302.424290</ele>
        <time>2021-11-14T19:22:47.503Z</time>
      </trkpt>
      <trkpt lat="47.542875" lon="7.948001">
        <ele>302.277847</ele>
        <time>2021-11-14T19:22:49.319Z</time>
      </trkpt>
      <trkpt lat="47.542838" lon="7.948225">
        <ele>302.119662</ele>
        <time>2021-11-14T19:22:51.129Z</time>
      </trkpt>
      <trkpt lat="47.542838" lon="7.948225">
        <ele>302.119662</ele>
        <time>2021-11-14T19:22:51.131Z</time>
      </trkpt>
      <trkpt lat="47.542826" lon="7.948298">
        <ele>302.068124</ele>
        <time>2021-11-14T19:22:51.752Z</time>
      </trkpt>
      <trkpt lat="47.542719" lon="7.949175">
        <ele>301.456800</ele>
        <time>2021-11-14T19:22:58.995Z</time>
      </trkpt>
      <trkpt lat="47.542609" lon="7.949914">
        <ele>300.960798</ele>
        <time>2021-11-14T19:23:05.740Z</time>
      </trkpt>
      <trkpt lat="47.542560" lon="7.950202">
        <ele>300.906391</ele>
        <time>2021-11-14T19:23:08.647Z</time>
      </trkpt>
      <trkpt lat="47.542554" lon="7.950231">
        <ele>300.900835</ele>
        <time>2021-11-14T19:23:08.931Z</time>
      </trkpt>
      <trkpt lat="47.542546" lon="7.950274">
        <ele>300.892664</ele>
        <time>2021-11-14T19:23:09.347Z</time>
      </trkpt>
      <trkpt lat="47.542444" lon="7.950687">
        <ele>300.812104</ele>
        <time>2021-11-14T19:23:13.739Z</time>
      </trkpt>
      <trkpt lat="47.542357" lon="7.951037">
        <ele>300.743781</ele>
        <time>2021-11-14T19:23:17.383Z</time>
      </trkpt>
      <trkpt lat="47.542192" lon="7.951713">
        <ele>300.612100</ele>
        <time>2021-11-14T19:23:24.331Z</time>
      </trkpt>
      <trkpt lat="47.542169" lon="7.951815">
        <ele>300.592400</ele>
        <time>2021-11-14T19:23:25.258Z</time>
      </trkpt>
      <trkpt lat="47.541991" lon="7.952667">
        <ele>300.460407</ele>
        <time>2021-11-14T19:23:33.539Z</time>
      </trkpt>
      <trkpt lat="47.541791" lon="7.953601">
        <ele>300.389049</ele>
        <time>2021-11-14T19:23:42.591Z</time>
      </trkpt>
      <trkpt lat="47.541773" lon="7.953695">
        <ele>300.381934</ele>
        <time>2021-11-14T19:23:43.527Z</time>
      </trkpt>
      <trkpt lat="47.541735" lon="7.953892">
        <ele>300.367013</ele>
        <time>2021-11-14T19:23:45.410Z</time>
      </trkpt>
      <trkpt lat="47.541660" lon="7.954250">
        <ele>300.339715</ele>
        <time>2021-11-14T19:23:49.168Z</time>
      </trkpt>
      <trkpt lat="47.541530" lon="7.954936">
        <ele>300.287826</ele>
        <time>2021-11-14T19:23:56.389Z</time>
      </trkpt>
      <trkpt lat="47.541482" lon="7.955294">
        <ele>300.290249</ele>
        <time>2021-11-14T19:24:00.438Z</time>
      </trkpt>
      <trkpt lat="47.541465" lon="7.955512">
        <ele>300.292210</ele>
        <time>2021-11-14T19:24:02.773Z</time>
      </trkpt>
      <trkpt lat="47.541442" lon="7.955866">
        <ele>300.295386</ele>
        <time>2021-11-14T19:24:06.959Z</time>
      </trkpt>
      <trkpt lat="47.541410" lon="7.956569">
        <ele>300.301681</ele>
        <time>2021-11-14T19:24:13.935Z</time>
      </trkpt>
      <trkpt lat="47.541404" lon="7.956677">
        <ele>300.302649</ele>
        <time>2021-11-14T19:24:15.629Z</time>
      </trkpt>
      <trkpt lat="47.541280" lon="7.957569">
        <ele>300.310784</ele>
        <time>2021-11-14T19:24:23.667Z</time>
      </trkpt>
      <trkpt lat="47.541237" lon="7.957756">
        <ele>300.259999</ele>
        <time>2021-11-14T19:24:26.223Z</time>
      </trkpt>
      <trkpt lat="47.541305" lon="7.957787">
        <ele>300.231266</ele>
        <time>2021-11-14T19:24:27.396Z</time>
      </trkpt>
      <trkpt lat="47.541539" lon="7.957892">
        <ele>300.132522</ele>
        <time>2021-11-14T19:24:31.952Z</time>
      </trkpt>
      <trkpt lat="47.541700" lon="7.957963">
        <ele>300.064681</ele>
        <time>2021-11-14T19:24:34.948Z</time>
      </trkpt>
      <trkpt lat="47.541830" lon="7.958033">
        <ele>300.008818</ele>
        <time>2021-11-14T19:24:37.340Z</time>
      </trkpt>
      <trkpt lat="47.542259" lon="7.958287">
        <ele>299.822237</ele>
        <time>2021-11-14T19:24:46.421Z</time>
      </trkpt>
      <trkpt lat="47.542441" lon="7.958428">
        <ele>299.739290</ele>
        <time>2021-11-14T19:24:49.943Z</time>
      </trkpt>
      <trkpt lat="47.542693" lon="7.958608">
        <ele>299.626304</ele>
        <time>2021-11-14T19:24:55.382Z</time>
      </trkpt>
      <trkpt lat="47.543178" lon="7.959043">
        <ele>299.931776</ele>
        <time>2021-11-14T19:25:06.111Z</time>
      </trkpt>
      <trkpt lat="47.543244" lon="7.959135">
        <ele>299.999692</ele>
        <time>2021-11-14T19:25:08.142Z</time>
      </trkpt>
      <trkpt lat="47.543322" lon="7.959242">
        <ele>300.079361</ele>
        <time>2021-11-14T19:25:10.456Z</time>
      </trkpt>
      <trkpt lat="47.543374" lon="7.959437">
        <ele>300.185428</ele>
        <time>2021-11-14T19:25:13.678Z</time>
      </trkpt>
      <trkpt lat="47.543357" lon="7.959668">
        <ele>300.302981</ele>
        <time>2021-11-14T19:25:17.602Z</time>
      </trkpt>
      <trkpt lat="47.542960" lon="7.960501">
        <ele>300.818833</ele>
        <time>2021-11-14T19:25:35.229Z</time>
      </trkpt>
      <trkpt lat="47.542861" lon="7.960776">
        <ele>301.016862</ele>
        <time>2021-11-14T19:25:41.005Z</time>
      </trkpt>
      <trkpt lat="47.542800" lon="7.960973">
        <ele>301.226943</ele>
        <time>2021-11-14T19:25:44.953Z</time>
      </trkpt>
      <trkpt lat="47.542731" lon="7.961265">
        <ele>301.526815</ele>
        <time>2021-11-14T19:25:50.539Z</time>
      </trkpt>
      <trkpt lat="47.542689" lon="7.961423">
        <ele>301.691409</ele>
        <time>2021-11-14T19:25:53.583Z</time>
      </trkpt>
      <trkpt lat="47.542619" lon="7.961728">
        <ele>302.003662</ele>
        <time>2021-11-14T19:25:59.324Z</time>
      </trkpt>
      <trkpt lat="47.542513" lon="7.962471">
        <ele>302.739754</ele>
        <time>2021-11-14T19:26:12.043Z</time>
      </trkpt>
      <trkpt lat="47.542515" lon="7.962778">
        <ele>303.037341</ele>
        <time>2021-11-14T19:26:17.228Z</time>
      </trkpt>
      <trkpt lat="47.542516" lon="7.962915">
        <ele>303.170141</ele>
        <time>2021-11-14T19:26:19.532Z</time>
      </trkpt>
      <trkpt lat="47.542511" lon="7.963476">
        <ele>303.795504</ele>
        <time>2021-11-14T19:26:28.945Z</time>
      </trkpt>
      <trkpt lat="47.542253" lon="7.965169">
        <ele>306.167655</ele>
        <time>2021-11-14T19:27:03.003Z</time>
      </trkpt>
      <trkpt lat="47.542271" lon="7.965269">
        <ele>306.309106</ele>
        <time>2021-11-14T19:27:04.967Z</time>
      </trkpt>
      <trkpt lat="47.542210" lon="7.965313">
        <ele>306.446476</ele>
        <time>2021-11-14T19:27:06.957Z</time>
      </trkpt>
      <trkpt lat="47.541714" lon="7.965522">
        <ele>307.504485</ele>
        <time>2021-11-14T19:27:18.830Z</time>
      </trkpt>
      <trkpt lat="47.541593" lon="7.965571">
        <ele>307.769058</ele>
        <time>2021-11-14T19:27:21.739Z</time>
      </trkpt>
      <trkpt lat="47.541502" lon="7.965586">
        <ele>307.962177</ele>
        <time>2021-11-14T19:27:24.043Z</time>
      </trkpt>
      <trkpt lat="47.541122" lon="7.967754">
        <ele>311.083181</ele>
        <time>2021-11-14T19:28:00.141Z</time>
      </trkpt>
      <trkpt lat="47.540988" lon="7.968696">
        <ele>311.988765</ele>
        <time>2021-11-14T19:28:12.275Z</time>
      </trkpt>
      <trkpt lat="47.540938" lon="7.969459">
        <ele>312.709882</ele>
        <time>2021-11-14T19:28:22.612Z</time>
      </trkpt>
      <trkpt lat="47.540930" lon="7.969589">
        <ele>312.832678</ele>
        <time>2021-11-14T19:28:24.571Z</time>
      </trkpt>
      <trkpt lat="47.540951" lon="7.969978">
        <ele>313.199773</ele>
        <time>2021-11-14T19:28:29.965Z</time>
      </trkpt>
      <trkpt lat="47.541007" lon="7.971034">
        <ele>313.955744</ele>
        <time>2021-11-14T19:28:44.613Z</time>
      </trkpt>
      <trkpt lat="47.541050" lon="7.971427">
        <ele>314.208462</ele>
        <time>2021-11-14T19:28:50.032Z</time>
      </trkpt>
      <trkpt lat="47.541111" lon="7.971844">
        <ele>314.479303</ele>
        <time>2021-11-14T19:28:55.609Z</time>
      </trkpt>
      <trkpt lat="47.541444" lon="7.973570">
        <ele>314.860867</ele>
        <time>2021-11-14T19:29:15.650Z</time>
      </trkpt>
      <trkpt lat="47.541613" lon="7.974143">
        <ele>314.618652</ele>
        <time>2021-11-14T19:29:21.237Z</time>
      </trkpt>
      <trkpt lat="47.542030" lon="7.976464">
        <ele>312.990826</ele>
        <time>2021-11-14T19:29:40.480Z</time>
      </trkpt>
      <trkpt lat="47.542119" lon="7.977479">
        <ele>311.947819</ele>
        <time>2021-11-14T19:29:48.277Z</time>
      </trkpt>
      <trkpt lat="47.542153" lon="7.979253">
        <ele>310.300526</ele>
        <time>2021-11-14T19:30:01.851Z</time>
      </trkpt>
      <trkpt lat="47.542138" lon="7.980233">
        <ele>309.429261</ele>
        <time>2021-11-14T19:30:09.569Z</time>
      </trkpt>
      <trkpt lat="47.542122" lon="7.980765">
        <ele>309.041101</ele>
        <time>2021-11-14T19:30:13.960Z</time>
      </trkpt>
      <trkpt lat="47.542087" lon="7.982565">
        <ele>309.218439</ele>
        <time>2021-11-14T19:30:31.249Z</time>
      </trkpt>
      <trkpt lat="47.542068" lon="7.983338">
        <ele>309.294615</ele>
        <time>2021-11-14T19:30:41.280Z</time>
      </trkpt>
      <trkpt lat="47.542145" lon="7.983983">
        <ele>310.199165</ele>
        <time>2021-11-14T19:30:50.496Z</time>
      </trkpt>
      <trkpt lat="47.542208" lon="7.984399">
        <ele>310.791247</ele>
        <time>2021-11-14T19:30:56.606Z</time>
      </trkpt>
      <trkpt lat="47.542126" lon="7.984398">
        <ele>310.959950</ele>
        <time>2021-11-14T19:30:58.505Z</time>
      </trkpt>
      <trkpt lat="47.541734" lon="7.984406">
        <ele>311.766477</ele>
        <time>2021-11-14T19:31:09.983Z</time>
      </trkpt>
      <trkpt lat="47.541183" lon="7.984395">
        <ele>312.900137</ele>
        <time>2021-11-14T19:31:27.123Z</time>
      </trkpt>
      <trkpt lat="47.540750" lon="7.984343">
        <ele>313.904425</ele>
        <time>2021-11-14T19:31:40.879Z</time>
      </trkpt>
      <trkpt lat="47.540609" lon="7.984254">
        <ele>314.263395</ele>
        <time>2021-11-14T19:31:45.964Z</time>
      </trkpt>
      <trkpt lat="47.540570" lon="7.984220">
        <ele>314.369382</ele>
        <time>2021-11-14T19:31:47.539Z</time>
      </trkpt>
      <trkpt lat="47.540197" lon="7.983795">
        <ele>315.471531</ele>
        <time>2021-11-14T19:32:01.753Z</time>
      </trkpt>
      <trkpt lat="47.540009" lon="7.983581">
        <ele>316.026838</ele>
        <time>2021-11-14T19:32:08.639Z</time>
      </trkpt>
      <trkpt lat="47.539746" lon="7.983424">
        <ele>316.690953</ele>
        <time>2021-11-14T19:32:16.356Z</time>
      </trkpt>
      <trkpt lat="47.539359" lon="7.983508">
        <ele>317.207903</ele>
        <time>2021-11-14T19:32:26.921Z</time>
      </trkpt>
      <trkpt lat="47.539266" lon="7.983513">
        <ele>317.207882</ele>
        <time>2021-11-14T19:32:29.698Z</time>
      </trkpt>
      <trkpt lat="47.539165" lon="7.983910">
        <ele>317.207818</ele>
        <time>2021-11-14T19:32:35.271Z</time>
      </trkpt>
      <trkpt lat="47.539141" lon="7.984006">
        <ele>317.207802</ele>
        <time>2021-11-14T19:32:36.792Z</time>
      </trkpt>
      <trkpt lat="47.539087" lon="7.984241">
        <ele>317.207765</ele>
        <time>2021-11-14T19:32:39.267Z</time>
      </trkpt>
      <trkpt lat="47.538988" lon="7.984674">
        <ele>317.207695</ele>
        <time>2021-11-14T19:32:43.643Z</time>
      </trkpt>
      <trkpt lat="47.538891" lon="7.984830">
        <ele>317.207663</ele>
        <time>2021-11-14T19:32:45.199Z</time>
      </trkpt>
      <trkpt lat="47.538208" lon="7.985592">
        <ele>317.042905</ele>
        <time>2021-11-14T19:32:55.225Z</time>
      </trkpt>
      <trkpt lat="47.537884" lon="7.985939">
        <ele>316.819603</ele>
        <time>2021-11-14T19:33:00.063Z</time>
      </trkpt>
      <trkpt lat="47.537812" lon="7.986127">
        <ele>316.738106</ele>
        <time>2021-11-14T19:33:02.489Z</time>
      </trkpt>
      <trkpt lat="47.537815" lon="7.986191">
        <ele>316.713916</ele>
        <time>2021-11-14T19:33:02.903Z</time>
      </trkpt>
      <trkpt lat="47.537821" lon="7.986433">
        <ele>316.622609</ele>
        <time>2021-11-14T19:33:05.075Z</time>
      </trkpt>
      <trkpt lat="47.537409" lon="7.986449">
        <ele>316.392424</ele>
        <time>2021-11-14T19:33:10.856Z</time>
      </trkpt>
      <trkpt lat="47.537167" lon="7.986470">
        <ele>316.257033</ele>
        <time>2021-11-14T19:33:14.083Z</time>
      </trkpt>
      <trkpt lat="47.536796" lon="7.986519">
        <ele>316.631573</ele>
        <time>2021-11-14T19:33:20.210Z</time>
      </trkpt>
      <trkpt lat="47.536685" lon="7.986543">
        <ele>316.805964</ele>
        <time>2021-11-14T19:33:22.671Z</time>
      </trkpt>
      <trkpt lat="47.536465" lon="7.986660">
        <ele>317.169356</ele>
        <time>2021-11-14T19:33:26.986Z</time>
      </trkpt>
      <trkpt lat="47.536140" lon="7.986963">
        <ele>317.766359</ele>
        <time>2021-11-14T19:33:36.116Z</time>
      </trkpt>
      <trkpt lat="47.535935" lon="7.987272">
        <ele>318.221054</ele>
        <time>2021-11-14T19:33:43.774Z</time>
      </trkpt>
      <trkpt lat="47.535862" lon="7.987408">
        <ele>318.403412</ele>
        <time>2021-11-14T19:33:46.365Z</time>
      </trkpt>
      <trkpt lat="47.535735" lon="7.987639">
        <ele>318.716083</ele>
        <time>2021-11-14T19:33:51.309Z</time>
      </trkpt>
      <trkpt lat="47.535393" lon="7.988043">
        <ele>319.086698</ele>
        <time>2021-11-14T19:34:00.532Z</time>
      </trkpt>
      <trkpt lat="47.535196" lon="7.988134">
        <ele>319.157424</ele>
        <time>2021-11-14T19:34:04.686Z</time>
      </trkpt>
      <trkpt lat="47.534985" lon="7.988144">
        <ele>319.229779</ele>
        <time>2021-11-14T19:34:08.309Z</time>
      </trkpt>
      <trkpt lat="47.534795" lon="7.988078">
        <ele>319.296667</ele>
        <time>2021-11-14T19:34:12.415Z</time>
      </trkpt>
      <trkpt lat="47.534771" lon="7.988562">
        <ele>319.408965</ele>
        <time>2021-11-14T19:34:19.438Z</time>
      </trkpt>
      <trkpt lat="47.534723" lon="7.989575">
        <ele>319.535669</ele>
        <time>2021-11-14T19:34:31.250Z</time>
      </trkpt>
      <trkpt lat="47.534609" lon="7.990394">
        <ele>318.988843</ele>
        <time>2021-11-14T19:34:40.626Z</time>
      </trkpt>
      <trkpt lat="47.534606" lon="7.990590">
        <ele>318.860642</ele>
        <time>2021-11-14T19:34:42.761Z</time>
      </trkpt>
      <trkpt lat="47.534644" lon="7.990797">
        <ele>318.720365</ele>
        <time>2021-11-14T19:34:45.356Z</time>
      </trkpt>
      <trkpt lat="47.534860" lon="7.991148">
        <ele>318.409799</ele>
        <time>2021-11-14T19:34:50.926Z</time>
      </trkpt>
      <trkpt lat="47.535110" lon="7.991631">
        <ele>318.011819</ele>
        <time>2021-11-14T19:34:58.319Z</time>
      </trkpt>
      <trkpt lat="47.535497" lon="7.992318">
        <ele>318.073610</ele>
        <time>2021-11-14T19:35:09.291Z</time>
      </trkpt>
      <trkpt lat="47.535603" lon="7.992576">
        <ele>318.162043</ele>
        <time>2021-11-14T19:35:13.927Z</time>
      </trkpt>
      <trkpt lat="47.535601" lon="7.992617">
        <ele>318.174080</ele>
        <time>2021-11-14T19:35:14.991Z</time>
      </trkpt>
      <trkpt lat="47.535558" lon="7.992745">
        <ele>318.215942</ele>
        <time>2021-11-14T19:35:16.731Z</time>
      </trkpt>
      <trkpt lat="47.535530" lon="7.992828">
        <ele>318.243110</ele>
        <time>2021-11-14T19:35:17.880Z</time>
      </trkpt>
      <trkpt lat="47.535091" lon="7.993681">
        <ele>318.557170</ele>
        <time>2021-11-14T19:35:36.285Z</time>
      </trkpt>
      <trkpt lat="47.534115" lon="7.996823">
        <ele>320.305012</ele>
        <time>2021-11-14T19:36:32.324Z</time>
      </trkpt>
      <trkpt lat="47.532880" lon="7.998728">
        <ele>320.324478</ele>
        <time>2021-11-14T19:37:06.985Z</time>
      </trkpt>
      <trkpt lat="47.532745" lon="7.998891">
        <ele>320.302820</ele>
        <time>2021-11-14T19:37:10.328Z</time>
      </trkpt>
      <trkpt lat="47.532616" lon="7.998942">
        <ele>320.286218</ele>
        <time>2021-11-14T19:37:12.756Z</time>
      </trkpt>
      <trkpt lat="47.532314" lon="7.998991">
        <ele>320.248440</ele>
        <time>2021-11-14T19:37:18.514Z</time>
      </trkpt>
      <trkpt lat="47.532321" lon="7.999312">
        <ele>320.221476</ele>
        <time>2021-11-14T19:37:22.847Z</time>
      </trkpt>
      <trkpt lat="47.532283" lon="7.999633">
        <ele>320.194116</ele>
        <time>2021-11-14T19:37:27.024Z</time>
      </trkpt>
      <trkpt lat="47.532176" lon="8.000088">
        <ele>320.153665</ele>
        <time>2021-11-14T19:37:33.293Z</time>
      </trkpt>
      <trkpt lat="47.531789" lon="8.001140">
        <ele>321.140206</ele>
        <time>2021-11-14T19:37:51.649Z</time>
      </trkpt>
      <trkpt lat="47.531407" lon="8.001793">
        <ele>321.996995</ele>
        <time>2021-11-14T19:38:07.909Z</time>
      </trkpt>
      <trkpt lat="47.531127" lon="8.002157">
        <ele>322.544178</ele>
        <time>2021-11-14T19:38:18.886Z</time>
      </trkpt>
      <trkpt lat="47.530077" lon="8.003471">
        <ele>325.635900</ele>
        <time>2021-11-14T19:38:59.766Z</time>
      </trkpt>
      <trkpt lat="47.529391" lon="8.004422">
        <ele>327.681998</ele>
        <time>2021-11-14T19:39:28.032Z</time>
      </trkpt>
      <trkpt lat="47.529337" lon="8.004498">
        <ele>327.822824</ele>
        <time>2021-11-14T19:39:30.149Z</time>
      </trkpt>
      <trkpt lat="47.528852" lon="8.005150">
        <ele>329.061080</ele>
        <time>2021-11-14T19:39:47.365Z</time>
      </trkpt>
      <trkpt lat="47.527466" lon="8.006442">
        <ele>332.126599</ele>
        <time>2021-11-14T19:40:32.655Z</time>
      </trkpt>
      <trkpt lat="47.526398" lon="8.007517">
        <ele>334.236314</ele>
        <time>2021-11-14T19:41:08.464Z</time>
      </trkpt>
      <trkpt lat="47.525704" lon="8.008036">
        <ele>335.141266</ele>
        <time>2021-11-14T19:41:28.379Z</time>
      </trkpt>
      <trkpt lat="47.525125" lon="8.008474">
        <ele>335.836594</ele>
        <time>2021-11-14T19:41:43.356Z</time>
      </trkpt>
      <trkpt lat="47.523750" lon="8.009595">
        <ele>335.547051</ele>
        <time>2021-11-14T19:42:13.838Z</time>
      </trkpt>
      <trkpt lat="47.523475" lon="8.009886">
        <ele>335.412206</ele>
        <time>2021-11-14T19:42:20.036Z</time>
      </trkpt>
      <trkpt lat="47.522752" lon="8.010942">
        <ele>334.748449</ele>
        <time>2021-11-14T19:42:37.936Z</time>
      </trkpt>
      <trkpt lat="47.522135" lon="8.011541">
        <ele>334.334234</ele>
        <time>2021-11-14T19:42:51.173Z</time>
      </trkpt>
      <trkpt lat="47.521999" lon="8.011997">
        <ele>334.323933</ele>
        <time>2021-11-14T19:42:57.783Z</time>
      </trkpt>
      <trkpt lat="47.521884" lon="8.013019">
        <ele>334.302522</ele>
        <time>2021-11-14T19:43:12.476Z</time>
      </trkpt>
      <trkpt lat="47.521867" lon="8.013168">
        <ele>334.299399</ele>
        <time>2021-11-14T19:43:15.011Z</time>
      </trkpt>
      <trkpt lat="47.521857" lon="8.013314">
        <ele>334.296367</ele>
        <time>2021-11-14T19:43:16.511Z</time>
      </trkpt>
      <trkpt lat="47.521782" lon="8.013652">
        <ele>334.289015</ele>
        <time>2021-11-14T19:43:20.000Z</time>
      </trkpt>
      <trkpt lat="47.521611" lon="8.013949">
        <ele>334.276066</ele>
        <time>2021-11-14T19:43:23.614Z</time>
      </trkpt>
      <trkpt lat="47.521532" lon="8.014046">
        <ele>334.263253</ele>
        <time>2021-11-14T19:43:25.550Z</time>
      </trkpt>
      <trkpt lat="47.521508" lon="8.014076">
        <ele>334.259332</ele>
        <time>2021-11-14T19:43:26.025Z</time>
      </trkpt>
      <trkpt lat="47.521454" lon="8.014134">
        <ele>334.251003</ele>
        <time>2021-11-14T19:43:27.077Z</time>
      </trkpt>
      <trkpt lat="47.521292" lon="8.014319">
        <ele>334.225462</ele>
        <time>2021-11-14T19:43:29.952Z</time>
      </trkpt>
      <trkpt lat="47.521150" lon="8.014447">
        <ele>334.204707</ele>
        <time>2021-11-14T19:43:32.754Z</time>
      </trkpt>
      <trkpt lat="47.520953" lon="8.014530">
        <ele>334.179135</ele>
        <time>2021-11-14T19:43:35.642Z</time>
      </trkpt>
      <trkpt lat="47.520848" lon="8.014542">
        <ele>334.165987</ele>
        <time>2021-11-14T19:43:37.311Z</time>
      </trkpt>
      <trkpt lat="47.520539" lon="8.014558">
        <ele>334.127385</ele>
        <time>2021-11-14T19:43:41.354Z</time>
      </trkpt>
      <trkpt lat="47.520115" lon="8.014648">
        <ele>334.073908</ele>
        <time>2021-11-14T19:43:47.715Z</time>
      </trkpt>
      <trkpt lat="47.519666" lon="8.015011">
        <ele>334.186234</ele>
        <time>2021-11-14T19:43:54.936Z</time>
      </trkpt>
      <trkpt lat="47.519564" lon="8.015041">
        <ele>334.220974</ele>
        <time>2021-11-14T19:43:56.036Z</time>
      </trkpt>
      <trkpt lat="47.519570" lon="8.014933">
        <ele>334.245421</ele>
        <time>2021-11-14T19:43:56.758Z</time>
      </trkpt>
      <trkpt lat="47.519567" lon="8.014689">
        <ele>334.300476</ele>
        <time>2021-11-14T19:43:59.838Z</time>
      </trkpt>
      <trkpt lat="47.519560" lon="8.014397">
        <ele>334.366392</ele>
        <time>2021-11-14T19:44:02.217Z</time>
      </trkpt>
      <trkpt lat="47.519550" lon="8.014167">
        <ele>334.418387</ele>
        <time>2021-11-14T19:44:05.402Z</time>
      </trkpt>
      <trkpt lat="47.519542" lon="8.014115">
        <ele>334.430419</ele>
        <time>2021-11-14T19:44:07.792Z</time>
      </trkpt>
      <trkpt lat="47.519506" lon="8.013880">
        <ele>334.484782</ele>
        <time>2021-11-14T19:44:09.491Z</time>
      </trkpt>
      <trkpt lat="47.519407" lon="8.013567">
        <ele>334.562755</ele>
        <time>2021-11-14T19:44:15.478Z</time>
      </trkpt>
      <trkpt lat="47.519283" lon="8.013313">
        <ele>334.633462</ele>
        <time>2021-11-14T19:44:18.405Z</time>
      </trkpt>
      <trkpt lat="47.519066" lon="8.012986">
        <ele>335.037336</ele>
        <time>2021-11-14T19:44:24.833Z</time>
      </trkpt>
      <trkpt lat="47.518762" lon="8.012505">
        <ele>335.757917</ele>
        <time>2021-11-14T19:44:35.239Z</time>
      </trkpt>
      <trkpt lat="47.518672" lon="8.012356">
        <ele>335.976573</ele>
        <time>2021-11-14T19:44:39.301Z</time>
      </trkpt>
      <trkpt lat="47.518031" lon="8.011413">
        <ele>337.440059</ele>
        <time>2021-11-14T19:44:57.330Z</time>
      </trkpt>
      <trkpt lat="47.518005" lon="8.011373">
        <ele>337.500785</ele>
        <time>2021-11-14T19:44:58.159Z</time>
      </trkpt>
      <trkpt lat="47.517842" lon="8.011140">
        <ele>337.754793</ele>
        <time>2021-11-14T19:45:03.207Z</time>
      </trkpt>
      <trkpt lat="47.517559" lon="8.011519">
        <ele>338.136817</ele>
        <time>2021-11-14T19:45:11.114Z</time>
      </trkpt>
      <trkpt lat="47.517220" lon="8.011958">
        <ele>338.587698</ele>
        <time>2021-11-14T19:45:19.540Z</time>
      </trkpt>
      <trkpt lat="47.516968" lon="8.012240">
        <ele>338.903937</ele>
        <time>2021-11-14T19:45:24.958Z</time>
      </trkpt>
      <trkpt lat="47.515686" lon="8.013458">
        <ele>340.278545</ele>
        <time>2021-11-14T19:45:51.319Z</time>
      </trkpt>
      <trkpt lat="47.515654" lon="8.013483">
        <ele>340.309611</ele>
        <time>2021-11-14T19:45:52.101Z</time>
      </trkpt>
      <trkpt lat="47.515613" lon="8.013424">
        <ele>340.358702</ele>
        <time>2021-11-14T19:45:53.247Z</time>
      </trkpt>
      <trkpt lat="47.515541" lon="8.013407">
        <ele>340.421303</ele>
        <time>2021-11-14T19:45:54.601Z</time>
      </trkpt>
      <trkpt lat="47.515502" lon="8.013432">
        <ele>340.457793</ele>
        <time>2021-11-14T19:45:55.509Z</time>
      </trkpt>
      <trkpt lat="47.515475" lon="8.013469">
        <ele>340.489381</ele>
        <time>2021-11-14T19:45:56.179Z</time>
      </trkpt>
      <trkpt lat="47.515457" lon="8.013608">
        <ele>340.571456</ele>
        <time>2021-11-14T19:45:57.900Z</time>
      </trkpt>
      <trkpt lat="47.515468" lon="8.013643">
        <ele>340.593843</ele>
        <time>2021-11-14T19:45:58.364Z</time>
      </trkpt>
      <trkpt lat="47.515263" lon="8.013836">
        <ele>340.802429</ele>
        <time>2021-11-14T19:46:03.275Z</time>
      </trkpt>
      <trkpt lat="47.515054" lon="8.014017">
        <ele>341.063573</ele>
        <time>2021-11-14T19:46:08.030Z</time>
      </trkpt>
      <trkpt lat="47.514746" lon="8.014292">
        <ele>341.548674</ele>
        <time>2021-11-14T19:46:15.233Z</time>
      </trkpt>
      <trkpt lat="47.514628" lon="8.014407">
        <ele>341.739210</ele>
        <time>2021-11-14T19:46:18.100Z</time>
      </trkpt>
      <trkpt lat="47.514464" lon="8.014550">
        <ele>341.995912</ele>
        <time>2021-11-14T19:46:22.015Z</time>
      </trkpt>
      <trkpt lat="47.514271" lon="8.014718">
        <ele>342.297875</ele>
        <time>2021-11-14T19:46:26.511Z</time>
      </trkpt>
      <trkpt lat="47.514162" lon="8.014813">
        <ele>342.468468</ele>
        <time>2021-11-14T19:46:29.037Z</time>
      </trkpt>
      <trkpt lat="47.514036" lon="8.014936">
        <ele>342.672024</ele>
        <time>2021-11-14T19:46:32.306Z</time>
      </trkpt>
      <trkpt lat="47.513919" lon="8.015052">
        <ele>342.861940</ele>
        <time>2021-11-14T19:46:35.194Z</time>
      </trkpt>
      <trkpt lat="47.513872" lon="8.015092">
        <ele>342.935058</ele>
        <time>2021-11-14T19:46:36.270Z</time>
      </trkpt>
      <trkpt lat="47.513615" lon="8.015346">
        <ele>343.348210</ele>
        <time>2021-11-14T19:46:42.881Z</time>
      </trkpt>
      <trkpt lat="47.512943" lon="8.015998">
        <ele>343.990671</ele>
        <time>2021-11-14T19:46:58.697Z</time>
      </trkpt>
      <trkpt lat="47.512748" lon="8.016153">
        <ele>344.167652</ele>
        <time>2021-11-14T19:47:02.551Z</time>
      </trkpt>
      <trkpt lat="47.512572" lon="8.016270">
        <ele>344.321924</ele>
        <time>2021-11-14T19:47:05.725Z</time>
      </trkpt>
      <trkpt lat="47.512292" lon="8.016407">
        <ele>344.557733</ele>
        <time>2021-11-14T19:47:10.692Z</time>
      </trkpt>
      <trkpt lat="47.511937" lon="8.016578">
        <ele>344.757449</ele>
        <time>2021-11-14T19:47:16.642Z</time>
      </trkpt>
      <trkpt lat="47.511835" lon="8.016624">
        <ele>344.730436</ele>
        <time>2021-11-14T19:47:18.137Z</time>
      </trkpt>
      <trkpt lat="47.511079" lon="8.016999">
        <ele>344.528446</ele>
        <time>2021-11-14T19:47:29.727Z</time>
      </trkpt>
      <trkpt lat="47.510624" lon="8.017217">
        <ele>344.407290</ele>
        <time>2021-11-14T19:47:36.094Z</time>
      </trkpt>
      <trkpt lat="47.510117" lon="8.017458">
        <ele>344.216396</ele>
        <time>2021-11-14T19:47:42.837Z</time>
      </trkpt>
      <trkpt lat="47.509872" lon="8.017541">
        <ele>344.085662</ele>
        <time>2021-11-14T19:47:46.000Z</time>
      </trkpt>
      <trkpt lat="47.509728" lon="8.017576">
        <ele>344.009755</ele>
        <time>2021-11-14T19:47:47.956Z</time>
      </trkpt>
      <trkpt lat="47.509596" lon="8.017609">
        <ele>343.940121</ele>
        <time>2021-11-14T19:47:49.612Z</time>
      </trkpt>
      <trkpt lat="47.509437" lon="8.017668">
        <ele>343.854857</ele>
        <time>2021-11-14T19:47:51.736Z</time>
      </trkpt>
      <trkpt lat="47.509253" lon="8.017765">
        <ele>343.753260</ele>
        <time>2021-11-14T19:47:54.248Z</time>
      </trkpt>
      <trkpt lat="47.509105" lon="8.017861">
        <ele>343.669210</ele>
        <time>2021-11-14T19:47:56.351Z</time>
      </trkpt>
      <trkpt lat="47.508988" lon="8.017959">
        <ele>343.599285</ele>
        <time>2021-11-14T19:47:58.126Z</time>
      </trkpt>
      <trkpt lat="47.508896" lon="8.018035">
        <ele>343.544484</ele>
        <time>2021-11-14T19:47:59.433Z</time>
      </trkpt>
      <trkpt lat="47.508805" lon="8.018141">
        <ele>343.484253</ele>
        <time>2021-11-14T19:48:01.070Z</time>
      </trkpt>
      <trkpt lat="47.508699" lon="8.018304">
        <ele>343.404754</ele>
        <time>2021-11-14T19:48:03.187Z</time>
      </trkpt>
      <trkpt lat="47.508636" lon="8.018423">
        <ele>343.456381</ele>
        <time>2021-11-14T19:48:04.534Z</time>
      </trkpt>
      <trkpt lat="47.508617" lon="8.018463">
        <ele>343.486156</ele>
        <time>2021-11-14T19:48:04.987Z</time>
      </trkpt>
      <trkpt lat="47.508597" lon="8.018443">
        <ele>343.507912</ele>
        <time>2021-11-14T19:48:05.400Z</time>
      </trkpt>
      <trkpt lat="47.508507" lon="8.018455">
        <ele>343.589368</ele>
        <time>2021-11-14T19:48:06.894Z</time>
      </trkpt>
      <trkpt lat="47.508490" lon="8.018479">
        <ele>343.610544</ele>
        <time>2021-11-14T19:48:07.303Z</time>
      </trkpt>
      <trkpt lat="47.508475" lon="8.018519">
        <ele>343.638401</ele>
        <time>2021-11-14T19:48:07.738Z</time>
      </trkpt>
      <trkpt lat="47.508493" lon="8.018648">
        <ele>343.718607</ele>
        <time>2021-11-14T19:48:09.154Z</time>
      </trkpt>
      <trkpt lat="47.508517" lon="8.018677">
        <ele>343.746533</ele>
        <time>2021-11-14T19:48:09.571Z</time>
      </trkpt>
      <trkpt lat="47.508505" lon="8.018716">
        <ele>343.772627</ele>
        <time>2021-11-14T19:48:10.035Z</time>
      </trkpt>
      <trkpt lat="47.508436" lon="8.018909">
        <ele>343.905589</ele>
        <time>2021-11-14T19:48:12.658Z</time>
      </trkpt>
      <trkpt lat="47.508403" lon="8.018982">
        <ele>343.959074</ele>
        <time>2021-11-14T19:48:13.660Z</time>
      </trkpt>
      <trkpt lat="47.508273" lon="8.019268">
        <ele>344.168976</ele>
        <time>2021-11-14T19:48:17.835Z</time>
      </trkpt>
      <trkpt lat="47.508117" lon="8.019584">
        <ele>344.407298</ele>
        <time>2021-11-14T19:48:22.806Z</time>
      </trkpt>
      <trkpt lat="47.508075" lon="8.019669">
        <ele>344.471423</ele>
        <time>2021-11-14T19:48:24.262Z</time>
      </trkpt>
      <trkpt lat="47.508029" lon="8.019761">
        <ele>344.541119</ele>
        <time>2021-11-14T19:48:25.886Z</time>
      </trkpt>
      <trkpt lat="47.507951" lon="8.019911">
        <ele>344.656383</ele>
        <time>2021-11-14T19:48:28.579Z</time>
      </trkpt>
      <trkpt lat="47.507863" lon="8.020075">
        <ele>344.783916</ele>
        <time>2021-11-14T19:48:31.384Z</time>
      </trkpt>
      <trkpt lat="47.507666" lon="8.020400">
        <ele>345.117375</ele>
        <time>2021-11-14T19:48:37.750Z</time>
      </trkpt>
      <trkpt lat="47.507609" lon="8.020484">
        <ele>345.317106</ele>
        <time>2021-11-14T19:48:39.579Z</time>
      </trkpt>
      <trkpt lat="47.507466" lon="8.020697">
        <ele>345.820873</ele>
        <time>2021-11-14T19:48:44.389Z</time>
      </trkpt>
      <trkpt lat="47.507213" lon="8.021061">
        <ele>346.697001</ele>
        <time>2021-11-14T19:48:53.167Z</time>
      </trkpt>
      <trkpt lat="47.507007" lon="8.021362">
        <ele>347.415795</ele>
        <time>2021-11-14T19:49:00.737Z</time>
      </trkpt>
      <trkpt lat="47.506949" lon="8.021459">
        <ele>347.633106</ele>
        <time>2021-11-14T19:49:03.003Z</time>
      </trkpt>
      <trkpt lat="47.506910" lon="8.021529">
        <ele>347.785320</ele>
        <time>2021-11-14T19:49:04.503Z</time>
      </trkpt>
      <trkpt lat="47.506867" lon="8.021604">
        <ele>347.950342</ele>
        <time>2021-11-14T19:49:06.357Z</time>
      </trkpt>
      <trkpt lat="47.506735" lon="8.021861">
        <ele>348.491936</ele>
        <time>2021-11-14T19:49:12.239Z</time>
      </trkpt>
      <trkpt lat="47.506678" lon="8.022015">
        <ele>348.786514</ele>
        <time>2021-11-14T19:49:15.270Z</time>
      </trkpt>
      <trkpt lat="47.506655" lon="8.022123">
        <ele>348.976478</ele>
        <time>2021-11-14T19:49:17.387Z</time>
      </trkpt>
      <trkpt lat="47.506621" lon="8.022234">
        <ele>349.180933</ele>
        <time>2021-11-14T19:49:19.463Z</time>
      </trkpt>
      <trkpt lat="47.506535" lon="8.022414">
        <ele>349.537057</ele>
        <time>2021-11-14T19:49:23.037Z</time>
      </trkpt>
      <trkpt lat="47.506468" lon="8.022553">
        <ele>349.769484</ele>
        <time>2021-11-14T19:49:26.017Z</time>
      </trkpt>
      <trkpt lat="47.506258" lon="8.022985">
        <ele>350.493927</ele>
        <time>2021-11-14T19:49:34.703Z</time>
      </trkpt>
      <trkpt lat="47.506232" lon="8.023038">
        <ele>350.583084</ele>
        <time>2021-11-14T19:49:35.744Z</time>
      </trkpt>
      <trkpt lat="47.506199" lon="8.023103">
        <ele>350.693761</ele>
        <time>2021-11-14T19:49:37.033Z</time>
      </trkpt>
      <trkpt lat="47.505883" lon="8.023827">
        <ele>351.867047</ele>
        <time>2021-11-14T19:49:50.430Z</time>
      </trkpt>
      <trkpt lat="47.505697" lon="8.024216">
        <ele>352.515760</ele>
        <time>2021-11-14T19:49:57.520Z</time>
      </trkpt>
      <trkpt lat="47.505612" lon="8.024383">
        <ele>352.800377</ele>
        <time>2021-11-14T19:50:00.634Z</time>
      </trkpt>
      <trkpt lat="47.505559" lon="8.024486">
        <ele>352.976619</ele>
        <time>2021-11-14T19:50:02.392Z</time>
      </trkpt>
      <trkpt lat="47.505192" lon="8.025207">
        <ele>353.575753</ele>
        <time>2021-11-14T19:50:14.287Z</time>
      </trkpt>
      <trkpt lat="47.504823" lon="8.026024">
        <ele>354.149919</ele>
        <time>2021-11-14T19:50:26.219Z</time>
      </trkpt>
      <trkpt lat="47.504760" lon="8.026163">
        <ele>354.247711</ele>
        <time>2021-11-14T19:50:28.204Z</time>
      </trkpt>
      <trkpt lat="47.504725" lon="8.026244">
        <ele>354.303886</ele>
        <time>2021-11-14T19:50:29.457Z</time>
      </trkpt>
      <trkpt lat="47.504704" lon="8.026294">
        <ele>354.338283</ele>
        <time>2021-11-14T19:50:30.108Z</time>
      </trkpt>
      <trkpt lat="47.504676" lon="8.026276">
        <ele>354.364683</ele>
        <time>2021-11-14T19:50:30.617Z</time>
      </trkpt>
      <trkpt lat="47.504602" lon="8.026299">
        <ele>354.430077</ele>
        <time>2021-11-14T19:50:31.861Z</time>
      </trkpt>
      <trkpt lat="47.504574" lon="8.026349">
        <ele>354.468020</ele>
        <time>2021-11-14T19:50:32.591Z</time>
      </trkpt>
      <trkpt lat="47.504566" lon="8.026393">
        <ele>354.494641</ele>
        <time>2021-11-14T19:50:33.147Z</time>
      </trkpt>
      <trkpt lat="47.504579" lon="8.026477">
        <ele>354.544987</ele>
        <time>2021-11-14T19:50:34.077Z</time>
      </trkpt>
      <trkpt lat="47.504614" lon="8.026525">
        <ele>354.586250</ele>
        <time>2021-11-14T19:50:34.856Z</time>
      </trkpt>
      <trkpt lat="47.504606" lon="8.026545">
        <ele>354.599830</ele>
        <time>2021-11-14T19:50:35.261Z</time>
      </trkpt>
      <trkpt lat="47.504221" lon="8.027444">
        <ele>354.996260</ele>
        <time>2021-11-14T19:50:46.794Z</time>
      </trkpt>
      <trkpt lat="47.504063" lon="8.027828">
        <ele>355.153925</ele>
        <time>2021-11-14T19:50:51.696Z</time>
      </trkpt>
      <trkpt lat="47.503672" lon="8.028775">
        <ele>355.543116</ele>
        <time>2021-11-14T19:51:04.615Z</time>
      </trkpt>
      <trkpt lat="47.503617" lon="8.028907">
        <ele>355.603382</ele>
        <time>2021-11-14T19:51:06.468Z</time>
      </trkpt>
      <trkpt lat="47.503408" lon="8.029412">
        <ele>356.013083</ele>
        <time>2021-11-14T19:51:13.765Z</time>
      </trkpt>
      <trkpt lat="47.503055" lon="8.030264">
        <ele>356.704512</ele>
        <time>2021-11-14T19:51:26.187Z</time>
      </trkpt>
      <trkpt lat="47.502589" lon="8.031477">
        <ele>357.759048</ele>
        <time>2021-11-14T19:51:44.830Z</time>
      </trkpt>
      <trkpt lat="47.502278" lon="8.032378">
        <ele>358.722960</ele>
        <time>2021-11-14T19:51:59.192Z</time>
      </trkpt>
      <trkpt lat="47.502050" lon="8.032952">
        <ele>359.357317</ele>
        <time>2021-11-14T19:52:08.972Z</time>
      </trkpt>
      <trkpt lat="47.501972" lon="8.033162">
        <ele>359.585625</ele>
        <time>2021-11-14T19:52:11.992Z</time>
      </trkpt>
      <trkpt lat="47.501831" lon="8.033540">
        <ele>359.981968</ele>
        <time>2021-11-14T19:52:17.914Z</time>
      </trkpt>
      <trkpt lat="47.501831" lon="8.033540">
        <ele>359.981968</ele>
        <time>2021-11-14T19:52:17.927Z</time>
      </trkpt>
      <trkpt lat="47.501831" lon="8.033540">
        <ele>359.981968</ele>
        <time>2021-11-14T19:52:17.997Z</time>
      </trkpt>
      <trkpt lat="47.501785" lon="8.033665">
        <ele>360.042679</ele>
        <time>2021-11-14T19:52:19.722Z</time>
      </trkpt>
      <trkpt lat="47.501740" lon="8.033640">
        <ele>360.073024</ele>
        <time>2021-11-14T19:52:20.670Z</time>
      </trkpt>
      <trkpt lat="47.501690" lon="8.033644">
        <ele>360.104637</ele>
        <time>2021-11-14T19:52:21.698Z</time>
      </trkpt>
      <trkpt lat="47.501641" lon="8.033681">
        <ele>360.139365</ele>
        <time>2021-11-14T19:52:22.986Z</time>
      </trkpt>
      <trkpt lat="47.501609" lon="8.033741">
        <ele>360.171970</ele>
        <time>2021-11-14T19:52:24.008Z</time>
      </trkpt>
      <trkpt lat="47.501599" lon="8.033785">
        <ele>360.191770</ele>
        <time>2021-11-14T19:52:24.485Z</time>
      </trkpt>
      <trkpt lat="47.501629" lon="8.033943">
        <ele>360.261770</ele>
        <time>2021-11-14T19:52:26.449Z</time>
      </trkpt>
      <trkpt lat="47.501669" lon="8.033986">
        <ele>360.292980</ele>
        <time>2021-11-14T19:52:27.345Z</time>
      </trkpt>
      <trkpt lat="47.501641" lon="8.034168">
        <ele>360.372593</ele>
        <time>2021-11-14T19:52:30.097Z</time>
      </trkpt>
      <trkpt lat="47.501430" lon="8.035235">
        <ele>360.846779</ele>
        <time>2021-11-14T19:52:43.474Z</time>
      </trkpt>
      <trkpt lat="47.501358" lon="8.035895">
        <ele>361.090920</ele>
        <time>2021-11-14T19:52:50.019Z</time>
      </trkpt>
      <trkpt lat="47.501269" lon="8.036713">
        <ele>360.899104</ele>
        <time>2021-11-14T19:52:57.141Z</time>
      </trkpt>
      <trkpt lat="47.501181" lon="8.037704">
        <ele>360.667703</ele>
        <time>2021-11-14T19:53:05.607Z</time>
      </trkpt>
      <trkpt lat="47.501141" lon="8.038290">
        <ele>360.531346</ele>
        <time>2021-11-14T19:53:11.306Z</time>
      </trkpt>
      <trkpt lat="47.501117" lon="8.038538">
        <ele>360.553263</ele>
        <time>2021-11-14T19:53:13.789Z</time>
      </trkpt>
      <trkpt lat="47.501107" lon="8.038707">
        <ele>360.714832</ele>
        <time>2021-11-14T19:53:15.891Z</time>
      </trkpt>
      <trkpt lat="47.501072" lon="8.038707">
        <ele>360.764172</ele>
        <time>2021-11-14T19:53:16.589Z</time>
      </trkpt>
      <trkpt lat="47.500988" lon="8.038796">
        <ele>360.909800</ele>
        <time>2021-11-14T19:53:18.332Z</time>
      </trkpt>
      <trkpt lat="47.500977" lon="8.038845">
        <ele>360.958976</ele>
        <time>2021-11-14T19:53:18.990Z</time>
      </trkpt>
      <trkpt lat="47.500977" lon="8.038902">
        <ele>361.013262</ele>
        <time>2021-11-14T19:53:19.577Z</time>
      </trkpt>
      <trkpt lat="47.501046" lon="8.039028">
        <ele>361.167735</ele>
        <time>2021-11-14T19:53:21.196Z</time>
      </trkpt>
      <trkpt lat="47.501083" lon="8.039040">
        <ele>361.221133</ele>
        <time>2021-11-14T19:53:22.260Z</time>
      </trkpt>
      <trkpt lat="47.501026" lon="8.040085">
        <ele>362.219614</ele>
        <time>2021-11-14T19:53:36.208Z</time>
      </trkpt>
      <trkpt lat="47.501026" lon="8.040085">
        <ele>362.219614</ele>
        <time>2021-11-14T19:53:36.333Z</time>
      </trkpt>
      <trkpt lat="47.501009" lon="8.040934">
        <ele>363.030765</ele>
        <time>2021-11-14T19:53:50.209Z</time>
      </trkpt>
      <trkpt lat="47.501065" lon="8.041677">
        <ele>364.142303</ele>
        <time>2021-11-14T19:54:02.764Z</time>
      </trkpt>
      <trkpt lat="47.501123" lon="8.042252">
        <ele>365.006682</ele>
        <time>2021-11-14T19:54:13.307Z</time>
      </trkpt>
      <trkpt lat="47.501234" lon="8.043345">
        <ele>366.649996</ele>
        <time>2021-11-14T19:54:30.291Z</time>
      </trkpt>
      <trkpt lat="47.501358" lon="8.044092">
        <ele>367.428982</ele>
        <time>2021-11-14T19:54:40.874Z</time>
      </trkpt>
      <trkpt lat="47.501515" lon="8.044851">
        <ele>368.078265</ele>
        <time>2021-11-14T19:54:50.976Z</time>
      </trkpt>
      <trkpt lat="47.501759" lon="8.046002">
        <ele>369.064998</ele>
        <time>2021-11-14T19:55:06.179Z</time>
      </trkpt>
      <trkpt lat="47.502029" lon="8.047540">
        <ele>371.047981</ele>
        <time>2021-11-14T19:55:28.727Z</time>
      </trkpt>
      <trkpt lat="47.502044" lon="8.047705">
        <ele>371.261428</ele>
        <time>2021-11-14T19:55:31.408Z</time>
      </trkpt>
      <trkpt lat="47.502090" lon="8.048236">
        <ele>371.947775</ele>
        <time>2021-11-14T19:55:39.830Z</time>
      </trkpt>
      <trkpt lat="47.502094" lon="8.049547">
        <ele>374.394905</ele>
        <time>2021-11-14T19:56:02.565Z</time>
      </trkpt>
      <trkpt lat="47.502020" lon="8.051188">
        <ele>378.035855</ele>
        <time>2021-11-14T19:56:35.112Z</time>
      </trkpt>
      <trkpt lat="47.501923" lon="8.053252">
        <ele>382.177389</ele>
        <time>2021-11-14T19:57:15.631Z</time>
      </trkpt>
      <trkpt lat="47.501857" lon="8.054265">
        <ele>383.696017</ele>
        <time>2021-11-14T19:57:30.887Z</time>
      </trkpt>
      <trkpt lat="47.501851" lon="8.054393">
        <ele>383.672031</ele>
        <time>2021-11-14T19:57:32.914Z</time>
      </trkpt>
      <trkpt lat="47.501806" lon="8.054996">
        <ele>383.558620</ele>
        <time>2021-11-14T19:57:40.035Z</time>
      </trkpt>
      <trkpt lat="47.501784" lon="8.055340">
        <ele>383.494024</ele>
        <time>2021-11-14T19:57:43.233Z</time>
      </trkpt>
      <trkpt lat="47.501751" lon="8.055654">
        <ele>383.434619</ele>
        <time>2021-11-14T19:57:46.128Z</time>
      </trkpt>
      <trkpt lat="47.501717" lon="8.055892">
        <ele>383.389143</ele>
        <time>2021-11-14T19:57:48.002Z</time>
      </trkpt>
      <trkpt lat="47.501459" lon="8.056906">
        <ele>383.024104</ele>
        <time>2021-11-14T19:57:56.107Z</time>
      </trkpt>
      <trkpt lat="47.501356" lon="8.057344">
        <ele>382.679000</ele>
        <time>2021-11-14T19:57:59.485Z</time>
      </trkpt>
      <trkpt lat="47.501329" lon="8.057318">
        <ele>382.643521</ele>
        <time>2021-11-14T19:58:00.064Z</time>
      </trkpt>
      <trkpt lat="47.501221" lon="8.057344">
        <ele>382.523000</ele>
        <time>2021-11-14T19:58:01.413Z</time>
      </trkpt>
      <trkpt lat="47.501197" lon="8.057405">
        <ele>382.470472</ele>
        <time>2021-11-14T19:58:02.148Z</time>
      </trkpt>
      <trkpt lat="47.501190" lon="8.057442">
        <ele>382.441880</ele>
        <time>2021-11-14T19:58:02.378Z</time>
      </trkpt>
      <trkpt lat="47.501236" lon="8.057572">
        <ele>382.332679</ele>
        <time>2021-11-14T19:58:03.495Z</time>
      </trkpt>
      <trkpt lat="47.501265" lon="8.057592">
        <ele>382.297440</ele>
        <time>2021-11-14T19:58:03.792Z</time>
      </trkpt>
      <trkpt lat="47.501139" lon="8.058076">
        <ele>381.911470</ele>
        <time>2021-11-14T19:58:08.003Z</time>
      </trkpt>
      <trkpt lat="47.500919" lon="8.058927">
        <ele>381.280059</ele>
        <time>2021-11-14T19:58:16.831Z</time>
      </trkpt>
      <trkpt lat="47.500708" lon="8.059752">
        <ele>381.777526</ele>
        <time>2021-11-14T19:58:26.329Z</time>
      </trkpt>
      <trkpt lat="47.500604" lon="8.060344">
        <ele>382.122478</ele>
        <time>2021-11-14T19:58:34.912Z</time>
      </trkpt>
      <trkpt lat="47.500588" lon="8.060437">
        <ele>382.176597</ele>
        <time>2021-11-14T19:58:36.440Z</time>
      </trkpt>
      <trkpt lat="47.500573" lon="8.060533">
        <ele>382.232164</ele>
        <time>2021-11-14T19:58:37.905Z</time>
      </trkpt>
      <trkpt lat="47.500538" lon="8.060723">
        <ele>382.343223</ele>
        <time>2021-11-14T19:58:40.047Z</time>
      </trkpt>
      <trkpt lat="47.500438" lon="8.061324">
        <ele>382.692277</ele>
        <time>2021-11-14T19:58:47.567Z</time>
      </trkpt>
      <trkpt lat="47.500421" lon="8.061418">
        <ele>382.747153</ele>
        <time>2021-11-14T19:58:50.215Z</time>
      </trkpt>
      <trkpt lat="47.500357" lon="8.061762">
        <ele>382.927195</ele>
        <time>2021-11-14T19:58:53.832Z</time>
      </trkpt>
      <trkpt lat="47.500321" lon="8.061955">
        <ele>383.027323</ele>
        <time>2021-11-14T19:58:57.039Z</time>
      </trkpt>
      <trkpt lat="47.500111" lon="8.062899">
        <ele>383.524340</ele>
        <time>2021-11-14T19:59:08.962Z</time>
      </trkpt>
      <trkpt lat="47.500065" lon="8.063116">
        <ele>383.638076</ele>
        <time>2021-11-14T19:59:11.101Z</time>
      </trkpt>
      <trkpt lat="47.499972" lon="8.063575">
        <ele>383.877718</ele>
        <time>2021-11-14T19:59:16.953Z</time>
      </trkpt>
      <trkpt lat="47.499921" lon="8.063941">
        <ele>384.064604</ele>
        <time>2021-11-14T19:59:20.376Z</time>
      </trkpt>
      <trkpt lat="47.499832" lon="8.064625">
        <ele>384.889942</ele>
        <time>2021-11-14T19:59:29.016Z</time>
      </trkpt>
      <trkpt lat="47.499809" lon="8.064788">
        <ele>385.097269</ele>
        <time>2021-11-14T19:59:32.479Z</time>
      </trkpt>
      <trkpt lat="47.499770" lon="8.065082">
        <ele>385.470312</ele>
        <time>2021-11-14T19:59:34.960Z</time>
      </trkpt>
      <trkpt lat="47.499682" lon="8.065635">
        <ele>386.177683</ele>
        <time>2021-11-14T19:59:43.051Z</time>
      </trkpt>
      <trkpt lat="47.499668" lon="8.065730">
        <ele>386.298747</ele>
        <time>2021-11-14T19:59:46.345Z</time>
      </trkpt>
      <trkpt lat="47.499610" lon="8.066051">
        <ele>386.712465</ele>
        <time>2021-11-14T19:59:49.876Z</time>
      </trkpt>
      <trkpt lat="47.499591" lon="8.066154">
        <ele>386.845403</ele>
        <time>2021-11-14T19:59:51.586Z</time>
      </trkpt>
      <trkpt lat="47.499531" lon="8.066460">
        <ele>387.242120</ele>
        <time>2021-11-14T19:59:59.368Z</time>
      </trkpt>
      <trkpt lat="47.499519" lon="8.066520">
        <ele>387.320030</ele>
        <time>2021-11-14T19:59:59.743Z</time>
      </trkpt>
      <trkpt lat="47.499201" lon="8.068229">
        <ele>392.277340</ele>
        <time>2021-11-14T20:00:38.829Z</time>
      </trkpt>
      <trkpt lat="47.499148" lon="8.068524">
        <ele>393.150562</ele>
        <time>2021-11-14T20:00:47.666Z</time>
      </trkpt>
      <trkpt lat="47.499104" lon="8.068766">
        <ele>393.867472</ele>
        <time>2021-11-14T20:00:51.662Z</time>
      </trkpt>
      <trkpt lat="47.499075" lon="8.068991">
        <ele>394.522729</ele>
        <time>2021-11-14T20:00:57.040Z</time>
      </trkpt>
      <trkpt lat="47.499075" lon="8.068991">
        <ele>394.522729</ele>
        <time>2021-11-14T20:00:57.189Z</time>
      </trkpt>
      <trkpt lat="47.499026" lon="8.069468">
        <ele>395.514707</ele>
        <time>2021-11-14T20:01:07.222Z</time>
      </trkpt>
      <trkpt lat="47.499016" lon="8.069840">
        <ele>396.109594</ele>
        <time>2021-11-14T20:01:15.245Z</time>
      </trkpt>
      <trkpt lat="47.499170" lon="8.072504">
        <ele>399.138009</ele>
        <time>2021-11-14T20:01:53.945Z</time>
      </trkpt>
      <trkpt lat="47.499138" lon="8.073263">
        <ele>398.984570</ele>
        <time>2021-11-14T20:02:00.032Z</time>
      </trkpt>
      <trkpt lat="47.499051" lon="8.073942">
        <ele>398.845127</ele>
        <time>2021-11-14T20:02:05.816Z</time>
      </trkpt>
      <trkpt lat="47.499013" lon="8.074135">
        <ele>398.804566</ele>
        <time>2021-11-14T20:02:07.300Z</time>
      </trkpt>
      <trkpt lat="47.498960" lon="8.074378">
        <ele>398.753045</ele>
        <time>2021-11-14T20:02:09.573Z</time>
      </trkpt>
      <trkpt lat="47.498880" lon="8.074711">
        <ele>398.749747</ele>
        <time>2021-11-14T20:02:12.353Z</time>
      </trkpt>
      <trkpt lat="47.498775" lon="8.075058">
        <ele>398.762109</ele>
        <time>2021-11-14T20:02:15.610Z</time>
      </trkpt>
      <trkpt lat="47.498612" lon="8.075468">
        <ele>398.777577</ele>
        <time>2021-11-14T20:02:19.831Z</time>
      </trkpt>
      <trkpt lat="47.498061" lon="8.076857">
        <ele>398.900321</ele>
        <time>2021-11-14T20:02:37.964Z</time>
      </trkpt>
      <trkpt lat="47.497745" lon="8.077494">
        <ele>399.513218</ele>
        <time>2021-11-14T20:02:49.895Z</time>
      </trkpt>
      <trkpt lat="47.497325" lon="8.078131">
        <ele>400.203513</ele>
        <time>2021-11-14T20:03:01.795Z</time>
      </trkpt>
      <trkpt lat="47.497208" lon="8.078293">
        <ele>400.387425</ele>
        <time>2021-11-14T20:03:05.211Z</time>
      </trkpt>
      <trkpt lat="47.497084" lon="8.078448">
        <ele>400.573737</ele>
        <time>2021-11-14T20:03:07.907Z</time>
      </trkpt>
      <trkpt lat="47.497112" lon="8.078490">
        <ele>400.619498</ele>
        <time>2021-11-14T20:03:09.010Z</time>
      </trkpt>
      <trkpt lat="47.497125" lon="8.078508">
        <ele>400.639933</ele>
        <time>2021-11-14T20:03:09.648Z</time>
      </trkpt>
      <trkpt lat="47.497038" lon="8.078610">
        <ele>400.767337</ele>
        <time>2021-11-14T20:03:12.474Z</time>
      </trkpt>
      <trkpt lat="47.496793" lon="8.078891">
        <ele>400.986487</ele>
        <time>2021-11-14T20:03:19.715Z</time>
      </trkpt>
      <trkpt lat="47.496446" lon="8.079280">
        <ele>401.191326</ele>
        <time>2021-11-14T20:03:29.485Z</time>
      </trkpt>
      <trkpt lat="47.496380" lon="8.079285">
        <ele>401.222424</ele>
        <time>2021-11-14T20:03:30.337Z</time>
      </trkpt>
      <trkpt lat="47.496040" lon="8.079701">
        <ele>401.430009</ele>
        <time>2021-11-14T20:03:37.479Z</time>
      </trkpt>
      <trkpt lat="47.495859" lon="8.079943">
        <ele>401.544788</ele>
        <time>2021-11-14T20:03:41.599Z</time>
      </trkpt>
      <trkpt lat="47.495681" lon="8.080229">
        <ele>401.668418</ele>
        <time>2021-11-14T20:03:45.563Z</time>
      </trkpt>
      <trkpt lat="47.495562" lon="8.080466">
        <ele>401.808139</ele>
        <time>2021-11-14T20:03:48.616Z</time>
      </trkpt>
      <trkpt lat="47.495515" lon="8.080558">
        <ele>401.913832</ele>
        <time>2021-11-14T20:03:49.853Z</time>
      </trkpt>
      <trkpt lat="47.495384" lon="8.080873">
        <ele>402.252790</ele>
        <time>2021-11-14T20:03:53.914Z</time>
      </trkpt>
      <trkpt lat="47.495292" lon="8.081144">
        <ele>402.530714</ele>
        <time>2021-11-14T20:03:57.684Z</time>
      </trkpt>
      <trkpt lat="47.495281" lon="8.081177">
        <ele>402.564435</ele>
        <time>2021-11-14T20:03:58.206Z</time>
      </trkpt>
      <trkpt lat="47.495207" lon="8.081445">
        <ele>402.829742</ele>
        <time>2021-11-14T20:04:01.597Z</time>
      </trkpt>
      <trkpt lat="47.495162" lon="8.081632">
        <ele>403.011650</ele>
        <time>2021-11-14T20:04:04.316Z</time>
      </trkpt>
      <trkpt lat="47.495132" lon="8.081754">
        <ele>403.130622</ele>
        <time>2021-11-14T20:04:06.009Z</time>
      </trkpt>
      <trkpt lat="47.495088" lon="8.082021">
        <ele>403.382469</ele>
        <time>2021-11-14T20:04:09.617Z</time>
      </trkpt>
      <trkpt lat="47.495034" lon="8.082354">
        <ele>403.696291</ele>
        <time>2021-11-14T20:04:14.464Z</time>
      </trkpt>
      <trkpt lat="47.495018" lon="8.082502">
        <ele>403.833641</ele>
        <time>2021-11-14T20:04:17.127Z</time>
      </trkpt>
      <trkpt lat="47.494982" lon="8.082826">
        <ele>404.134538</ele>
        <time>2021-11-14T20:04:21.813Z</time>
      </trkpt>
      <trkpt lat="47.494963" lon="8.083009">
        <ele>404.565012</ele>
        <time>2021-11-14T20:04:25.332Z</time>
      </trkpt>
      <trkpt lat="47.494933" lon="8.083243">
        <ele>405.232296</ele>
        <time>2021-11-14T20:04:30.357Z</time>
      </trkpt>
      <trkpt lat="47.494898" lon="8.083514">
        <ele>406.005290</ele>
        <time>2021-11-14T20:04:35.916Z</time>
      </trkpt>
      <trkpt lat="47.494822" lon="8.084015">
        <ele>407.443861</ele>
        <time>2021-11-14T20:04:46.846Z</time>
      </trkpt>
      <trkpt lat="47.494924" lon="8.084065">
        <ele>407.889406</ele>
        <time>2021-11-14T20:04:50.189Z</time>
      </trkpt>
      <trkpt lat="47.495055" lon="8.084135">
        <ele>408.466925</ele>
        <time>2021-11-14T20:04:54.943Z</time>
      </trkpt>
      <trkpt lat="47.495106" lon="8.084168">
        <ele>408.697726</ele>
        <time>2021-11-14T20:04:56.465Z</time>
      </trkpt>
      <trkpt lat="47.495171" lon="8.084232">
        <ele>409.021447</ele>
        <time>2021-11-14T20:04:58.956Z</time>
      </trkpt>
      <trkpt lat="47.495445" lon="8.084551">
        <ele>410.466990</ele>
        <time>2021-11-14T20:05:11.366Z</time>
      </trkpt>
      <trkpt lat="47.495549" lon="8.084639">
        <ele>410.963733</ele>
        <time>2021-11-14T20:05:15.614Z</time>
      </trkpt>
      <trkpt lat="47.495636" lon="8.084745">
        <ele>411.430995</ele>
        <time>2021-11-14T20:05:20.480Z</time>
      </trkpt>
      <trkpt lat="47.496002" lon="8.085400">
        <ele>413.737640</ele>
        <time>2021-11-14T20:05:38.572Z</time>
      </trkpt>
      <trkpt lat="47.496274" lon="8.085642">
        <ele>415.008456</ele>
        <time>2021-11-14T20:05:48.496Z</time>
      </trkpt>
      <trkpt lat="47.496373" lon="8.085787">
        <ele>415.566174</ele>
        <time>2021-11-14T20:05:53.639Z</time>
      </trkpt>
      <trkpt lat="47.496422" lon="8.086009">
        <ele>416.198026</ele>
        <time>2021-11-14T20:05:57.467Z</time>
      </trkpt>
      <trkpt lat="47.496519" lon="8.086234">
        <ele>416.920121</ele>
        <time>2021-11-14T20:06:03.043Z</time>
      </trkpt>
      <trkpt lat="47.496576" lon="8.086291">
        <ele>417.195580</ele>
        <time>2021-11-14T20:06:06.163Z</time>
      </trkpt>
      <trkpt lat="47.496752" lon="8.086468">
        <ele>418.047637</ele>
        <time>2021-11-14T20:06:11.192Z</time>
      </trkpt>
      <trkpt lat="47.496950" lon="8.086653">
        <ele>418.976213</ele>
        <time>2021-11-14T20:06:17.998Z</time>
      </trkpt>
      <trkpt lat="47.497376" lon="8.086991">
        <ele>420.792851</ele>
        <time>2021-11-14T20:06:30.729Z</time>
      </trkpt>
      <trkpt lat="47.497737" lon="8.087270">
        <ele>422.323480</ele>
        <time>2021-11-14T20:06:41.327Z</time>
      </trkpt>
      <trkpt lat="47.497928" lon="8.087452">
        <ele>423.177242</ele>
        <time>2021-11-14T20:06:48.785Z</time>
      </trkpt>
      <trkpt lat="47.498188" lon="8.087851">
        <ele>424.584872</ele>
        <time>2021-11-14T20:07:00.758Z</time>
      </trkpt>
      <trkpt lat="47.498481" lon="8.088558">
        <ele>426.936754</ele>
        <time>2021-11-14T20:07:19.750Z</time>
      </trkpt>
      <trkpt lat="47.498666" lon="8.088885">
        <ele>428.263336</ele>
        <time>2021-11-14T20:07:29.732Z</time>
      </trkpt>
      <trkpt lat="47.498851" lon="8.089152">
        <ele>429.452886</ele>
        <time>2021-11-14T20:07:39.950Z</time>
      </trkpt>
      <trkpt lat="47.498994" lon="8.089359">
        <ele>430.373714</ele>
        <time>2021-11-14T20:07:46.920Z</time>
      </trkpt>
      <trkpt lat="47.500332" lon="8.091539">
        <ele>437.848513</ele>
        <time>2021-11-14T20:08:47.739Z</time>
      </trkpt>
      <trkpt lat="47.500507" lon="8.091877">
        <ele>438.778199</ele>
        <time>2021-11-14T20:08:54.749Z</time>
      </trkpt>
      <trkpt lat="47.500685" lon="8.092227">
        <ele>439.701642</ele>
        <time>2021-11-14T20:09:01.620Z</time>
      </trkpt>
      <trkpt lat="47.501149" lon="8.093186">
        <ele>440.334375</ele>
        <time>2021-11-14T20:09:16.287Z</time>
      </trkpt>
      <trkpt lat="47.501513" lon="8.093894">
        <ele>440.811614</ele>
        <time>2021-11-14T20:09:26.552Z</time>
      </trkpt>
      <trkpt lat="47.501590" lon="8.094043">
        <ele>440.912241</ele>
        <time>2021-11-14T20:09:28.044Z</time>
      </trkpt>
      <trkpt lat="47.502026" lon="8.094768">
        <ele>441.622700</ele>
        <time>2021-11-14T20:09:38.965Z</time>
      </trkpt>
      <trkpt lat="47.502110" lon="8.094873">
        <ele>441.762785</ele>
        <time>2021-11-14T20:09:40.295Z</time>
      </trkpt>
      <trkpt lat="47.502217" lon="8.094977">
        <ele>441.925883</ele>
        <time>2021-11-14T20:09:43.180Z</time>
      </trkpt>
      <trkpt lat="47.502282" lon="8.095019">
        <ele>442.016250</ele>
        <time>2021-11-14T20:09:44.778Z</time>
      </trkpt>
      <trkpt lat="47.502574" lon="8.095231">
        <ele>442.430646</ele>
        <time>2021-11-14T20:09:50.898Z</time>
      </trkpt>
      <trkpt lat="47.502910" lon="8.095439">
        <ele>442.894691</ele>
        <time>2021-11-14T20:09:57.776Z</time>
      </trkpt>
      <trkpt lat="47.503482" lon="8.095792">
        <ele>444.269114</ele>
        <time>2021-11-14T20:10:12.313Z</time>
      </trkpt>
      <trkpt lat="47.503767" lon="8.095971">
        <ele>445.506929</ele>
        <time>2021-11-14T20:10:21.837Z</time>
      </trkpt>
      <trkpt lat="47.504630" lon="8.096527">
        <ele>449.270014</ele>
        <time>2021-11-14T20:10:53.476Z</time>
      </trkpt>
      <trkpt lat="47.504815" lon="8.096672">
        <ele>450.106965</ele>
        <time>2021-11-14T20:11:00.506Z</time>
      </trkpt>
      <trkpt lat="47.504977" lon="8.096829">
        <ele>450.805597</ele>
        <time>2021-11-14T20:11:07.404Z</time>
      </trkpt>
      <trkpt lat="47.505090" lon="8.096968">
        <ele>451.233981</ele>
        <time>2021-11-14T20:11:11.818Z</time>
      </trkpt>
      <trkpt lat="47.505224" lon="8.097111">
        <ele>451.715631</ele>
        <time>2021-11-14T20:11:17.064Z</time>
      </trkpt>
      <trkpt lat="47.505520" lon="8.097456">
        <ele>452.814098</ele>
        <time>2021-11-14T20:11:27.409Z</time>
      </trkpt>
      <trkpt lat="47.505811" lon="8.097796">
        <ele>453.895017</ele>
        <time>2021-11-14T20:11:36.285Z</time>
      </trkpt>
      <trkpt lat="47.505855" lon="8.097849">
        <ele>454.060415</ele>
        <time>2021-11-14T20:11:37.567Z</time>
      </trkpt>
      <trkpt lat="47.506023" lon="8.098051">
        <ele>454.691481</ele>
        <time>2021-11-14T20:11:43.102Z</time>
      </trkpt>
      <trkpt lat="47.506383" lon="8.098483">
        <ele>455.946770</ele>
        <time>2021-11-14T20:11:54.024Z</time>
      </trkpt>
      <trkpt lat="47.506485" lon="8.098597">
        <ele>456.137210</ele>
        <time>2021-11-14T20:11:56.065Z</time>
      </trkpt>
      <trkpt lat="47.506767" lon="8.098876">
        <ele>456.642615</ele>
        <time>2021-11-14T20:12:03.502Z</time>
      </trkpt>
      <trkpt lat="47.506874" lon="8.098948">
        <ele>456.817752</ele>
        <time>2021-11-14T20:12:06.405Z</time>
      </trkpt>
      <trkpt lat="47.506976" lon="8.099024">
        <ele>456.987905</ele>
        <time>2021-11-14T20:12:08.562Z</time>
      </trkpt>
      <trkpt lat="47.507131" lon="8.099082">
        <ele>457.226131</ele>
        <time>2021-11-14T20:12:10.719Z</time>
      </trkpt>
      <trkpt lat="47.507198" lon="8.099101">
        <ele>457.327782</ele>
        <time>2021-11-14T20:12:12.514Z</time>
      </trkpt>
      <trkpt lat="47.507495" lon="8.099134">
        <ele>457.771580</ele>
        <time>2021-11-14T20:12:17.389Z</time>
      </trkpt>
      <trkpt lat="47.507666" lon="8.099135">
        <ele>458.026385</ele>
        <time>2021-11-14T20:12:21.323Z</time>
      </trkpt>
      <trkpt lat="47.507728" lon="8.099150">
        <ele>458.119996</ele>
        <time>2021-11-14T20:12:22.647Z</time>
      </trkpt>
      <trkpt lat="47.508035" lon="8.099268">
        <ele>458.666045</ele>
        <time>2021-11-14T20:12:28.821Z</time>
      </trkpt>
      <trkpt lat="47.508341" lon="8.099423">
        <ele>459.684200</ele>
        <time>2021-11-14T20:12:36.567Z</time>
      </trkpt>
      <trkpt lat="47.508401" lon="8.099452">
        <ele>459.882900</ele>
        <time>2021-11-14T20:12:38.226Z</time>
      </trkpt>
      <trkpt lat="47.508511" lon="8.099532">
        <ele>460.268724</ele>
        <time>2021-11-14T20:12:41.197Z</time>
      </trkpt>
      <trkpt lat="47.508596" lon="8.099602">
        <ele>460.574930</ele>
        <time>2021-11-14T20:12:44.628Z</time>
      </trkpt>
      <trkpt lat="47.508688" lon="8.099702">
        <ele>460.934241</ele>
        <time>2021-11-14T20:12:48.607Z</time>
      </trkpt>
      <trkpt lat="47.509176" lon="8.100345">
        <ele>462.990877</ele>
        <time>2021-11-14T20:13:07.822Z</time>
      </trkpt>
      <trkpt lat="47.509343" lon="8.100494">
        <ele>463.604709</ele>
        <time>2021-11-14T20:13:13.325Z</time>
      </trkpt>
      <trkpt lat="47.509412" lon="8.100549">
        <ele>463.851414</ele>
        <time>2021-11-14T20:13:15.450Z</time>
      </trkpt>
      <trkpt lat="47.509622" lon="8.100692">
        <ele>464.647401</ele>
        <time>2021-11-14T20:13:22.030Z</time>
      </trkpt>
      <trkpt lat="47.509638" lon="8.100703">
        <ele>464.712660</ele>
        <time>2021-11-14T20:13:22.513Z</time>
      </trkpt>
      <trkpt lat="47.509944" lon="8.100887">
        <ele>465.934448</ele>
        <time>2021-11-14T20:13:32.026Z</time>
      </trkpt>
      <trkpt lat="47.510731" lon="8.101349">
        <ele>469.066305</ele>
        <time>2021-11-14T20:13:56.984Z</time>
      </trkpt>
      <trkpt lat="47.511350" lon="8.101444">
        <ele>471.915857</ele>
        <time>2021-11-14T20:14:15.486Z</time>
      </trkpt>
      <trkpt lat="47.511784" lon="8.101451">
        <ele>475.193191</ele>
        <time>2021-11-14T20:14:28.745Z</time>
      </trkpt>
      <trkpt lat="47.512294" lon="8.101446">
        <ele>479.044291</ele>
        <time>2021-11-14T20:14:53.295Z</time>
      </trkpt>
      <trkpt lat="47.513097" lon="8.101440">
        <ele>485.593966</ele>
        <time>2021-11-14T20:15:35.041Z</time>
      </trkpt>
      <trkpt lat="47.513213" lon="8.101454">
        <ele>487.097771</ele>
        <time>2021-11-14T20:15:41.369Z</time>
      </trkpt>
      <trkpt lat="47.513274" lon="8.101477">
        <ele>487.911107</ele>
        <time>2021-11-14T20:15:48.112Z</time>
      </trkpt>
      <trkpt lat="47.513402" lon="8.101592">
        <ele>489.845680</ele>
        <time>2021-11-14T20:15:55.220Z</time>
      </trkpt>
      <trkpt lat="47.514173" lon="8.102716">
        <ele>503.826452</ele>
        <time>2021-11-14T20:17:12.446Z</time>
      </trkpt>
      <trkpt lat="47.514667" lon="8.103702">
        <ele>513.952808</ele>
        <time>2021-11-14T20:18:09.359Z</time>
      </trkpt>
      <trkpt lat="47.514756" lon="8.103964">
        <ele>516.293519</ele>
        <time>2021-11-14T20:18:22.307Z</time>
      </trkpt>
      <trkpt lat="47.514931" lon="8.104527">
        <ele>521.240057</ele>
        <time>2021-11-14T20:18:48.354Z</time>
      </trkpt>
      <trkpt lat="47.515233" lon="8.105459">
        <ele>529.312897</ele>
        <time>2021-11-14T20:19:28.803Z</time>
      </trkpt>
      <trkpt lat="47.515271" lon="8.105582">
        <ele>530.056745</ele>
        <time>2021-11-14T20:19:34.090Z</time>
      </trkpt>
      <trkpt lat="47.515524" lon="8.106413">
        <ele>535.069683</ele>
        <time>2021-11-14T20:20:03.807Z</time>
      </trkpt>
      <trkpt lat="47.516180" lon="8.108478">
        <ele>546.945194</ele>
        <time>2021-11-14T20:21:11.654Z</time>
      </trkpt>
      <trkpt lat="47.516517" lon="8.109548">
        <ele>552.357999</ele>
        <time>2021-11-14T20:21:45.344Z</time>
      </trkpt>
      <trkpt lat="47.516730" lon="8.110266">
        <ele>555.870826</ele>
        <time>2021-11-14T20:22:07.575Z</time>
      </trkpt>
      <trkpt lat="47.516960" lon="8.110849">
        <ele>557.534472</ele>
        <time>2021-11-14T20:22:24.227Z</time>
      </trkpt>
      <trkpt lat="47.517126" lon="8.111099">
        <ele>558.398327</ele>
        <time>2021-11-14T20:22:32.376Z</time>
      </trkpt>
      <trkpt lat="47.517402" lon="8.111532">
        <ele>559.865380</ele>
        <time>2021-11-14T20:22:45.296Z</time>
      </trkpt>
      <trkpt lat="47.517585" lon="8.111839">
        <ele>560.874322</ele>
        <time>2021-11-14T20:22:52.188Z</time>
      </trkpt>
      <trkpt lat="47.517983" lon="8.112466">
        <ele>562.146804</ele>
        <time>2021-11-14T20:23:02.994Z</time>
      </trkpt>
      <trkpt lat="47.518295" lon="8.113056">
        <ele>561.612493</ele>
        <time>2021-11-14T20:23:09.692Z</time>
      </trkpt>
      <trkpt lat="47.518474" lon="8.113619">
        <ele>561.168796</ele>
        <time>2021-11-14T20:23:14.303Z</time>
      </trkpt>
      <trkpt lat="47.518892" lon="8.116720">
        <ele>557.811812</ele>
        <time>2021-11-14T20:23:37.853Z</time>
      </trkpt>
      <trkpt lat="47.518885" lon="8.117042">
        <ele>557.415951</ele>
        <time>2021-11-14T20:23:40.550Z</time>
      </trkpt>
      <trkpt lat="47.518740" lon="8.117714">
        <ele>557.172506</ele>
        <time>2021-11-14T20:23:46.013Z</time>
      </trkpt>
      <trkpt lat="47.518622" lon="8.118005">
        <ele>557.177194</ele>
        <time>2021-11-14T20:23:48.570Z</time>
      </trkpt>
      <trkpt lat="47.518325" lon="8.118433">
        <ele>557.185670</ele>
        <time>2021-11-14T20:23:53.205Z</time>
      </trkpt>
      <trkpt lat="47.518234" lon="8.118678">
        <ele>557.189532</ele>
        <time>2021-11-14T20:23:57.250Z</time>
      </trkpt>
      <trkpt lat="47.518226" lon="8.118790">
        <ele>557.191087</ele>
        <time>2021-11-14T20:23:58.517Z</time>
      </trkpt>
      <trkpt lat="47.518291" lon="8.118990">
        <ele>557.194153</ele>
        <time>2021-11-14T20:24:01.251Z</time>
      </trkpt>
      <trkpt lat="47.518372" lon="8.119045">
        <ele>557.195975</ele>
        <time>2021-11-14T20:24:03.900Z</time>
      </trkpt>
      <trkpt lat="47.518662" lon="8.118990">
        <ele>557.201955</ele>
        <time>2021-11-14T20:24:10.223Z</time>
      </trkpt>
      <trkpt lat="47.518865" lon="8.118958">
        <ele>558.217547</ele>
        <time>2021-11-14T20:24:15.219Z</time>
      </trkpt>
      <trkpt lat="47.519020" lon="8.118892">
        <ele>559.106083</ele>
        <time>2021-11-14T20:24:19.976Z</time>
      </trkpt>
      <trkpt lat="47.519187" lon="8.118830">
        <ele>560.054601</ele>
        <time>2021-11-14T20:24:25.018Z</time>
      </trkpt>
      <trkpt lat="47.519221" lon="8.118862">
        <ele>560.276550</ele>
        <time>2021-11-14T20:24:25.551Z</time>
      </trkpt>
      <trkpt lat="47.519180" lon="8.118910">
        <ele>560.564500</ele>
        <time>2021-11-14T20:24:27.014Z</time>
      </trkpt>
      <trkpt lat="47.519064" lon="8.119070">
        <ele>561.437879</ele>
        <time>2021-11-14T20:24:33.042Z</time>
      </trkpt>
      <trkpt lat="47.518824" lon="8.119333">
        <ele>563.082799</ele>
        <time>2021-11-14T20:24:44.580Z</time>
      </trkpt>
      <trkpt lat="47.517857" lon="8.119775">
        <ele>568.808787</ele>
        <time>2021-11-14T20:25:30.831Z</time>
      </trkpt>
      <trkpt lat="47.517621" lon="8.119982">
        <ele>570.467014</ele>
        <time>2021-11-14T20:25:44.143Z</time>
      </trkpt>
      <trkpt lat="47.517519" lon="8.120168">
        <ele>571.445232</ele>
        <time>2021-11-14T20:25:52.473Z</time>
      </trkpt>
      <trkpt lat="47.517437" lon="8.120369">
        <ele>572.403975</ele>
        <time>2021-11-14T20:25:58.051Z</time>
      </trkpt>
      <trkpt lat="47.517360" lon="8.120980">
        <ele>574.941628</ele>
        <time>2021-11-14T20:26:13.865Z</time>
      </trkpt>
      <trkpt lat="47.517380" lon="8.121126">
        <ele>575.549856</ele>
        <time>2021-11-14T20:26:18.584Z</time>
      </trkpt>
      <trkpt lat="47.517430" lon="8.121363">
        <ele>576.563593</ele>
        <time>2021-11-14T20:26:23.765Z</time>
      </trkpt>
      <trkpt lat="47.517595" lon="8.122024">
        <ele>578.057104</ele>
        <time>2021-11-14T20:26:37.784Z</time>
      </trkpt>
      <trkpt lat="47.517865" lon="8.123246">
        <ele>578.317584</ele>
        <time>2021-11-14T20:26:53.730Z</time>
      </trkpt>
      <trkpt lat="47.518043" lon="8.123755">
        <ele>578.433708</ele>
        <time>2021-11-14T20:26:58.184Z</time>
      </trkpt>
      <trkpt lat="47.518119" lon="8.123894">
        <ele>578.469940</ele>
        <time>2021-11-14T20:26:59.408Z</time>
      </trkpt>
      <trkpt lat="47.518224" lon="8.124020">
        <ele>578.510483</ele>
        <time>2021-11-14T20:27:00.916Z</time>
      </trkpt>
      <trkpt lat="47.518640" lon="8.124328">
        <ele>576.082429</ele>
        <time>2021-11-14T20:27:05.718Z</time>
      </trkpt>
      <trkpt lat="47.519000" lon="8.124585">
        <ele>573.751375</ele>
        <time>2021-11-14T20:27:09.560Z</time>
      </trkpt>
      <trkpt lat="47.519073" lon="8.124669">
        <ele>573.212140</ele>
        <time>2021-11-14T20:27:10.405Z</time>
      </trkpt>
      <trkpt lat="47.519641" lon="8.125947">
        <ele>566.112845</ele>
        <time>2021-11-14T20:27:19.675Z</time>
      </trkpt>
      <trkpt lat="47.519704" lon="8.126247">
        <ele>563.309288</ele>
        <time>2021-11-14T20:27:21.457Z</time>
      </trkpt>
      <trkpt lat="47.519714" lon="8.126761">
        <ele>558.720599</ele>
        <time>2021-11-14T20:27:24.369Z</time>
      </trkpt>
      <trkpt lat="47.519773" lon="8.127131">
        <ele>555.328038</ele>
        <time>2021-11-14T20:27:26.519Z</time>
      </trkpt>
      <trkpt lat="47.519948" lon="8.127803">
        <ele>548.900925</ele>
        <time>2021-11-14T20:27:30.541Z</time>
      </trkpt>
      <trkpt lat="47.520129" lon="8.128104">
        <ele>545.304421</ele>
        <time>2021-11-14T20:27:32.844Z</time>
      </trkpt>
      <trkpt lat="47.520230" lon="8.128176">
        <ele>543.839001</ele>
        <time>2021-11-14T20:27:33.755Z</time>
      </trkpt>
      <trkpt lat="47.520344" lon="8.128214">
        <ele>542.349844</ele>
        <time>2021-11-14T20:27:34.746Z</time>
      </trkpt>
      <trkpt lat="47.520467" lon="8.128201">
        <ele>540.778360</ele>
        <time>2021-11-14T20:27:35.819Z</time>
      </trkpt>
      <trkpt lat="47.520505" lon="8.128188">
        <ele>540.281337</ele>
        <time>2021-11-14T20:27:36.139Z</time>
      </trkpt>
      <trkpt lat="47.520650" lon="8.128120">
        <ele>538.343017</ele>
        <time>2021-11-14T20:27:37.388Z</time>
      </trkpt>
      <trkpt lat="47.520824" lon="8.128212">
        <ele>535.988464</ele>
        <time>2021-11-14T20:27:38.979Z</time>
      </trkpt>
      <trkpt lat="47.520851" lon="8.128363">
        <ele>534.644144</ele>
        <time>2021-11-14T20:27:39.838Z</time>
      </trkpt>
      <trkpt lat="47.520822" lon="8.128489">
        <ele>533.498512</ele>
        <time>2021-11-14T20:27:40.602Z</time>
      </trkpt>
      <trkpt lat="47.519957" lon="8.129855">
        <ele>518.908251</ele>
        <time>2021-11-14T20:27:51.364Z</time>
      </trkpt>
      <trkpt lat="47.519537" lon="8.130421">
        <ele>514.457600</ele>
        <time>2021-11-14T20:27:56.451Z</time>
      </trkpt>
      <trkpt lat="47.519115" lon="8.130853">
        <ele>510.436943</ele>
        <time>2021-11-14T20:28:01.049Z</time>
      </trkpt>
      <trkpt lat="47.519016" lon="8.130950">
        <ele>509.506595</ele>
        <time>2021-11-14T20:28:02.114Z</time>
      </trkpt>
      <trkpt lat="47.518939" lon="8.131029">
        <ele>508.772438</ele>
        <time>2021-11-14T20:28:02.987Z</time>
      </trkpt>
      <trkpt lat="47.518837" lon="8.131164">
        <ele>507.700268</ele>
        <time>2021-11-14T20:28:04.219Z</time>
      </trkpt>
      <trkpt lat="47.518696" lon="8.131473">
        <ele>506.136415</ele>
        <time>2021-11-14T20:28:06.536Z</time>
      </trkpt>
      <trkpt lat="47.518527" lon="8.131863">
        <ele>504.344193</ele>
        <time>2021-11-14T20:28:09.393Z</time>
      </trkpt>
      <trkpt lat="47.518221" lon="8.132565">
        <ele>501.112605</ele>
        <time>2021-11-14T20:28:14.524Z</time>
      </trkpt>
      <trkpt lat="47.517932" lon="8.133229">
        <ele>498.057286</ele>
        <time>2021-11-14T20:28:19.550Z</time>
      </trkpt>
      <trkpt lat="47.517646" lon="8.133904">
        <ele>495.418316</ele>
        <time>2021-11-14T20:28:24.716Z</time>
      </trkpt>
      <trkpt lat="47.517600" lon="8.134020">
        <ele>495.014864</ele>
        <time>2021-11-14T20:28:25.600Z</time>
      </trkpt>
      <trkpt lat="47.517506" lon="8.134288">
        <ele>494.109131</ele>
        <time>2021-11-14T20:28:27.550Z</time>
      </trkpt>
      <trkpt lat="47.517374" lon="8.134964">
        <ele>491.998596</ele>
        <time>2021-11-14T20:28:32.123Z</time>
      </trkpt>
      <trkpt lat="47.517380" lon="8.135284">
        <ele>491.038465</ele>
        <time>2021-11-14T20:28:34.203Z</time>
      </trkpt>
      <trkpt lat="47.517476" lon="8.135870">
        <ele>489.229936</ele>
        <time>2021-11-14T20:28:38.070Z</time>
      </trkpt>
      <trkpt lat="47.517541" lon="8.136103">
        <ele>488.652353</ele>
        <time>2021-11-14T20:28:39.717Z</time>
      </trkpt>
      <trkpt lat="47.517686" lon="8.136537">
        <ele>487.732742</ele>
        <time>2021-11-14T20:28:42.902Z</time>
      </trkpt>
      <trkpt lat="47.517845" lon="8.137000">
        <ele>486.746248</ele>
        <time>2021-11-14T20:28:46.421Z</time>
      </trkpt>
      <trkpt lat="47.517976" lon="8.137488">
        <ele>485.748898</ele>
        <time>2021-11-14T20:28:50.013Z</time>
      </trkpt>
      <trkpt lat="47.518030" lon="8.137790">
        <ele>485.155573</ele>
        <time>2021-11-14T20:28:52.155Z</time>
      </trkpt>
      <trkpt lat="47.518054" lon="8.137953">
        <ele>484.838729</ele>
        <time>2021-11-14T20:28:53.359Z</time>
      </trkpt>
      <trkpt lat="47.518104" lon="8.138332">
        <ele>484.105323</ele>
        <time>2021-11-14T20:28:56.323Z</time>
      </trkpt>
      <trkpt lat="47.518154" lon="8.138644">
        <ele>484.281445</ele>
        <time>2021-11-14T20:28:59.310Z</time>
      </trkpt>
      <trkpt lat="47.518444" lon="8.139763">
        <ele>486.405192</ele>
        <time>2021-11-14T20:29:15.248Z</time>
      </trkpt>
      <trkpt lat="47.518520" lon="8.140038">
        <ele>486.931687</ele>
        <time>2021-11-14T20:29:22.228Z</time>
      </trkpt>
      <trkpt lat="47.518621" lon="8.139978">
        <ele>487.217209</ele>
        <time>2021-11-14T20:29:24.919Z</time>
      </trkpt>
      <trkpt lat="47.518669" lon="8.139927">
        <ele>487.372213</ele>
        <time>2021-11-14T20:29:26.476Z</time>
      </trkpt>
      <trkpt lat="47.518769" lon="8.139831">
        <ele>487.684898</ele>
        <time>2021-11-14T20:29:31.247Z</time>
      </trkpt>
      <trkpt lat="47.519094" lon="8.139647">
        <ele>488.597797</ele>
        <time>2021-11-14T20:29:44.165Z</time>
      </trkpt>
      <trkpt lat="47.519420" lon="8.139752">
        <ele>490.590829</ele>
        <time>2021-11-14T20:29:56.899Z</time>
      </trkpt>
      <trkpt lat="47.519509" lon="8.139849">
        <ele>491.261330</ele>
        <time>2021-11-14T20:30:01.842Z</time>
      </trkpt>
      <trkpt lat="47.519606" lon="8.139968">
        <ele>492.025615</ele>
        <time>2021-11-14T20:30:06.125Z</time>
      </trkpt>
      <trkpt lat="47.519799" lon="8.140263">
        <ele>493.708578</ele>
        <time>2021-11-14T20:30:18.307Z</time>
      </trkpt>
      <trkpt lat="47.520010" lon="8.140561">
        <ele>495.477738</ele>
        <time>2021-11-14T20:30:30.656Z</time>
      </trkpt>
      <trkpt lat="47.520122" lon="8.140718">
        <ele>496.413486</ele>
        <time>2021-11-14T20:30:36.162Z</time>
      </trkpt>
      <trkpt lat="47.520231" lon="8.140864">
        <ele>497.305257</ele>
        <time>2021-11-14T20:30:41.656Z</time>
      </trkpt>
      <trkpt lat="47.520353" lon="8.141020">
        <ele>498.283269</ele>
        <time>2021-11-14T20:30:47.885Z</time>
      </trkpt>
      <trkpt lat="47.520494" lon="8.141123">
        <ele>499.237206</ele>
        <time>2021-11-14T20:30:53.655Z</time>
      </trkpt>
      <trkpt lat="47.520656" lon="8.141153">
        <ele>500.187792</ele>
        <time>2021-11-14T20:31:00.521Z</time>
      </trkpt>
      <trkpt lat="47.520728" lon="8.141141">
        <ele>500.602043</ele>
        <time>2021-11-14T20:31:03.058Z</time>
      </trkpt>
      <trkpt lat="47.520809" lon="8.141121">
        <ele>501.071546</ele>
        <time>2021-11-14T20:31:06.264Z</time>
      </trkpt>
      <trkpt lat="47.520979" lon="8.141091">
        <ele>502.050381</ele>
        <time>2021-11-14T20:31:12.383Z</time>
      </trkpt>
      <trkpt lat="47.521217" lon="8.141214">
        <ele>503.491614</ele>
        <time>2021-11-14T20:31:21.711Z</time>
      </trkpt>
      <trkpt lat="47.521323" lon="8.141385">
        <ele>504.387831</ele>
        <time>2021-11-14T20:31:27.129Z</time>
      </trkpt>
      <trkpt lat="47.521505" lon="8.142343">
        <ele>508.230285</ele>
        <time>2021-11-14T20:31:52.188Z</time>
      </trkpt>
      <trkpt lat="47.521571" lon="8.142474">
        <ele>508.861332</ele>
        <time>2021-11-14T20:31:56.101Z</time>
      </trkpt>
      <trkpt lat="47.522534" lon="8.143857">
        <ele>517.820028</ele>
        <time>2021-11-14T20:32:51.067Z</time>
      </trkpt>
      <trkpt lat="47.522611" lon="8.144805">
        <ele>522.203680</ele>
        <time>2021-11-14T20:33:20.906Z</time>
      </trkpt>
      <trkpt lat="47.522731" lon="8.145171">
        <ele>523.931752</ele>
        <time>2021-11-14T20:33:32.273Z</time>
      </trkpt>
      <trkpt lat="47.522791" lon="8.145287">
        <ele>524.552365</ele>
        <time>2021-11-14T20:33:37.546Z</time>
      </trkpt>
      <trkpt lat="47.522931" lon="8.145526">
        <ele>525.896174</ele>
        <time>2021-11-14T20:33:46.078Z</time>
      </trkpt>
      <trkpt lat="47.523143" lon="8.145922">
        <ele>528.042540</ele>
        <time>2021-11-14T20:34:00.630Z</time>
      </trkpt>
      <trkpt lat="47.523253" lon="8.146107">
        <ele>529.089477</ele>
        <time>2021-11-14T20:34:08.487Z</time>
      </trkpt>
      <trkpt lat="47.523819" lon="8.147090">
        <ele>534.088236</ele>
        <time>2021-11-14T20:34:38.718Z</time>
      </trkpt>
      <trkpt lat="47.523983" lon="8.147357">
        <ele>534.991251</ele>
        <time>2021-11-14T20:34:45.929Z</time>
      </trkpt>
      <trkpt lat="47.524101" lon="8.147621">
        <ele>535.783334</ele>
        <time>2021-11-14T20:34:51.950Z</time>
      </trkpt>
      <trkpt lat="47.524184" lon="8.147870">
        <ele>536.478071</ele>
        <time>2021-11-14T20:34:56.978Z</time>
      </trkpt>
      <trkpt lat="47.524236" lon="8.148019">
        <ele>536.897695</ele>
        <time>2021-11-14T20:35:00.365Z</time>
      </trkpt>
      <trkpt lat="47.524342" lon="8.148337">
        <ele>537.784947</ele>
        <time>2021-11-14T20:35:06.456Z</time>
      </trkpt>
      <trkpt lat="47.524426" lon="8.148623">
        <ele>538.565237</ele>
        <time>2021-11-14T20:35:12.940Z</time>
      </trkpt>
      <trkpt lat="47.524468" lon="8.148740">
        <ele>538.896748</ele>
        <time>2021-11-14T20:35:15.035Z</time>
      </trkpt>
      <trkpt lat="47.524547" lon="8.149022">
        <ele>539.660582</ele>
        <time>2021-11-14T20:35:21.738Z</time>
      </trkpt>
      <trkpt lat="47.524838" lon="8.149751">
        <ele>541.885599</ele>
        <time>2021-11-14T20:35:37.966Z</time>
      </trkpt>
      <trkpt lat="47.525250" lon="8.150500">
        <ele>544.451346</ele>
        <time>2021-11-14T20:35:57.236Z</time>
      </trkpt>
      <trkpt lat="47.525477" lon="8.150925">
        <ele>545.890516</ele>
        <time>2021-11-14T20:36:09.521Z</time>
      </trkpt>
      <trkpt lat="47.525631" lon="8.151281">
        <ele>547.013383</ele>
        <time>2021-11-14T20:36:18.219Z</time>
      </trkpt>
      <trkpt lat="47.525712" lon="8.151526">
        <ele>547.697081</ele>
        <time>2021-11-14T20:36:24.806Z</time>
      </trkpt>
      <trkpt lat="47.525781" lon="8.151732">
        <ele>548.267020</ele>
        <time>2021-11-14T20:36:29.475Z</time>
      </trkpt>
      <trkpt lat="47.525986" lon="8.152431">
        <ele>550.155851</ele>
        <time>2021-11-14T20:36:45.987Z</time>
      </trkpt>
      <trkpt lat="47.526015" lon="8.152528">
        <ele>550.418777</ele>
        <time>2021-11-14T20:36:48.662Z</time>
      </trkpt>
      <trkpt lat="47.526233" lon="8.152973">
        <ele>551.781396</ele>
        <time>2021-11-14T20:36:59.267Z</time>
      </trkpt>
      <trkpt lat="47.526376" lon="8.153143">
        <ele>552.454471</ele>
        <time>2021-11-14T20:37:03.487Z</time>
      </trkpt>
      <trkpt lat="47.526455" lon="8.153308">
        <ele>552.955792</ele>
        <time>2021-11-14T20:37:07.870Z</time>
      </trkpt>
      <trkpt lat="47.526505" lon="8.153493">
        <ele>553.449677</ele>
        <time>2021-11-14T20:37:14.208Z</time>
      </trkpt>
      <trkpt lat="47.526521" lon="8.153700">
        <ele>553.846347</ele>
        <time>2021-11-14T20:37:20.454Z</time>
      </trkpt>
      <trkpt lat="47.526555" lon="8.153923">
        <ele>554.127028</ele>
        <time>2021-11-14T20:37:28.259Z</time>
      </trkpt>
      <trkpt lat="47.526626" lon="8.154250">
        <ele>554.548746</ele>
        <time>2021-11-14T20:37:33.746Z</time>
      </trkpt>
      <trkpt lat="47.526984" lon="8.155261">
        <ele>555.950317</ele>
        <time>2021-11-14T20:37:53.128Z</time>
      </trkpt>
      <trkpt lat="47.527439" lon="8.157168">
        <ele>557.111626</ele>
        <time>2021-11-14T20:38:14.906Z</time>
      </trkpt>
      <trkpt lat="47.527713" lon="8.157956">
        <ele>557.196960</ele>
        <time>2021-11-14T20:38:22.616Z</time>
      </trkpt>
      <trkpt lat="47.527755" lon="8.158037">
        <ele>557.206792</ele>
        <time>2021-11-14T20:38:23.354Z</time>
      </trkpt>
      <trkpt lat="47.527831" lon="8.158278">
        <ele>557.232401</ele>
        <time>2021-11-14T20:38:25.335Z</time>
      </trkpt>
      <trkpt lat="47.527937" lon="8.159204">
        <ele>559.424918</ele>
        <time>2021-11-14T20:38:40.107Z</time>
      </trkpt>
      <trkpt lat="47.527947" lon="8.159230">
        <ele>559.517884</ele>
        <time>2021-11-14T20:38:40.280Z</time>
      </trkpt>
      <trkpt lat="47.527958" lon="8.159243">
        <ele>559.582638</ele>
        <time>2021-11-14T20:38:40.444Z</time>
      </trkpt>
      <trkpt lat="47.527983" lon="8.159252">
        <ele>559.701021</ele>
        <time>2021-11-14T20:38:40.677Z</time>
      </trkpt>
      <trkpt lat="47.528287" lon="8.159214">
        <ele>561.104792</ele>
        <time>2021-11-14T20:38:50.648Z</time>
      </trkpt>
      <trkpt lat="47.528358" lon="8.159233">
        <ele>561.436775</ele>
        <time>2021-11-14T20:38:52.392Z</time>
      </trkpt>
      <trkpt lat="47.528376" lon="8.159282">
        <ele>561.610085</ele>
        <time>2021-11-14T20:38:56.421Z</time>
      </trkpt>
      <trkpt lat="47.528479" lon="8.159315">
        <ele>562.094983</ele>
        <time>2021-11-14T20:38:59.621Z</time>
      </trkpt>
      <trkpt lat="47.528775" lon="8.159174">
        <ele>563.525688</ele>
        <time>2021-11-14T20:39:11.899Z</time>
      </trkpt>
      <trkpt lat="47.528995" lon="8.159185">
        <ele>564.538552</ele>
        <time>2021-11-14T20:39:19.615Z</time>
      </trkpt>
      <trkpt lat="47.529173" lon="8.159303">
        <ele>565.435891</ele>
        <time>2021-11-14T20:39:29.482Z</time>
      </trkpt>
      <trkpt lat="47.529427" lon="8.159752">
        <ele>568.756166</ele>
        <time>2021-11-14T20:39:47.732Z</time>
      </trkpt>
      <trkpt lat="47.529513" lon="8.159796">
        <ele>569.539178</ele>
        <time>2021-11-14T20:39:51.036Z</time>
      </trkpt>
      <trkpt lat="47.529554" lon="8.159792">
        <ele>569.892779</ele>
        <time>2021-11-14T20:39:54.564Z</time>
      </trkpt>
      <trkpt lat="47.529587" lon="8.159773">
        <ele>570.197474</ele>
        <time>2021-11-14T20:39:55.651Z</time>
      </trkpt>
      <trkpt lat="47.529614" lon="8.159742">
        <ele>570.491475</ele>
        <time>2021-11-14T20:39:59.268Z</time>
      </trkpt>
      <trkpt lat="47.529635" lon="8.159696">
        <ele>570.814127</ele>
        <time>2021-11-14T20:40:01.891Z</time>
      </trkpt>
      <trkpt lat="47.529654" lon="8.159620">
        <ele>571.285037</ele>
        <time>2021-11-14T20:40:04.549Z</time>
      </trkpt>
      <trkpt lat="47.529736" lon="8.159189">
        <ele>573.886959</ele>
        <time>2021-11-14T20:40:19.204Z</time>
      </trkpt>
      <trkpt lat="47.529891" lon="8.159001">
        <ele>575.611087</ele>
        <time>2021-11-14T20:40:28.381Z</time>
      </trkpt>
      <trkpt lat="47.530516" lon="8.158915">
        <ele>581.011525</ele>
        <time>2021-11-14T20:41:03.441Z</time>
      </trkpt>
      <trkpt lat="47.531310" lon="8.158988">
        <ele>584.163498</ele>
        <time>2021-11-14T20:41:36.679Z</time>
      </trkpt>
      <trkpt lat="47.531366" lon="8.158998">
        <ele>584.386983</ele>
        <time>2021-11-14T20:41:41.479Z</time>
      </trkpt>
      <trkpt lat="47.531400" lon="8.159005">
        <ele>584.522990</ele>
        <time>2021-11-14T20:41:42.773Z</time>
      </trkpt>
      <trkpt lat="47.531478" lon="8.159022">
        <ele>584.835363</ele>
        <time>2021-11-14T20:41:44.113Z</time>
      </trkpt>
      <trkpt lat="47.531550" lon="8.159038">
        <ele>585.123829</ele>
        <time>2021-11-14T20:41:45.038Z</time>
      </trkpt>
      <trkpt lat="47.531625" lon="8.159067">
        <ele>585.430947</ele>
        <time>2021-11-14T20:41:45.790Z</time>
      </trkpt>
      <trkpt lat="47.531683" lon="8.159092">
        <ele>585.670284</ele>
        <time>2021-11-14T20:41:47.602Z</time>
      </trkpt>
      <trkpt lat="47.531737" lon="8.159129">
        <ele>585.906024</ele>
        <time>2021-11-14T20:41:51.545Z</time>
      </trkpt>
      <trkpt lat="47.532025" lon="8.159458">
        <ele>587.347098</ele>
        <time>2021-11-14T20:41:58.392Z</time>
      </trkpt>
      <trkpt lat="47.532070" lon="8.159485">
        <ele>587.539468</ele>
        <time>2021-11-14T20:41:58.974Z</time>
      </trkpt>
      <trkpt lat="47.532123" lon="8.159504">
        <ele>587.755524</ele>
        <time>2021-11-14T20:41:59.453Z</time>
      </trkpt>
      <trkpt lat="47.532302" lon="8.159474">
        <ele>587.664870</ele>
        <time>2021-11-14T20:42:01.213Z</time>
      </trkpt>
      <trkpt lat="47.532470" lon="8.159209">
        <ele>586.284370</ele>
        <time>2021-11-14T20:42:04.880Z</time>
      </trkpt>
      <trkpt lat="47.532482" lon="8.159131">
        <ele>585.980557</ele>
        <time>2021-11-14T20:42:05.355Z</time>
      </trkpt>
      <trkpt lat="47.532485" lon="8.159048">
        <ele>585.664897</ele>
        <time>2021-11-14T20:42:05.898Z</time>
      </trkpt>
      <trkpt lat="47.532477" lon="8.158926">
        <ele>585.199398</ele>
        <time>2021-11-14T20:42:10.365Z</time>
      </trkpt>
      <trkpt lat="47.532460" lon="8.158776">
        <ele>584.621773</ele>
        <time>2021-11-14T20:42:11.287Z</time>
      </trkpt>
      <trkpt lat="47.532432" lon="8.158587">
        <ele>583.886932</ele>
        <time>2021-11-14T20:42:12.458Z</time>
      </trkpt>
      <trkpt lat="47.532429" lon="8.158184">
        <ele>582.356366</ele>
        <time>2021-11-14T20:42:15.068Z</time>
      </trkpt>
      <trkpt lat="47.532498" lon="8.157872">
        <ele>581.109540</ele>
        <time>2021-11-14T20:42:17.099Z</time>
      </trkpt>
      <trkpt lat="47.532528" lon="8.157790">
        <ele>580.755349</ele>
        <time>2021-11-14T20:42:17.636Z</time>
      </trkpt>
      <trkpt lat="47.532610" lon="8.157621">
        <ele>579.964998</ele>
        <time>2021-11-14T20:42:18.841Z</time>
      </trkpt>
      <trkpt lat="47.532785" lon="8.157393">
        <ele>578.654024</ele>
        <time>2021-11-14T20:42:20.854Z</time>
      </trkpt>
      <trkpt lat="47.533018" lon="8.157247">
        <ele>576.315205</ele>
        <time>2021-11-14T20:42:23.021Z</time>
      </trkpt>
      <trkpt lat="47.533688" lon="8.156925">
        <ele>567.753646</ele>
        <time>2021-11-14T20:42:29.029Z</time>
      </trkpt>
      <trkpt lat="47.534225" lon="8.156664">
        <ele>560.884197</ele>
        <time>2021-11-14T20:42:33.788Z</time>
      </trkpt>
      <trkpt lat="47.535038" lon="8.156042">
        <ele>549.779337</ele>
        <time>2021-11-14T20:42:41.396Z</time>
      </trkpt>
      <trkpt lat="47.535321" lon="8.155886">
        <ele>546.118979</ele>
        <time>2021-11-14T20:42:43.942Z</time>
      </trkpt>
      <trkpt lat="47.535382" lon="8.155853">
        <ele>545.331768</ele>
        <time>2021-11-14T20:42:44.477Z</time>
      </trkpt>
      <trkpt lat="47.535638" lon="8.155780">
        <ele>542.171582</ele>
        <time>2021-11-14T20:42:46.759Z</time>
      </trkpt>
      <trkpt lat="47.535929" lon="8.155793">
        <ele>538.642511</ele>
        <time>2021-11-14T20:42:49.230Z</time>
      </trkpt>
      <trkpt lat="47.536275" lon="8.155911">
        <ele>534.345799</ele>
        <time>2021-11-14T20:42:52.397Z</time>
      </trkpt>
      <trkpt lat="47.536365" lon="8.156042">
        <ele>533.482254</ele>
        <time>2021-11-14T20:42:53.473Z</time>
      </trkpt>
      <trkpt lat="47.536379" lon="8.156114">
        <ele>533.136069</ele>
        <time>2021-11-14T20:42:53.898Z</time>
      </trkpt>
      <trkpt lat="47.536375" lon="8.156215">
        <ele>532.668616</ele>
        <time>2021-11-14T20:42:55.666Z</time>
      </trkpt>
      <trkpt lat="47.536227" lon="8.156418">
        <ele>531.288184</ele>
        <time>2021-11-14T20:42:57.616Z</time>
      </trkpt>
      <trkpt lat="47.535886" lon="8.156623">
        <ele>528.769606</ele>
        <time>2021-11-14T20:43:00.877Z</time>
      </trkpt>
      <trkpt lat="47.535755" lon="8.156923">
        <ele>527.118837</ele>
        <time>2021-11-14T20:43:03.075Z</time>
      </trkpt>
      <trkpt lat="47.535755" lon="8.157281">
        <ele>525.464747</ele>
        <time>2021-11-14T20:43:05.168Z</time>
      </trkpt>
      <trkpt lat="47.535831" lon="8.157512">
        <ele>524.277456</ele>
        <time>2021-11-14T20:43:08.880Z</time>
      </trkpt>
      <trkpt lat="47.535911" lon="8.157613">
        <ele>523.558070</ele>
        <time>2021-11-14T20:43:09.760Z</time>
      </trkpt>
      <trkpt lat="47.536680" lon="8.158080">
        <ele>517.229573</ele>
        <time>2021-11-14T20:43:17.818Z</time>
      </trkpt>
      <trkpt lat="47.537308" lon="8.158309">
        <ele>512.124433</ele>
        <time>2021-11-14T20:43:23.428Z</time>
      </trkpt>
      <trkpt lat="47.537777" lon="8.158663">
        <ele>507.969434</ele>
        <time>2021-11-14T20:43:27.947Z</time>
      </trkpt>
      <trkpt lat="47.537993" lon="8.158861">
        <ele>505.299554</ele>
        <time>2021-11-14T20:43:30.177Z</time>
      </trkpt>
      <trkpt lat="47.538129" lon="8.158926">
        <ele>503.773457</ele>
        <time>2021-11-14T20:43:31.375Z</time>
      </trkpt>
      <trkpt lat="47.538402" lon="8.158993">
        <ele>500.818299</ele>
        <time>2021-11-14T20:43:33.772Z</time>
      </trkpt>
      <trkpt lat="47.538652" lon="8.158920">
        <ele>498.097127</ele>
        <time>2021-11-14T20:43:35.967Z</time>
      </trkpt>
      <trkpt lat="47.539262" lon="8.158347">
        <ele>490.383437</ele>
        <time>2021-11-14T20:43:42.113Z</time>
      </trkpt>
      <trkpt lat="47.539939" lon="8.157871">
        <ele>482.415759</ele>
        <time>2021-11-14T20:43:48.477Z</time>
      </trkpt>
      <trkpt lat="47.540306" lon="8.157642">
        <ele>478.186901</ele>
        <time>2021-11-14T20:43:51.893Z</time>
      </trkpt>
      <trkpt lat="47.540810" lon="8.157356">
        <ele>472.455608</ele>
        <time>2021-11-14T20:43:56.558Z</time>
      </trkpt>
      <trkpt lat="47.540927" lon="8.157312">
        <ele>471.173759</ele>
        <time>2021-11-14T20:43:57.574Z</time>
      </trkpt>
      <trkpt lat="47.541274" lon="8.157256">
        <ele>467.705939</ele>
        <time>2021-11-14T20:44:00.566Z</time>
      </trkpt>
      <trkpt lat="47.542080" lon="8.157404">
        <ele>460.074987</ele>
        <time>2021-11-14T20:44:07.566Z</time>
      </trkpt>
      <trkpt lat="47.542634" lon="8.157526">
        <ele>454.812527</ele>
        <time>2021-11-14T20:44:12.449Z</time>
      </trkpt>
      <trkpt lat="47.542966" lon="8.157604">
        <ele>451.822029</ele>
        <time>2021-11-14T20:44:15.415Z</time>
      </trkpt>
      <trkpt lat="47.544028" lon="8.157991">
        <ele>443.295271</ele>
        <time>2021-11-14T20:44:25.129Z</time>
      </trkpt>
      <trkpt lat="47.544125" lon="8.158062">
        <ele>442.451731</ele>
        <time>2021-11-14T20:44:26.063Z</time>
      </trkpt>
      <trkpt lat="47.544401" lon="8.158281">
        <ele>440.010658</ele>
        <time>2021-11-14T20:44:28.880Z</time>
      </trkpt>
      <trkpt lat="47.545006" lon="8.158816">
        <ele>434.547250</ele>
        <time>2021-11-14T20:44:35.150Z</time>
      </trkpt>
      <trkpt lat="47.545206" lon="8.158933">
        <ele>432.883010</ele>
        <time>2021-11-14T20:44:37.033Z</time>
      </trkpt>
      <trkpt lat="47.545798" lon="8.159287">
        <ele>427.941989</ele>
        <time>2021-11-14T20:44:42.680Z</time>
      </trkpt>
      <trkpt lat="47.546205" lon="8.159521">
        <ele>424.597577</ele>
        <time>2021-11-14T20:44:46.554Z</time>
      </trkpt>
      <trkpt lat="47.546464" lon="8.159690">
        <ele>422.973806</ele>
        <time>2021-11-14T20:44:49.063Z</time>
      </trkpt>
      <trkpt lat="47.546793" lon="8.160028">
        <ele>420.676700</ele>
        <time>2021-11-14T20:44:52.659Z</time>
      </trkpt>
      <trkpt lat="47.547062" lon="8.160424">
        <ele>418.500916</ele>
        <time>2021-11-14T20:44:56.125Z</time>
      </trkpt>
      <trkpt lat="47.547119" lon="8.160507">
        <ele>418.042357</ele>
        <time>2021-11-14T20:44:56.816Z</time>
      </trkpt>
      <trkpt lat="47.547271" lon="8.160738">
        <ele>416.793005</ele>
        <time>2021-11-14T20:44:58.911Z</time>
      </trkpt>
      <trkpt lat="47.547324" lon="8.160802">
        <ele>416.400701</ele>
        <time>2021-11-14T20:44:59.631Z</time>
      </trkpt>
      <trkpt lat="47.547400" lon="8.160898">
        <ele>415.827671</ele>
        <time>2021-11-14T20:45:00.544Z</time>
      </trkpt>
      <trkpt lat="47.547463" lon="8.161007">
        <ele>415.271931</ele>
        <time>2021-11-14T20:45:01.533Z</time>
      </trkpt>
      <trkpt lat="47.547553" lon="8.161213">
        <ele>414.364607</ele>
        <time>2021-11-14T20:45:03.324Z</time>
      </trkpt>
      <trkpt lat="47.547597" lon="8.161255">
        <ele>414.298679</ele>
        <time>2021-11-14T20:45:03.807Z</time>
      </trkpt>
      <trkpt lat="47.547713" lon="8.161271">
        <ele>414.151939</ele>
        <time>2021-11-14T20:45:05.116Z</time>
      </trkpt>
      <trkpt lat="47.547763" lon="8.161258">
        <ele>414.087998</ele>
        <time>2021-11-14T20:45:05.670Z</time>
      </trkpt>
      <trkpt lat="47.547978" lon="8.161155">
        <ele>413.803387</ele>
        <time>2021-11-14T20:45:08.127Z</time>
      </trkpt>
      <trkpt lat="47.548340" lon="8.161015">
        <ele>413.332148</ele>
        <time>2021-11-14T20:45:12.721Z</time>
      </trkpt>
      <trkpt lat="47.548497" lon="8.160960">
        <ele>413.128944</ele>
        <time>2021-11-14T20:45:15.161Z</time>
      </trkpt>
      <trkpt lat="47.548672" lon="8.160912">
        <ele>412.904776</ele>
        <time>2021-11-14T20:45:17.425Z</time>
      </trkpt>
      <trkpt lat="47.549490" lon="8.160957">
        <ele>411.744849</ele>
        <time>2021-11-14T20:45:28.247Z</time>
      </trkpt>
      <trkpt lat="47.549617" lon="8.160942">
        <ele>411.497269</ele>
        <time>2021-11-14T20:45:30.692Z</time>
      </trkpt>
      <trkpt lat="47.549732" lon="8.160920">
        <ele>411.271936</ele>
        <time>2021-11-14T20:45:32.019Z</time>
      </trkpt>
      <trkpt lat="47.549905" lon="8.160854">
        <ele>410.924782</ele>
        <time>2021-11-14T20:45:34.414Z</time>
      </trkpt>
      <trkpt lat="47.549984" lon="8.160805">
        <ele>410.758353</ele>
        <time>2021-11-14T20:45:35.937Z</time>
      </trkpt>
      <trkpt lat="47.550099" lon="8.160724">
        <ele>410.510907</ele>
        <time>2021-11-14T20:45:37.261Z</time>
      </trkpt>
      <trkpt lat="47.550666" lon="8.160174">
        <ele>409.193924</ele>
        <time>2021-11-14T20:45:44.446Z</time>
      </trkpt>
      <trkpt lat="47.551164" lon="8.159529">
        <ele>407.317901</ele>
        <time>2021-11-14T20:45:50.975Z</time>
      </trkpt>
      <trkpt lat="47.551332" lon="8.159279">
        <ele>406.468857</ele>
        <time>2021-11-14T20:45:53.252Z</time>
      </trkpt>
      <trkpt lat="47.551447" lon="8.159096">
        <ele>405.867087</ele>
        <time>2021-11-14T20:45:54.942Z</time>
      </trkpt>
      <trkpt lat="47.551526" lon="8.158964">
        <ele>405.442499</ele>
        <time>2021-11-14T20:45:56.125Z</time>
      </trkpt>
      <trkpt lat="47.551653" lon="8.158711">
        <ele>404.683669</ele>
        <time>2021-11-14T20:45:58.254Z</time>
      </trkpt>
      <trkpt lat="47.551779" lon="8.158427">
        <ele>403.865731</ele>
        <time>2021-11-14T20:46:00.500Z</time>
      </trkpt>
      <trkpt lat="47.552174" lon="8.157599">
        <ele>401.722198</ele>
        <time>2021-11-14T20:46:07.337Z</time>
      </trkpt>
      <trkpt lat="47.552319" lon="8.157405">
        <ele>401.291636</ele>
        <time>2021-11-14T20:46:09.349Z</time>
      </trkpt>
      <trkpt lat="47.552683" lon="8.157162">
        <ele>400.411767</ele>
        <time>2021-11-14T20:46:13.672Z</time>
      </trkpt>
      <trkpt lat="47.552741" lon="8.157139">
        <ele>400.279445</ele>
        <time>2021-11-14T20:46:14.305Z</time>
      </trkpt>
      <trkpt lat="47.552966" lon="8.157085">
        <ele>399.777115</ele>
        <time>2021-11-14T20:46:16.872Z</time>
      </trkpt>
      <trkpt lat="47.553415" lon="8.156908">
        <ele>398.753162</ele>
        <time>2021-11-14T20:46:22.240Z</time>
      </trkpt>
      <trkpt lat="47.554024" lon="8.156353">
        <ele>397.128287</ele>
        <time>2021-11-14T20:46:30.452Z</time>
      </trkpt>
      <trkpt lat="47.555146" lon="8.156028">
        <ele>394.491945</ele>
        <time>2021-11-14T20:46:42.591Z</time>
      </trkpt>
      <trkpt lat="47.555483" lon="8.155879">
        <ele>393.385861</ele>
        <time>2021-11-14T20:46:46.224Z</time>
      </trkpt>
      <trkpt lat="47.555852" lon="8.155715">
        <ele>391.857571</ele>
        <time>2021-11-14T20:46:50.000Z</time>
      </trkpt>
      <trkpt lat="47.556361" lon="8.155432">
        <ele>389.700851</ele>
        <time>2021-11-14T20:46:55.316Z</time>
      </trkpt>
      <trkpt lat="47.556702" lon="8.155008">
        <ele>387.934900</ele>
        <time>2021-11-14T20:46:59.509Z</time>
      </trkpt>
      <trkpt lat="47.556982" lon="8.154756">
        <ele>386.681273</ele>
        <time>2021-11-14T20:47:02.681Z</time>
      </trkpt>
      <trkpt lat="47.557020" lon="8.154736">
        <ele>386.544294</ele>
        <time>2021-11-14T20:47:03.031Z</time>
      </trkpt>
      <trkpt lat="47.557234" lon="8.154662">
        <ele>385.797846</ele>
        <time>2021-11-14T20:47:05.244Z</time>
      </trkpt>
      <trkpt lat="47.557607" lon="8.154562">
        <ele>384.510265</ele>
        <time>2021-11-14T20:47:09.012Z</time>
      </trkpt>
      <trkpt lat="47.557909" lon="8.154469">
        <ele>383.462511</ele>
        <time>2021-11-14T20:47:12.129Z</time>
      </trkpt>
      <trkpt lat="47.557974" lon="8.154446">
        <ele>383.235510</ele>
        <time>2021-11-14T20:47:12.823Z</time>
      </trkpt>
      <trkpt lat="47.558498" lon="8.154242">
        <ele>381.395177</ele>
        <time>2021-11-14T20:47:18.343Z</time>
      </trkpt>
      <trkpt lat="47.558848" lon="8.154194">
        <ele>380.474687</ele>
        <time>2021-11-14T20:47:22.103Z</time>
      </trkpt>
      <trkpt lat="47.558924" lon="8.154185">
        <ele>380.325619</ele>
        <time>2021-11-14T20:47:22.884Z</time>
      </trkpt>
      <trkpt lat="47.558979" lon="8.154180">
        <ele>380.217881</ele>
        <time>2021-11-14T20:47:23.441Z</time>
      </trkpt>
      <trkpt lat="47.559032" lon="8.154178">
        <ele>380.114222</ele>
        <time>2021-11-14T20:47:24.001Z</time>
      </trkpt>
      <trkpt lat="47.559156" lon="8.154177">
        <ele>379.871775</ele>
        <time>2021-11-14T20:47:25.416Z</time>
      </trkpt>
      <trkpt lat="47.559284" lon="8.154179">
        <ele>379.621497</ele>
        <time>2021-11-14T20:47:26.742Z</time>
      </trkpt>
      <trkpt lat="47.559455" lon="8.154165">
        <ele>379.286650</ele>
        <time>2021-11-14T20:47:28.663Z</time>
      </trkpt>
      <trkpt lat="47.559591" lon="8.154124">
        <ele>379.015297</ele>
        <time>2021-11-14T20:47:30.266Z</time>
      </trkpt>
      <trkpt lat="47.559651" lon="8.154104">
        <ele>378.895054</ele>
        <time>2021-11-14T20:47:30.902Z</time>
      </trkpt>
      <trkpt lat="47.559698" lon="8.154088">
        <ele>378.800767</ele>
        <time>2021-11-14T20:47:31.438Z</time>
      </trkpt>
      <trkpt lat="47.559841" lon="8.154003">
        <ele>378.499520</ele>
        <time>2021-11-14T20:47:33.483Z</time>
      </trkpt>
      <trkpt lat="47.559905" lon="8.153956">
        <ele>378.359865</ele>
        <time>2021-11-14T20:47:34.353Z</time>
      </trkpt>
      <trkpt lat="47.559938" lon="8.153925">
        <ele>378.283472</ele>
        <time>2021-11-14T20:47:34.768Z</time>
      </trkpt>
      <trkpt lat="47.559990" lon="8.153866">
        <ele>378.155423</ele>
        <time>2021-11-14T20:47:35.453Z</time>
      </trkpt>
      <trkpt lat="47.560053" lon="8.153772">
        <ele>377.980625</ele>
        <time>2021-11-14T20:47:36.535Z</time>
      </trkpt>
      <trkpt lat="47.560153" lon="8.153582">
        <ele>377.662709</ele>
        <time>2021-11-14T20:47:38.558Z</time>
      </trkpt>
      <trkpt lat="47.560212" lon="8.153476">
        <ele>377.481417</ele>
        <time>2021-11-14T20:47:39.525Z</time>
      </trkpt>
      <trkpt lat="47.560330" lon="8.153256">
        <ele>377.128123</ele>
        <time>2021-11-14T20:47:45.747Z</time>
      </trkpt>
      <trkpt lat="47.560379" lon="8.153152">
        <ele>376.974183</ele>
        <time>2021-11-14T20:47:48.525Z</time>
      </trkpt>
      <trkpt lat="47.560422" lon="8.153030">
        <ele>376.807138</ele>
        <time>2021-11-14T20:47:51.316Z</time>
      </trkpt>
      <trkpt lat="47.560456" lon="8.152909">
        <ele>376.648064</ele>
        <time>2021-11-14T20:47:54.108Z</time>
      </trkpt>
      <trkpt lat="47.560547" lon="8.152508">
        <ele>376.134610</ele>
        <time>2021-11-14T20:48:03.053Z</time>
      </trkpt>
      <trkpt lat="47.560622" lon="8.152294">
        <ele>375.841952</ele>
        <time>2021-11-14T20:48:08.312Z</time>
      </trkpt>
      <trkpt lat="47.560668" lon="8.152171">
        <ele>375.671282</ele>
        <time>2021-11-14T20:48:11.349Z</time>
      </trkpt>
      <trkpt lat="47.560710" lon="8.152072">
        <ele>375.529359</ele>
        <time>2021-11-14T20:48:13.672Z</time>
      </trkpt>
      <trkpt lat="47.560747" lon="8.151985">
        <ele>375.404553</ele>
        <time>2021-11-14T20:48:15.795Z</time>
      </trkpt>
      <trkpt lat="47.560859" lon="8.151728">
        <ele>375.033258</ele>
        <time>2021-11-14T20:48:22.617Z</time>
      </trkpt>
      <trkpt lat="47.560916" lon="8.151600">
        <ele>374.847136</ele>
        <time>2021-11-14T20:48:25.716Z</time>
      </trkpt>
      <trkpt lat="47.561003" lon="8.151403">
        <ele>374.561401</ele>
        <time>2021-11-14T20:48:30.983Z</time>
      </trkpt>
      <trkpt lat="47.561109" lon="8.151163">
        <ele>374.213287</ele>
        <time>2021-11-14T20:48:37.158Z</time>
      </trkpt>
      <trkpt lat="47.561257" lon="8.150909">
        <ele>373.903558</ele>
        <time>2021-11-14T20:48:44.711Z</time>
      </trkpt>
      <trkpt lat="47.561352" lon="8.150768">
        <ele>373.743639</ele>
        <time>2021-11-14T20:48:48.973Z</time>
      </trkpt>
      <trkpt lat="47.561471" lon="8.150574">
        <ele>373.533218</ele>
        <time>2021-11-14T20:48:54.691Z</time>
      </trkpt>
      <trkpt lat="47.561512" lon="8.150470">
        <ele>373.436547</ele>
        <time>2021-11-14T20:48:57.400Z</time>
      </trkpt>
      <trkpt lat="47.561555" lon="8.150316">
        <ele>373.302783</ele>
        <time>2021-11-14T20:49:00.905Z</time>
      </trkpt>
      <trkpt lat="47.561767" lon="8.149503">
        <ele>372.603246</ele>
        <time>2021-11-14T20:49:20.415Z</time>
      </trkpt>
      <trkpt lat="47.561915" lon="8.148980">
        <ele>372.148073</ele>
        <time>2021-11-14T20:49:33.535Z</time>
      </trkpt>
      <trkpt lat="47.561943" lon="8.148889">
        <ele>372.067803</ele>
        <time>2021-11-14T20:49:35.761Z</time>
      </trkpt>
      <trkpt lat="47.561980" lon="8.148763">
        <ele>371.957516</ele>
        <time>2021-11-14T20:49:39.033Z</time>
      </trkpt>
      <trkpt lat="47.561998" lon="8.148673">
        <ele>371.912779</ele>
        <time>2021-11-14T20:49:41.321Z</time>
      </trkpt>
      <trkpt lat="47.562009" lon="8.148597">
        <ele>371.876701</ele>
        <time>2021-11-14T20:49:42.134Z</time>
      </trkpt>
      <trkpt lat="47.562009" lon="8.148365">
        <ele>371.769017</ele>
        <time>2021-11-14T20:49:44.108Z</time>
      </trkpt>
      <trkpt lat="47.561978" lon="8.148254">
        <ele>371.713257</ele>
        <time>2021-11-14T20:49:45.185Z</time>
      </trkpt>
      <trkpt lat="47.561913" lon="8.148081">
        <ele>371.621350</ele>
        <time>2021-11-14T20:49:47.120Z</time>
      </trkpt>
      <trkpt lat="47.561833" lon="8.147845">
        <ele>371.498764</ele>
        <time>2021-11-14T20:49:49.526Z</time>
      </trkpt>
      <trkpt lat="47.561822" lon="8.147813">
        <ele>371.482095</ele>
        <time>2021-11-14T20:49:49.930Z</time>
      </trkpt>
      <trkpt lat="47.561781" lon="8.147568">
        <ele>371.364932</ele>
        <time>2021-11-14T20:49:52.357Z</time>
      </trkpt>
      <trkpt lat="47.561778" lon="8.147534">
        <ele>371.349016</ele>
        <time>2021-11-14T20:49:52.655Z</time>
      </trkpt>
      <trkpt lat="47.561759" lon="8.147209">
        <ele>371.197600</ele>
        <time>2021-11-14T20:49:55.513Z</time>
      </trkpt>
      <trkpt lat="47.561783" lon="8.146574">
        <ele>370.902398</ele>
        <time>2021-11-14T20:50:00.994Z</time>
      </trkpt>
      <trkpt lat="47.561789" lon="8.146405">
        <ele>370.823847</ele>
        <time>2021-11-14T20:50:02.370Z</time>
      </trkpt>
      <trkpt lat="47.561811" lon="8.145912">
        <ele>370.398877</ele>
        <time>2021-11-14T20:50:06.465Z</time>
      </trkpt>
      <trkpt lat="47.561827" lon="8.145709">
        <ele>370.153168</ele>
        <time>2021-11-14T20:50:08.131Z</time>
      </trkpt>
      <trkpt lat="47.561842" lon="8.145448">
        <ele>369.838254</ele>
        <time>2021-11-14T20:50:10.158Z</time>
      </trkpt>
      <trkpt lat="47.561847" lon="8.145230">
        <ele>369.576019</ele>
        <time>2021-11-14T20:50:11.778Z</time>
      </trkpt>
      <trkpt lat="47.561843" lon="8.145077">
        <ele>369.391942</ele>
        <time>2021-11-14T20:50:12.920Z</time>
      </trkpt>
      <trkpt lat="47.561830" lon="8.144934">
        <ele>369.218472</ele>
        <time>2021-11-14T20:50:13.977Z</time>
      </trkpt>
      <trkpt lat="47.561764" lon="8.144413">
        <ele>368.581175</ele>
        <time>2021-11-14T20:50:17.839Z</time>
      </trkpt>
      <trkpt lat="47.561737" lon="8.144240">
        <ele>368.367701</ele>
        <time>2021-11-14T20:50:19.100Z</time>
      </trkpt>
      <trkpt lat="47.561693" lon="8.143892">
        <ele>367.942047</ele>
        <time>2021-11-14T20:50:21.727Z</time>
      </trkpt>
      <trkpt lat="47.561629" lon="8.143405">
        <ele>367.414642</ele>
        <time>2021-11-14T20:50:25.405Z</time>
      </trkpt>
      <trkpt lat="47.561569" lon="8.142863">
        <ele>367.026613</ele>
        <time>2021-11-14T20:50:29.477Z</time>
      </trkpt>
      <trkpt lat="47.561548" lon="8.142491">
        <ele>366.762885</ele>
        <time>2021-11-14T20:50:32.356Z</time>
      </trkpt>
      <trkpt lat="47.561542" lon="8.142165">
        <ele>366.532487</ele>
        <time>2021-11-14T20:50:34.851Z</time>
      </trkpt>
      <trkpt lat="47.561548" lon="8.141908">
        <ele>366.350814</ele>
        <time>2021-11-14T20:50:37.095Z</time>
      </trkpt>
      <trkpt lat="47.561563" lon="8.141574">
        <ele>366.114328</ele>
        <time>2021-11-14T20:50:39.896Z</time>
      </trkpt>
      <trkpt lat="47.561574" lon="8.141379">
        <ele>365.976084</ele>
        <time>2021-11-14T20:50:41.756Z</time>
      </trkpt>
      <trkpt lat="47.561660" lon="8.140164">
        <ele>366.193523</ele>
        <time>2021-11-14T20:50:54.229Z</time>
      </trkpt>
      <trkpt lat="47.561507" lon="8.138771">
        <ele>367.280353</ele>
        <time>2021-11-14T20:51:15.373Z</time>
      </trkpt>
      <trkpt lat="47.561504" lon="8.138613">
        <ele>367.402073</ele>
        <time>2021-11-14T20:51:17.559Z</time>
      </trkpt>
      <trkpt lat="47.561520" lon="8.138020">
        <ele>367.575617</ele>
        <time>2021-11-14T20:51:26.268Z</time>
      </trkpt>
      <trkpt lat="47.561531" lon="8.137825">
        <ele>367.484284</ele>
        <time>2021-11-14T20:51:29.102Z</time>
      </trkpt>
      <trkpt lat="47.561548" lon="8.137622">
        <ele>367.388809</ele>
        <time>2021-11-14T20:51:31.223Z</time>
      </trkpt>
      <trkpt lat="47.561574" lon="8.137322">
        <ele>367.247637</ele>
        <time>2021-11-14T20:51:34.340Z</time>
      </trkpt>
      <trkpt lat="47.561604" lon="8.136996">
        <ele>367.094071</ele>
        <time>2021-11-14T20:51:37.597Z</time>
      </trkpt>
      <trkpt lat="47.561651" lon="8.136422">
        <ele>366.824196</ele>
        <time>2021-11-14T20:51:42.978Z</time>
      </trkpt>
      <trkpt lat="47.561673" lon="8.136111">
        <ele>366.678244</ele>
        <time>2021-11-14T20:51:45.805Z</time>
      </trkpt>
      <trkpt lat="47.561695" lon="8.135815">
        <ele>366.539254</ele>
        <time>2021-11-14T20:51:47.909Z</time>
      </trkpt>
      <trkpt lat="47.561699" lon="8.135702">
        <ele>366.486440</ele>
        <time>2021-11-14T20:51:48.711Z</time>
      </trkpt>
      <trkpt lat="47.561711" lon="8.135438">
        <ele>365.883827</ele>
        <time>2021-11-14T20:51:50.430Z</time>
      </trkpt>
      <trkpt lat="47.561720" lon="8.135210">
        <ele>365.101421</ele>
        <time>2021-11-14T20:51:51.913Z</time>
      </trkpt>
      <trkpt lat="47.561725" lon="8.133913">
        <ele>360.658150</ele>
        <time>2021-11-14T20:51:59.984Z</time>
      </trkpt>
      <trkpt lat="47.561698" lon="8.133720">
        <ele>359.982921</ele>
        <time>2021-11-14T20:52:01.247Z</time>
      </trkpt>
      <trkpt lat="47.561664" lon="8.133579">
        <ele>359.469975</ele>
        <time>2021-11-14T20:52:02.185Z</time>
      </trkpt>
      <trkpt lat="47.561623" lon="8.133432">
        <ele>358.925068</ele>
        <time>2021-11-14T20:52:03.120Z</time>
      </trkpt>
      <trkpt lat="47.561323" lon="8.132897">
        <ele>356.725978</ele>
        <time>2021-11-14T20:52:07.552Z</time>
      </trkpt>
      <trkpt lat="47.561195" lon="8.132668">
        <ele>355.952118</ele>
        <time>2021-11-14T20:52:09.508Z</time>
      </trkpt>
      <trkpt lat="47.561161" lon="8.132610">
        <ele>355.752174</ele>
        <time>2021-11-14T20:52:09.943Z</time>
      </trkpt>
      <trkpt lat="47.561056" lon="8.132422">
        <ele>355.117067</ele>
        <time>2021-11-14T20:52:11.636Z</time>
      </trkpt>
      <trkpt lat="47.561185" lon="8.132211">
        <ele>354.376092</ele>
        <time>2021-11-14T20:52:13.377Z</time>
      </trkpt>
      <trkpt lat="47.561796" lon="8.130897">
        <ele>350.309647</ele>
        <time>2021-11-14T20:52:24.351Z</time>
      </trkpt>
      <trkpt lat="47.562119" lon="8.130197">
        <ele>349.396950</ele>
        <time>2021-11-14T20:52:31.031Z</time>
      </trkpt>
      <trkpt lat="47.562169" lon="8.130101">
        <ele>349.266429</ele>
        <time>2021-11-14T20:52:32.032Z</time>
      </trkpt>
      <trkpt lat="47.562200" lon="8.130042">
        <ele>349.185949</ele>
        <time>2021-11-14T20:52:32.660Z</time>
      </trkpt>
      <trkpt lat="47.562419" lon="8.129559">
        <ele>348.559654</ele>
        <time>2021-11-14T20:52:37.272Z</time>
      </trkpt>
      <trkpt lat="47.562839" lon="8.128684">
        <ele>347.412989</ele>
        <time>2021-11-14T20:52:45.553Z</time>
      </trkpt>
      <trkpt lat="47.562984" lon="8.128403">
        <ele>347.067386</ele>
        <time>2021-11-14T20:52:48.355Z</time>
      </trkpt>
      <trkpt lat="47.563096" lon="8.128178">
        <ele>346.794226</ele>
        <time>2021-11-14T20:52:50.808Z</time>
      </trkpt>
      <trkpt lat="47.563232" lon="8.127932">
        <ele>346.483528</ele>
        <time>2021-11-14T20:52:53.271Z</time>
      </trkpt>
      <trkpt lat="47.563398" lon="8.127697">
        <ele>346.151149</ele>
        <time>2021-11-14T20:52:55.885Z</time>
      </trkpt>
      <trkpt lat="47.563589" lon="8.127466">
        <ele>345.794211</ele>
        <time>2021-11-14T20:52:59.862Z</time>
      </trkpt>
      <trkpt lat="47.563627" lon="8.127420">
        <ele>345.723171</ele>
        <time>2021-11-14T20:53:00.300Z</time>
      </trkpt>
      <trkpt lat="47.563751" lon="8.127247">
        <ele>345.476598</ele>
        <time>2021-11-14T20:53:02.123Z</time>
      </trkpt>
      <trkpt lat="47.563829" lon="8.127101">
        <ele>345.294667</ele>
        <time>2021-11-14T20:53:04.764Z</time>
      </trkpt>
      <trkpt lat="47.563898" lon="8.126936">
        <ele>345.105022</ele>
        <time>2021-11-14T20:53:08.408Z</time>
      </trkpt>
      <trkpt lat="47.563932" lon="8.126822">
        <ele>344.983254</ele>
        <time>2021-11-14T20:53:10.966Z</time>
      </trkpt>
      <trkpt lat="47.563935" lon="8.126813">
        <ele>344.973447</ele>
        <time>2021-11-14T20:53:11.152Z</time>
      </trkpt>
      <trkpt lat="47.563988" lon="8.126616">
        <ele>344.686526</ele>
        <time>2021-11-14T20:53:17.366Z</time>
      </trkpt>
      <trkpt lat="47.564016" lon="8.126515">
        <ele>344.515116</ele>
        <time>2021-11-14T20:53:19.272Z</time>
      </trkpt>
      <trkpt lat="47.564050" lon="8.126343">
        <ele>344.233763</ele>
        <time>2021-11-14T20:53:23.027Z</time>
      </trkpt>
      <trkpt lat="47.564078" lon="8.126253">
        <ele>344.078187</ele>
        <time>2021-11-14T20:53:25.515Z</time>
      </trkpt>
      <trkpt lat="47.564142" lon="8.126069">
        <ele>343.753228</ele>
        <time>2021-11-14T20:53:30.030Z</time>
      </trkpt>
      <trkpt lat="47.564204" lon="8.125933">
        <ele>343.495577</ele>
        <time>2021-11-14T20:53:31.133Z</time>
      </trkpt>
      <trkpt lat="47.564281" lon="8.125780">
        <ele>343.195952</ele>
        <time>2021-11-14T20:53:32.715Z</time>
      </trkpt>
      <trkpt lat="47.564404" lon="8.125557">
        <ele>342.743817</ele>
        <time>2021-11-14T20:53:34.762Z</time>
      </trkpt>
      <trkpt lat="47.564445" lon="8.125480">
        <ele>342.589841</ele>
        <time>2021-11-14T20:53:35.405Z</time>
      </trkpt>
      <trkpt lat="47.564862" lon="8.124663">
        <ele>340.981745</ele>
        <time>2021-11-14T20:53:42.782Z</time>
      </trkpt>
      <trkpt lat="47.565033" lon="8.124341">
        <ele>340.377141</ele>
        <time>2021-11-14T20:53:45.742Z</time>
      </trkpt>
      <trkpt lat="47.565098" lon="8.124202">
        <ele>340.139038</ele>
        <time>2021-11-14T20:53:46.853Z</time>
      </trkpt>
      <trkpt lat="47.565268" lon="8.123888">
        <ele>339.572239</ele>
        <time>2021-11-14T20:53:49.649Z</time>
      </trkpt>
      <trkpt lat="47.565326" lon="8.123776">
        <ele>339.373466</ele>
        <time>2021-11-14T20:53:50.559Z</time>
      </trkpt>
      <trkpt lat="47.565434" lon="8.123568">
        <ele>339.003954</ele>
        <time>2021-11-14T20:53:52.475Z</time>
      </trkpt>
      <trkpt lat="47.565629" lon="8.123189">
        <ele>338.332929</ele>
        <time>2021-11-14T20:53:55.974Z</time>
      </trkpt>
      <trkpt lat="47.565933" lon="8.122582">
        <ele>337.268655</ele>
        <time>2021-11-14T20:54:01.922Z</time>
      </trkpt>
      <trkpt lat="47.565954" lon="8.122541">
        <ele>337.196184</ele>
        <time>2021-11-14T20:54:02.301Z</time>
      </trkpt>
      <trkpt lat="47.566102" lon="8.122133">
        <ele>336.770432</ele>
        <time>2021-11-14T20:54:06.232Z</time>
      </trkpt>
      <trkpt lat="47.566119" lon="8.122027">
        <ele>336.700482</ele>
        <time>2021-11-14T20:54:07.043Z</time>
      </trkpt>
      <trkpt lat="47.566151" lon="8.121930">
        <ele>336.631161</ele>
        <time>2021-11-14T20:54:08.159Z</time>
      </trkpt>
      <trkpt lat="47.566318" lon="8.120964">
        <ele>335.990940</ele>
        <time>2021-11-14T20:54:16.357Z</time>
      </trkpt>
      <trkpt lat="47.566366" lon="8.120637">
        <ele>335.776090</ele>
        <time>2021-11-14T20:54:19.212Z</time>
      </trkpt>
      <trkpt lat="47.566398" lon="8.120421">
        <ele>335.634111</ele>
        <time>2021-11-14T20:54:21.222Z</time>
      </trkpt>
      <trkpt lat="47.566431" lon="8.120180">
        <ele>335.476232</ele>
        <time>2021-11-14T20:54:23.221Z</time>
      </trkpt>
      <trkpt lat="47.566474" lon="8.119870">
        <ele>335.273045</ele>
        <time>2021-11-14T20:54:26.082Z</time>
      </trkpt>
      <trkpt lat="47.566566" lon="8.119245">
        <ele>334.722168</ele>
        <time>2021-11-14T20:54:31.404Z</time>
      </trkpt>
      <trkpt lat="47.566580" lon="8.119152">
        <ele>334.638803</ele>
        <time>2021-11-14T20:54:32.074Z</time>
      </trkpt>
      <trkpt lat="47.566644" lon="8.118715">
        <ele>334.247574</ele>
        <time>2021-11-14T20:54:35.687Z</time>
      </trkpt>
      <trkpt lat="47.566733" lon="8.118099">
        <ele>333.696426</ele>
        <time>2021-11-14T20:54:40.351Z</time>
      </trkpt>
      <trkpt lat="47.566811" lon="8.117556">
        <ele>333.210716</ele>
        <time>2021-11-14T20:54:44.523Z</time>
      </trkpt>
      <trkpt lat="47.566944" lon="8.116530">
        <ele>332.615917</ele>
        <time>2021-11-14T20:54:53.566Z</time>
      </trkpt>
      <trkpt lat="47.566983" lon="8.116203">
        <ele>332.475004</ele>
        <time>2021-11-14T20:54:56.508Z</time>
      </trkpt>
      <trkpt lat="47.567009" lon="8.116010">
        <ele>332.391489</ele>
        <time>2021-11-14T20:54:59.183Z</time>
      </trkpt>
      <trkpt lat="47.567157" lon="8.115310">
        <ele>332.080205</ele>
        <time>2021-11-14T20:55:05.442Z</time>
      </trkpt>
      <trkpt lat="47.567411" lon="8.114753">
        <ele>331.794925</ele>
        <time>2021-11-14T20:55:11.104Z</time>
      </trkpt>
      <trkpt lat="47.567654" lon="8.114290">
        <ele>331.288382</ele>
        <time>2021-11-14T20:55:16.422Z</time>
      </trkpt>
      <trkpt lat="47.567881" lon="8.113862">
        <ele>330.808763</ele>
        <time>2021-11-14T20:55:21.423Z</time>
      </trkpt>
      <trkpt lat="47.568167" lon="8.113323">
        <ele>330.204656</ele>
        <time>2021-11-14T20:55:27.371Z</time>
      </trkpt>
      <trkpt lat="47.568835" lon="8.112063">
        <ele>327.772492</ele>
        <time>2021-11-14T20:55:38.707Z</time>
      </trkpt>
      <trkpt lat="47.569083" lon="8.111567">
        <ele>326.366756</ele>
        <time>2021-11-14T20:55:42.895Z</time>
      </trkpt>
      <trkpt lat="47.569107" lon="8.111522">
        <ele>326.236143</ele>
        <time>2021-11-14T20:55:43.223Z</time>
      </trkpt>
      <trkpt lat="47.569423" lon="8.110628">
        <ele>323.938043</ele>
        <time>2021-11-14T20:55:50.038Z</time>
      </trkpt>
      <trkpt lat="47.569495" lon="8.110499">
        <ele>323.556827</ele>
        <time>2021-11-14T20:55:51.035Z</time>
      </trkpt>
      <trkpt lat="47.569574" lon="8.110385">
        <ele>323.318752</ele>
        <time>2021-11-14T20:55:52.100Z</time>
      </trkpt>
      <trkpt lat="47.569664" lon="8.110262">
        <ele>323.209963</ele>
        <time>2021-11-14T20:55:54.449Z</time>
      </trkpt>
      <trkpt lat="47.569787" lon="8.110094">
        <ele>323.061325</ele>
        <time>2021-11-14T20:55:56.005Z</time>
      </trkpt>
      <trkpt lat="47.569974" lon="8.109825">
        <ele>322.829751</ele>
        <time>2021-11-14T20:55:58.896Z</time>
      </trkpt>
      <trkpt lat="47.570263" lon="8.109376">
        <ele>322.457694</ele>
        <time>2021-11-14T20:56:03.477Z</time>
      </trkpt>
      <trkpt lat="47.570283" lon="8.109343">
        <ele>322.431099</ele>
        <time>2021-11-14T20:56:03.776Z</time>
      </trkpt>
      <trkpt lat="47.570582" lon="8.108889">
        <ele>322.050715</ele>
        <time>2021-11-14T20:56:09.361Z</time>
      </trkpt>
      <trkpt lat="47.570830" lon="8.108502">
        <ele>321.862020</ele>
        <time>2021-11-14T20:56:19.686Z</time>
      </trkpt>
      <trkpt lat="47.571253" lon="8.107823">
        <ele>323.243386</ele>
        <time>2021-11-14T20:56:39.048Z</time>
      </trkpt>
      <trkpt lat="47.571440" lon="8.107260">
        <ele>324.181334</ele>
        <time>2021-11-14T20:56:51.886Z</time>
      </trkpt>
      <trkpt lat="47.571458" lon="8.107087">
        <ele>324.442967</ele>
        <time>2021-11-14T20:56:56.011Z</time>
      </trkpt>
      <trkpt lat="47.571460" lon="8.106995">
        <ele>324.580547</ele>
        <time>2021-11-14T20:56:57.643Z</time>
      </trkpt>
      <trkpt lat="47.571461" lon="8.106820">
        <ele>324.842123</ele>
        <time>2021-11-14T20:56:59.229Z</time>
      </trkpt>
      <trkpt lat="47.571440" lon="8.106588">
        <ele>325.191992</ele>
        <time>2021-11-14T20:57:02.056Z</time>
      </trkpt>
      <trkpt lat="47.571298" lon="8.105561">
        <ele>325.115086</ele>
        <time>2021-11-14T20:57:10.369Z</time>
      </trkpt>
      <trkpt lat="47.571251" lon="8.105188">
        <ele>324.755411</ele>
        <time>2021-11-14T20:57:13.276Z</time>
      </trkpt>
      <trkpt lat="47.571234" lon="8.105037">
        <ele>324.610301</ele>
        <time>2021-11-14T20:57:14.914Z</time>
      </trkpt>
      <trkpt lat="47.571214" lon="8.104836">
        <ele>324.417715</ele>
        <time>2021-11-14T20:57:16.560Z</time>
      </trkpt>
      <trkpt lat="47.571252" lon="8.104668">
        <ele>324.249759</ele>
        <time>2021-11-14T20:57:18.063Z</time>
      </trkpt>
      <trkpt lat="47.571285" lon="8.104547">
        <ele>324.126048</ele>
        <time>2021-11-14T20:57:18.984Z</time>
      </trkpt>
      <trkpt lat="47.571319" lon="8.104520">
        <ele>324.071856</ele>
        <time>2021-11-14T20:57:19.402Z</time>
      </trkpt>
      <trkpt lat="47.571345" lon="8.104476">
        <ele>324.016414</ele>
        <time>2021-11-14T20:57:19.790Z</time>
      </trkpt>
      <trkpt lat="47.571359" lon="8.104422">
        <ele>323.961579</ele>
        <time>2021-11-14T20:57:20.163Z</time>
      </trkpt>
      <trkpt lat="47.571359" lon="8.104365">
        <ele>323.907549</ele>
        <time>2021-11-14T20:57:20.599Z</time>
      </trkpt>
      <trkpt lat="47.571346" lon="8.104311">
        <ele>323.853202</ele>
        <time>2021-11-14T20:57:20.983Z</time>
      </trkpt>
      <trkpt lat="47.571354" lon="8.104222">
        <ele>323.768095</ele>
        <time>2021-11-14T20:57:22.013Z</time>
      </trkpt>
      <trkpt lat="47.571310" lon="8.104135">
        <ele>323.665032</ele>
        <time>2021-11-14T20:57:22.754Z</time>
      </trkpt>
      <trkpt lat="47.571041" lon="8.104109">
        <ele>323.286295</ele>
        <time>2021-11-14T20:57:25.626Z</time>
      </trkpt>
      <trkpt lat="47.570788" lon="8.103933">
        <ele>323.423804</ele>
        <time>2021-11-14T20:57:28.604Z</time>
      </trkpt>
      <trkpt lat="47.570667" lon="8.103884">
        <ele>323.528692</ele>
        <time>2021-11-14T20:57:30.307Z</time>
      </trkpt>
      <trkpt lat="47.570391" lon="8.103841">
        <ele>323.760755</ele>
        <time>2021-11-14T20:57:39.159Z</time>
      </trkpt>
      <trkpt lat="47.570159" lon="8.103813">
        <ele>323.955395</ele>
        <time>2021-11-14T20:57:43.248Z</time>
      </trkpt>
      <trkpt lat="47.569557" lon="8.103677">
        <ele>324.464600</ele>
        <time>2021-11-14T20:57:59.588Z</time>
      </trkpt>
      <trkpt lat="47.567683" lon="8.103272">
        <ele>328.983464</ele>
        <time>2021-11-14T20:58:47.853Z</time>
      </trkpt>
      <trkpt lat="47.566684" lon="8.102974">
        <ele>331.565720</ele>
        <time>2021-11-14T20:59:14.002Z</time>
      </trkpt>
      <trkpt lat="47.565727" lon="8.102512">
        <ele>334.067074</ele>
        <time>2021-11-14T20:59:39.274Z</time>
      </trkpt>
      <trkpt lat="47.564165" lon="8.101615">
        <ele>337.141112</ele>
        <time>2021-11-14T21:00:14.464Z</time>
      </trkpt>
      <trkpt lat="47.563202" lon="8.101042">
        <ele>340.094254</ele>
        <time>2021-11-14T21:00:40.278Z</time>
      </trkpt>
      <trkpt lat="47.563031" lon="8.100935">
        <ele>340.646747</ele>
        <time>2021-11-14T21:00:47.161Z</time>
      </trkpt>
      <trkpt lat="47.562207" lon="8.100413">
        <ele>343.136140</ele>
        <time>2021-11-14T21:01:17.602Z</time>
      </trkpt>
      <trkpt lat="47.561466" lon="8.099697">
        <ele>344.989891</ele>
        <time>2021-11-14T21:01:48.501Z</time>
      </trkpt>
      <trkpt lat="47.560787" lon="8.098864">
        <ele>345.925523</ele>
        <time>2021-11-14T21:02:08.171Z</time>
      </trkpt>
      <trkpt lat="47.560171" lon="8.097877">
        <ele>342.945564</ele>
        <time>2021-11-14T21:02:21.752Z</time>
      </trkpt>
      <trkpt lat="47.559606" lon="8.096837">
        <ele>339.610606</ele>
        <time>2021-11-14T21:02:33.763Z</time>
      </trkpt>
      <trkpt lat="47.558983" lon="8.095482">
        <ele>333.654986</ele>
        <time>2021-11-14T21:02:48.291Z</time>
      </trkpt>
      <trkpt lat="47.558857" lon="8.095293">
        <ele>332.689960</ele>
        <time>2021-11-14T21:02:50.783Z</time>
      </trkpt>
      <trkpt lat="47.558776" lon="8.095210">
        <ele>332.159881</ele>
        <time>2021-11-14T21:02:52.032Z</time>
      </trkpt>
      <trkpt lat="47.558531" lon="8.094661">
        <ele>330.104664</ele>
        <time>2021-11-14T21:02:56.313Z</time>
      </trkpt>
      <trkpt lat="47.557677" lon="8.092776">
        <ele>324.320712</ele>
        <time>2021-11-14T21:03:11.739Z</time>
      </trkpt>
      <trkpt lat="47.556850" lon="8.091457">
        <ele>318.647583</ele>
        <time>2021-11-14T21:03:23.363Z</time>
      </trkpt>
      <trkpt lat="47.556692" lon="8.091113">
        <ele>317.323866</ele>
        <time>2021-11-14T21:03:25.966Z</time>
      </trkpt>
      <trkpt lat="47.556527" lon="8.090721">
        <ele>315.854177</ele>
        <time>2021-11-14T21:03:28.847Z</time>
      </trkpt>
      <trkpt lat="47.556259" lon="8.090058">
        <ele>314.090905</ele>
        <time>2021-11-14T21:03:33.759Z</time>
      </trkpt>
      <trkpt lat="47.556193" lon="8.089926">
        <ele>313.731333</ele>
        <time>2021-11-14T21:03:34.890Z</time>
      </trkpt>
      <trkpt lat="47.556110" lon="8.089809">
        <ele>313.359792</ele>
        <time>2021-11-14T21:03:35.969Z</time>
      </trkpt>
      <trkpt lat="47.556137" lon="8.089730">
        <ele>313.165970</ele>
        <time>2021-11-14T21:03:36.521Z</time>
      </trkpt>
      <trkpt lat="47.556151" lon="8.089459">
        <ele>312.571079</ele>
        <time>2021-11-14T21:03:38.365Z</time>
      </trkpt>
      <trkpt lat="47.556111" lon="8.089266">
        <ele>312.129176</ele>
        <time>2021-11-14T21:03:39.653Z</time>
      </trkpt>
      <trkpt lat="47.556065" lon="8.089084">
        <ele>311.703799</ele>
        <time>2021-11-14T21:03:40.964Z</time>
      </trkpt>
      <trkpt lat="47.555997" lon="8.088801">
        <ele>311.046287</ele>
        <time>2021-11-14T21:03:43.273Z</time>
      </trkpt>
      <trkpt lat="47.555991" lon="8.088778">
        <ele>310.992315</ele>
        <time>2021-11-14T21:03:43.511Z</time>
      </trkpt>
      <trkpt lat="47.555939" lon="8.088552">
        <ele>310.469693</ele>
        <time>2021-11-14T21:03:45.341Z</time>
      </trkpt>
      <trkpt lat="47.555887" lon="8.088299">
        <ele>309.890821</ele>
        <time>2021-11-14T21:03:47.852Z</time>
      </trkpt>
      <trkpt lat="47.555829" lon="8.087941">
        <ele>310.314163</ele>
        <time>2021-11-14T21:03:51.668Z</time>
      </trkpt>
      <trkpt lat="47.555809" lon="8.087783">
        <ele>310.575065</ele>
        <time>2021-11-14T21:03:53.279Z</time>
      </trkpt>
      <trkpt lat="47.555780" lon="8.087557">
        <ele>310.948430</ele>
        <time>2021-11-14T21:03:55.456Z</time>
      </trkpt>
      <trkpt lat="47.555737" lon="8.087083">
        <ele>311.724643</ele>
        <time>2021-11-14T21:04:03.083Z</time>
      </trkpt>
      <trkpt lat="47.555733" lon="8.086819">
        <ele>312.153218</ele>
        <time>2021-11-14T21:04:08.105Z</time>
      </trkpt>
      <trkpt lat="47.555764" lon="8.085769">
        <ele>313.858979</ele>
        <time>2021-11-14T21:04:29.941Z</time>
      </trkpt>
      <trkpt lat="47.555899" lon="8.084472">
        <ele>317.881860</ele>
        <time>2021-11-14T21:04:59.352Z</time>
      </trkpt>
      <trkpt lat="47.555956" lon="8.084115">
        <ele>319.079146</ele>
        <time>2021-11-14T21:05:08.106Z</time>
      </trkpt>
      <trkpt lat="47.556083" lon="8.083354">
        <ele>321.637590</ele>
        <time>2021-11-14T21:05:26.304Z</time>
      </trkpt>
      <trkpt lat="47.556470" lon="8.081563">
        <ele>327.688905</ele>
        <time>2021-11-14T21:06:13.033Z</time>
      </trkpt>
      <trkpt lat="47.556853" lon="8.080477">
        <ele>331.446078</ele>
        <time>2021-11-14T21:06:39.106Z</time>
      </trkpt>
      <trkpt lat="47.557099" lon="8.079786">
        <ele>332.269900</ele>
        <time>2021-11-14T21:06:53.431Z</time>
      </trkpt>
      <trkpt lat="47.557256" lon="8.079416">
        <ele>332.730774</ele>
        <time>2021-11-14T21:07:00.150Z</time>
      </trkpt>
      <trkpt lat="47.557793" lon="8.078299">
        <ele>334.167620</ele>
        <time>2021-11-14T21:07:16.452Z</time>
      </trkpt>
      <trkpt lat="47.558613" lon="8.076826">
        <ele>332.345717</ele>
        <time>2021-11-14T21:07:31.016Z</time>
      </trkpt>
      <trkpt lat="47.559046" lon="8.076086">
        <ele>331.395312</ele>
        <time>2021-11-14T21:07:38.396Z</time>
      </trkpt>
      <trkpt lat="47.559426" lon="8.075372">
        <ele>330.464348</ele>
        <time>2021-11-14T21:07:45.393Z</time>
      </trkpt>
      <trkpt lat="47.559811" lon="8.074398">
        <ele>329.308713</ele>
        <time>2021-11-14T21:07:54.287Z</time>
      </trkpt>
      <trkpt lat="47.560318" lon="8.072316">
        <ele>326.767124</ele>
        <time>2021-11-14T21:08:11.559Z</time>
      </trkpt>
      <trkpt lat="47.560524" lon="8.071179">
        <ele>325.270691</ele>
        <time>2021-11-14T21:08:20.125Z</time>
      </trkpt>
      <trkpt lat="47.560553" lon="8.071099">
        <ele>325.132653</ele>
        <time>2021-11-14T21:08:20.736Z</time>
      </trkpt>
      <trkpt lat="47.560584" lon="8.070919">
        <ele>324.850276</ele>
        <time>2021-11-14T21:08:22.046Z</time>
      </trkpt>
      <trkpt lat="47.560739" lon="8.070551">
        <ele>324.190882</ele>
        <time>2021-11-14T21:08:25.133Z</time>
      </trkpt>
      <trkpt lat="47.560864" lon="8.070015">
        <ele>323.328864</ele>
        <time>2021-11-14T21:08:29.155Z</time>
      </trkpt>
      <trkpt lat="47.560904" lon="8.069780">
        <ele>322.960468</ele>
        <time>2021-11-14T21:08:30.899Z</time>
      </trkpt>
      <trkpt lat="47.560998" lon="8.069237">
        <ele>322.108367</ele>
        <time>2021-11-14T21:08:34.980Z</time>
      </trkpt>
      <trkpt lat="47.561130" lon="8.068650">
        <ele>321.533177</ele>
        <time>2021-11-14T21:08:39.650Z</time>
      </trkpt>
      <trkpt lat="47.561187" lon="8.068256">
        <ele>321.329444</ele>
        <time>2021-11-14T21:08:42.925Z</time>
      </trkpt>
      <trkpt lat="47.561229" lon="8.067903">
        <ele>321.148214</ele>
        <time>2021-11-14T21:08:45.963Z</time>
      </trkpt>
      <trkpt lat="47.561265" lon="8.067435">
        <ele>320.910060</ele>
        <time>2021-11-14T21:08:49.944Z</time>
      </trkpt>
      <trkpt lat="47.561276" lon="8.067022">
        <ele>320.701085</ele>
        <time>2021-11-14T21:08:53.862Z</time>
      </trkpt>
      <trkpt lat="47.561253" lon="8.066385">
        <ele>320.378557</ele>
        <time>2021-11-14T21:09:00.377Z</time>
      </trkpt>
      <trkpt lat="47.561108" lon="8.065242">
        <ele>320.237105</ele>
        <time>2021-11-14T21:09:12.743Z</time>
      </trkpt>
      <trkpt lat="47.561017" lon="8.064820">
        <ele>320.186452</ele>
        <time>2021-11-14T21:09:17.383Z</time>
      </trkpt>
      <trkpt lat="47.560887" lon="8.064271">
        <ele>320.119929</ele>
        <time>2021-11-14T21:09:22.580Z</time>
      </trkpt>
      <trkpt lat="47.560806" lon="8.064037">
        <ele>320.089860</ele>
        <time>2021-11-14T21:09:24.849Z</time>
      </trkpt>
      <trkpt lat="47.560719" lon="8.063873">
        <ele>320.066008</ele>
        <time>2021-11-14T21:09:26.632Z</time>
      </trkpt>
      <trkpt lat="47.560392" lon="8.063300">
        <ele>319.654081</ele>
        <time>2021-11-14T21:09:32.930Z</time>
      </trkpt>
      <trkpt lat="47.560335" lon="8.063169">
        <ele>319.565930</ele>
        <time>2021-11-14T21:09:34.277Z</time>
      </trkpt>
      <trkpt lat="47.560443" lon="8.063042">
        <ele>319.450385</ele>
        <time>2021-11-14T21:09:35.946Z</time>
      </trkpt>
      <trkpt lat="47.560545" lon="8.062928">
        <ele>319.343316</ele>
        <time>2021-11-14T21:09:37.512Z</time>
      </trkpt>
      <trkpt lat="47.560580" lon="8.062890">
        <ele>319.306954</ele>
        <time>2021-11-14T21:09:38.048Z</time>
      </trkpt>
      <trkpt lat="47.560673" lon="8.062786">
        <ele>319.209312</ele>
        <time>2021-11-14T21:09:40.119Z</time>
      </trkpt>
      <trkpt lat="47.560765" lon="8.062729">
        <ele>319.125743</ele>
        <time>2021-11-14T21:09:41.871Z</time>
      </trkpt>
      <trkpt lat="47.560570" lon="8.061926">
        <ele>318.643111</ele>
        <time>2021-11-14T21:09:49.227Z</time>
      </trkpt>
      <trkpt lat="47.560335" lon="8.060984">
        <ele>318.246875</ele>
        <time>2021-11-14T21:09:57.556Z</time>
      </trkpt>
      <trkpt lat="47.560293" lon="8.060828">
        <ele>318.185850</ele>
        <time>2021-11-14T21:09:58.986Z</time>
      </trkpt>
      <trkpt lat="47.560262" lon="8.060729">
        <ele>318.146196</ele>
        <time>2021-11-14T21:09:59.941Z</time>
      </trkpt>
      <trkpt lat="47.560130" lon="8.060196">
        <ele>317.939907</ele>
        <time>2021-11-14T21:10:05.141Z</time>
      </trkpt>
      <trkpt lat="47.560069" lon="8.059943">
        <ele>317.842292</ele>
        <time>2021-11-14T21:10:07.552Z</time>
      </trkpt>
      <trkpt lat="47.560040" lon="8.059827">
        <ele>317.797345</ele>
        <time>2021-11-14T21:10:08.770Z</time>
      </trkpt>
      <trkpt lat="47.560019" lon="8.059741">
        <ele>317.764115</ele>
        <time>2021-11-14T21:10:09.660Z</time>
      </trkpt>
      <trkpt lat="47.559979" lon="8.059591">
        <ele>317.705513</ele>
        <time>2021-11-14T21:10:11.121Z</time>
      </trkpt>
      <trkpt lat="47.559859" lon="8.059093">
        <ele>317.552476</ele>
        <time>2021-11-14T21:10:16.144Z</time>
      </trkpt>
      <trkpt lat="47.559725" lon="8.058554">
        <ele>317.454543</ele>
        <time>2021-11-14T21:10:21.554Z</time>
      </trkpt>
      <trkpt lat="47.559654" lon="8.058257">
        <ele>317.400823</ele>
        <time>2021-11-14T21:10:24.505Z</time>
      </trkpt>
      <trkpt lat="47.559579" lon="8.057955">
        <ele>317.345959</ele>
        <time>2021-11-14T21:10:27.410Z</time>
      </trkpt>
      <trkpt lat="47.559548" lon="8.057827">
        <ele>317.322773</ele>
        <time>2021-11-14T21:10:28.705Z</time>
      </trkpt>
      <trkpt lat="47.559447" lon="8.057490">
        <ele>317.259905</ele>
        <time>2021-11-14T21:10:32.133Z</time>
      </trkpt>
      <trkpt lat="47.559294" lon="8.057130">
        <ele>317.187370</ele>
        <time>2021-11-14T21:10:36.272Z</time>
      </trkpt>
      <trkpt lat="47.559116" lon="8.056760">
        <ele>317.127220</ele>
        <time>2021-11-14T21:10:40.710Z</time>
      </trkpt>
      <trkpt lat="47.558662" lon="8.056061">
        <ele>317.087935</ele>
        <time>2021-11-14T21:10:50.047Z</time>
      </trkpt>
      <trkpt lat="47.558447" lon="8.055831">
        <ele>317.072023</ele>
        <time>2021-11-14T21:10:53.578Z</time>
      </trkpt>
      <trkpt lat="47.558239" lon="8.055639">
        <ele>317.057318</ele>
        <time>2021-11-14T21:10:57.260Z</time>
      </trkpt>
      <trkpt lat="47.558012" lon="8.055477">
        <ele>317.042200</ele>
        <time>2021-11-14T21:11:00.905Z</time>
      </trkpt>
      <trkpt lat="47.557918" lon="8.055409">
        <ele>317.035923</ele>
        <time>2021-11-14T21:11:02.702Z</time>
      </trkpt>
      <trkpt lat="47.557710" lon="8.055283">
        <ele>317.022766</ele>
        <time>2021-11-14T21:11:06.068Z</time>
      </trkpt>
      <trkpt lat="47.557500" lon="8.055133">
        <ele>317.010812</ele>
        <time>2021-11-14T21:11:09.893Z</time>
      </trkpt>
      <trkpt lat="47.557273" lon="8.054941">
        <ele>316.997409</ele>
        <time>2021-11-14T21:11:14.133Z</time>
      </trkpt>
      <trkpt lat="47.557097" lon="8.054768">
        <ele>316.986578</ele>
        <time>2021-11-14T21:11:17.097Z</time>
      </trkpt>
      <trkpt lat="47.557019" lon="8.054678">
        <ele>316.981509</ele>
        <time>2021-11-14T21:11:18.902Z</time>
      </trkpt>
      <trkpt lat="47.556494" lon="8.054073">
        <ele>316.947405</ele>
        <time>2021-11-14T21:11:27.754Z</time>
      </trkpt>
      <trkpt lat="47.556239" lon="8.053780">
        <ele>316.942417</ele>
        <time>2021-11-14T21:11:32.160Z</time>
      </trkpt>
      <trkpt lat="47.556032" lon="8.053510">
        <ele>317.030639</ele>
        <time>2021-11-14T21:11:36.384Z</time>
      </trkpt>
      <trkpt lat="47.555890" lon="8.053286">
        <ele>317.096989</ele>
        <time>2021-11-14T21:11:40.021Z</time>
      </trkpt>
      <trkpt lat="47.555773" lon="8.053070">
        <ele>317.156786</ele>
        <time>2021-11-14T21:11:42.962Z</time>
      </trkpt>
      <trkpt lat="47.555603" lon="8.052757">
        <ele>317.243528</ele>
        <time>2021-11-14T21:11:47.184Z</time>
      </trkpt>
      <trkpt lat="47.555259" lon="8.052135">
        <ele>317.417148</ele>
        <time>2021-11-14T21:11:55.881Z</time>
      </trkpt>
      <trkpt lat="47.554988" lon="8.051475">
        <ele>317.886825</ele>
        <time>2021-11-14T21:12:04.871Z</time>
      </trkpt>
      <trkpt lat="47.554715" lon="8.050527">
        <ele>318.995164</ele>
        <time>2021-11-14T21:12:19.662Z</time>
      </trkpt>
      <trkpt lat="47.554412" lon="8.049127">
        <ele>320.577660</ele>
        <time>2021-11-14T21:12:42.223Z</time>
      </trkpt>
      <trkpt lat="47.554309" lon="8.048719">
        <ele>321.049580</ele>
        <time>2021-11-14T21:12:49.239Z</time>
      </trkpt>
      <trkpt lat="47.553996" lon="8.047557">
        <ele>322.405004</ele>
        <time>2021-11-14T21:13:08.470Z</time>
      </trkpt>
      <trkpt lat="47.553619" lon="8.046372">
        <ele>323.099580</ele>
        <time>2021-11-14T21:13:24.906Z</time>
      </trkpt>
      <trkpt lat="47.552844" lon="8.044355">
        <ele>322.191567</ele>
        <time>2021-11-14T21:13:44.836Z</time>
      </trkpt>
      <trkpt lat="47.551627" lon="8.041127">
        <ele>317.231090</ele>
        <time>2021-11-14T21:14:11.589Z</time>
      </trkpt>
      <trkpt lat="47.551167" lon="8.039905">
        <ele>315.456338</ele>
        <time>2021-11-14T21:14:22.220Z</time>
      </trkpt>
      <trkpt lat="47.551001" lon="8.039426">
        <ele>315.340542</ele>
        <time>2021-11-14T21:14:26.575Z</time>
      </trkpt>
      <trkpt lat="47.550515" lon="8.038174">
        <ele>315.211243</ele>
        <time>2021-11-14T21:14:40.278Z</time>
      </trkpt>
      <trkpt lat="47.550424" lon="8.037956">
        <ele>315.188295</ele>
        <time>2021-11-14T21:14:43.248Z</time>
      </trkpt>
      <trkpt lat="47.550111" lon="8.037123">
        <ele>315.407823</ele>
        <time>2021-11-14T21:14:55.616Z</time>
      </trkpt>
      <trkpt lat="47.549832" lon="8.036349">
        <ele>315.898193</ele>
        <time>2021-11-14T21:15:06.899Z</time>
      </trkpt>
      <trkpt lat="47.549753" lon="8.036077">
        <ele>316.063677</ele>
        <time>2021-11-14T21:15:10.671Z</time>
      </trkpt>
      <trkpt lat="47.549699" lon="8.035900">
        <ele>316.172229</ele>
        <time>2021-11-14T21:15:13.003Z</time>
      </trkpt>
      <trkpt lat="47.549632" lon="8.035633">
        <ele>316.331421</ele>
        <time>2021-11-14T21:15:16.321Z</time>
      </trkpt>
      <trkpt lat="47.549554" lon="8.035288">
        <ele>316.534754</ele>
        <time>2021-11-14T21:15:20.613Z</time>
      </trkpt>
      <trkpt lat="47.549494" lon="8.034935">
        <ele>316.651019</ele>
        <time>2021-11-14T21:15:25.071Z</time>
      </trkpt>
      <trkpt lat="47.549442" lon="8.034584">
        <ele>316.683349</ele>
        <time>2021-11-14T21:15:28.475Z</time>
      </trkpt>
      <trkpt lat="47.549395" lon="8.034029">
        <ele>316.733670</ele>
        <time>2021-11-14T21:15:34.537Z</time>
      </trkpt>
      <trkpt lat="47.549394" lon="8.034003">
        <ele>316.736013</ele>
        <time>2021-11-14T21:15:36.013Z</time>
      </trkpt>
      <trkpt lat="47.549386" lon="8.033799">
        <ele>316.754397</ele>
        <time>2021-11-14T21:15:37.545Z</time>
      </trkpt>
      <trkpt lat="47.549374" lon="8.033423">
        <ele>316.788262</ele>
        <time>2021-11-14T21:15:42.060Z</time>
      </trkpt>
      <trkpt lat="47.549363" lon="8.032869">
        <ele>316.838124</ele>
        <time>2021-11-14T21:15:47.221Z</time>
      </trkpt>
      <trkpt lat="47.549368" lon="8.032544">
        <ele>316.867370</ele>
        <time>2021-11-14T21:15:49.817Z</time>
      </trkpt>
      <trkpt lat="47.549372" lon="8.031883">
        <ele>316.926296</ele>
        <time>2021-11-14T21:15:56.836Z</time>
      </trkpt>
      <trkpt lat="47.549378" lon="8.030790">
        <ele>317.023621</ele>
        <time>2021-11-14T21:16:07.496Z</time>
      </trkpt>
      <trkpt lat="47.549380" lon="8.030702">
        <ele>317.031461</ele>
        <time>2021-11-14T21:16:08.336Z</time>
      </trkpt>
      <trkpt lat="47.549418" lon="8.028906">
        <ele>317.456883</ele>
        <time>2021-11-14T21:16:29.044Z</time>
      </trkpt>
      <trkpt lat="47.549431" lon="8.028306">
        <ele>317.687364</ele>
        <time>2021-11-14T21:16:35.788Z</time>
      </trkpt>
      <trkpt lat="47.549445" lon="8.027599">
        <ele>317.958925</ele>
        <time>2021-11-14T21:16:43.965Z</time>
      </trkpt>
      <trkpt lat="47.549454" lon="8.027138">
        <ele>318.135643</ele>
        <time>2021-11-14T21:16:49.491Z</time>
      </trkpt>
      <trkpt lat="47.549436" lon="8.026046">
        <ele>318.459672</ele>
        <time>2021-11-14T21:17:02.775Z</time>
      </trkpt>
      <trkpt lat="47.549322" lon="8.024323">
        <ele>318.893529</ele>
        <time>2021-11-14T21:17:21.380Z</time>
      </trkpt>
      <trkpt lat="47.549268" lon="8.023385">
        <ele>318.711819</ele>
        <time>2021-11-14T21:17:30.827Z</time>
      </trkpt>
      <trkpt lat="47.549201" lon="8.022146">
        <ele>318.471901</ele>
        <time>2021-11-14T21:17:42.044Z</time>
      </trkpt>
      <trkpt lat="47.549191" lon="8.021436">
        <ele>318.091138</ele>
        <time>2021-11-14T21:17:48.011Z</time>
      </trkpt>
      <trkpt lat="47.549186" lon="8.021006">
        <ele>317.741101</ele>
        <time>2021-11-14T21:17:51.595Z</time>
      </trkpt>
      <trkpt lat="47.549208" lon="8.019997">
        <ele>316.919430</ele>
        <time>2021-11-14T21:17:59.829Z</time>
      </trkpt>
      <trkpt lat="47.549261" lon="8.017878">
        <ele>314.975479</ele>
        <time>2021-11-14T21:18:15.950Z</time>
      </trkpt>
      <trkpt lat="47.549256" lon="8.017769">
        <ele>314.868056</ele>
        <time>2021-11-14T21:18:16.815Z</time>
      </trkpt>
      <trkpt lat="47.549291" lon="8.017761">
        <ele>314.816465</ele>
        <time>2021-11-14T21:18:17.212Z</time>
      </trkpt>
      <trkpt lat="47.549324" lon="8.017738">
        <ele>314.763337</ele>
        <time>2021-11-14T21:18:17.601Z</time>
      </trkpt>
      <trkpt lat="47.549351" lon="8.017702">
        <ele>314.710421</ele>
        <time>2021-11-14T21:18:18.003Z</time>
      </trkpt>
      <trkpt lat="47.549370" lon="8.017656">
        <ele>314.657393</ele>
        <time>2021-11-14T21:18:18.462Z</time>
      </trkpt>
      <trkpt lat="47.549379" lon="8.017603">
        <ele>314.603656</ele>
        <time>2021-11-14T21:18:18.868Z</time>
      </trkpt>
      <trkpt lat="47.549377" lon="8.017547">
        <ele>314.548516</ele>
        <time>2021-11-14T21:18:19.426Z</time>
      </trkpt>
      <trkpt lat="47.549310" lon="8.017418">
        <ele>314.388467</ele>
        <time>2021-11-14T21:18:20.773Z</time>
      </trkpt>
      <trkpt lat="47.549274" lon="8.017401">
        <ele>314.333423</ele>
        <time>2021-11-14T21:18:21.254Z</time>
      </trkpt>
      <trkpt lat="47.549281" lon="8.017304">
        <ele>314.237502</ele>
        <time>2021-11-14T21:18:21.970Z</time>
      </trkpt>
      <trkpt lat="47.549431" lon="8.015998">
        <ele>313.034809</ele>
        <time>2021-11-14T21:18:32.714Z</time>
      </trkpt>
      <trkpt lat="47.549589" lon="8.015316">
        <ele>312.429009</ele>
        <time>2021-11-14T21:18:38.558Z</time>
      </trkpt>
      <trkpt lat="47.549795" lon="8.014667">
        <ele>311.826464</ele>
        <time>2021-11-14T21:18:44.374Z</time>
      </trkpt>
      <trkpt lat="47.549871" lon="8.014427">
        <ele>311.603738</ele>
        <time>2021-11-14T21:18:46.509Z</time>
      </trkpt>
      <trkpt lat="47.550001" lon="8.014034">
        <ele>311.224935</ele>
        <time>2021-11-14T21:18:49.897Z</time>
      </trkpt>
      <trkpt lat="47.550565" lon="8.012461">
        <ele>309.615048</ele>
        <time>2021-11-14T21:19:03.505Z</time>
      </trkpt>
      <trkpt lat="47.550764" lon="8.011985">
        <ele>309.108980</ele>
        <time>2021-11-14T21:19:08.004Z</time>
      </trkpt>
      <trkpt lat="47.551187" lon="8.011080">
        <ele>309.155018</ele>
        <time>2021-11-14T21:19:18.122Z</time>
      </trkpt>
      <trkpt lat="47.551275" lon="8.010934">
        <ele>309.192285</ele>
        <time>2021-11-14T21:19:19.932Z</time>
      </trkpt>
      <trkpt lat="47.551902" lon="8.009884">
        <ele>309.459197</ele>
        <time>2021-11-14T21:19:36.886Z</time>
      </trkpt>
      <trkpt lat="47.552604" lon="8.008677">
        <ele>310.311636</ele>
        <time>2021-11-14T21:19:59.366Z</time>
      </trkpt>
      <trkpt lat="47.552640" lon="8.008615">
        <ele>310.357603</ele>
        <time>2021-11-14T21:20:00.952Z</time>
      </trkpt>
      <trkpt lat="47.552935" lon="8.007851">
        <ele>310.852294</ele>
        <time>2021-11-14T21:20:10.551Z</time>
      </trkpt>
      <trkpt lat="47.553173" lon="8.006642">
        <ele>310.422387</ele>
        <time>2021-11-14T21:20:21.353Z</time>
      </trkpt>
      <trkpt lat="47.553211" lon="8.006270">
        <ele>310.219807</ele>
        <time>2021-11-14T21:20:24.567Z</time>
      </trkpt>
      <trkpt lat="47.553220" lon="8.006182">
        <ele>310.171883</ele>
        <time>2021-11-14T21:20:25.158Z</time>
      </trkpt>
      <trkpt lat="47.553251" lon="8.005657">
        <ele>309.888124</ele>
        <time>2021-11-14T21:20:29.406Z</time>
      </trkpt>
      <trkpt lat="47.553256" lon="8.004837">
        <ele>309.565744</ele>
        <time>2021-11-14T21:20:36.330Z</time>
      </trkpt>
      <trkpt lat="47.553266" lon="8.003502">
        <ele>309.725347</ele>
        <time>2021-11-14T21:20:48.918Z</time>
      </trkpt>
      <trkpt lat="47.553270" lon="8.002465">
        <ele>309.849318</ele>
        <time>2021-11-14T21:21:01.589Z</time>
      </trkpt>
      <trkpt lat="47.553271" lon="8.002109">
        <ele>309.980735</ele>
        <time>2021-11-14T21:21:06.567Z</time>
      </trkpt>
      <trkpt lat="47.553273" lon="8.001687">
        <ele>310.184768</ele>
        <time>2021-11-14T21:21:12.247Z</time>
      </trkpt>
      <trkpt lat="47.553275" lon="7.999860">
        <ele>311.068081</ele>
        <time>2021-11-14T21:21:34.434Z</time>
      </trkpt>
      <trkpt lat="47.553278" lon="7.999508">
        <ele>311.030128</ele>
        <time>2021-11-14T21:21:37.980Z</time>
      </trkpt>
      <trkpt lat="47.553287" lon="7.998380">
        <ele>310.272257</ele>
        <time>2021-11-14T21:21:47.747Z</time>
      </trkpt>
      <trkpt lat="47.553287" lon="7.997190">
        <ele>309.472786</ele>
        <time>2021-11-14T21:21:57.046Z</time>
      </trkpt>
      <trkpt lat="47.553279" lon="7.996528">
        <ele>308.655625</ele>
        <time>2021-11-14T21:22:02.062Z</time>
      </trkpt>
      <trkpt lat="47.553268" lon="7.996252">
        <ele>308.262042</ele>
        <time>2021-11-14T21:22:04.134Z</time>
      </trkpt>
      <trkpt lat="47.553246" lon="7.995617">
        <ele>307.356901</ele>
        <time>2021-11-14T21:22:08.316Z</time>
      </trkpt>
      <trkpt lat="47.553164" lon="7.993925">
        <ele>305.423321</ele>
        <time>2021-11-14T21:22:21.835Z</time>
      </trkpt>
      <trkpt lat="47.553156" lon="7.993696">
        <ele>305.348296</ele>
        <time>2021-11-14T21:22:23.237Z</time>
      </trkpt>
      <trkpt lat="47.553137" lon="7.993190">
        <ele>305.182485</ele>
        <time>2021-11-14T21:22:27.849Z</time>
      </trkpt>
      <trkpt lat="47.553130" lon="7.993014">
        <ele>305.124801</ele>
        <time>2021-11-14T21:22:32.035Z</time>
      </trkpt>
      <trkpt lat="47.553107" lon="7.992226">
        <ele>304.866739</ele>
        <time>2021-11-14T21:22:38.749Z</time>
      </trkpt>
      <trkpt lat="47.553091" lon="7.991915">
        <ele>304.764690</ele>
        <time>2021-11-14T21:22:42.981Z</time>
      </trkpt>
      <trkpt lat="47.553050" lon="7.990744">
        <ele>303.602848</ele>
        <time>2021-11-14T21:22:55.804Z</time>
      </trkpt>
      <trkpt lat="47.553126" lon="7.990240">
        <ele>303.015057</ele>
        <time>2021-11-14T21:22:59.716Z</time>
      </trkpt>
      <trkpt lat="47.553146" lon="7.990113">
        <ele>302.866624</ele>
        <time>2021-11-14T21:23:00.645Z</time>
      </trkpt>
      <trkpt lat="47.553163" lon="7.990004">
        <ele>302.739292</ele>
        <time>2021-11-14T21:23:01.430Z</time>
      </trkpt>
      <trkpt lat="47.553214" lon="7.989758">
        <ele>302.446386</ele>
        <time>2021-11-14T21:23:03.208Z</time>
      </trkpt>
      <trkpt lat="47.553253" lon="7.989578">
        <ele>302.231214</ele>
        <time>2021-11-14T21:23:04.498Z</time>
      </trkpt>
      <trkpt lat="47.553352" lon="7.989142">
        <ele>301.707632</ele>
        <time>2021-11-14T21:23:07.593Z</time>
      </trkpt>
      <trkpt lat="47.553424" lon="7.988762">
        <ele>300.760131</ele>
        <time>2021-11-14T21:23:10.241Z</time>
      </trkpt>
      <trkpt lat="47.553410" lon="7.988607">
        <ele>300.362228</ele>
        <time>2021-11-14T21:23:11.271Z</time>
      </trkpt>
      <trkpt lat="47.553343" lon="7.988401">
        <ele>299.780384</ele>
        <time>2021-11-14T21:23:12.793Z</time>
      </trkpt>
      <trkpt lat="47.553232" lon="7.988247">
        <ele>299.207090</ele>
        <time>2021-11-14T21:23:14.265Z</time>
      </trkpt>
      <trkpt lat="47.552867" lon="7.987810">
        <ele>297.437916</ele>
        <time>2021-11-14T21:23:18.833Z</time>
      </trkpt>
      <trkpt lat="47.552713" lon="7.987638">
        <ele>296.710851</ele>
        <time>2021-11-14T21:23:20.671Z</time>
      </trkpt>
      <trkpt lat="47.552504" lon="7.987369">
        <ele>295.667132</ele>
        <time>2021-11-14T21:23:23.381Z</time>
      </trkpt>
      <trkpt lat="47.552436" lon="7.987273">
        <ele>295.313025</ele>
        <time>2021-11-14T21:23:24.324Z</time>
      </trkpt>
      <trkpt lat="47.552224" lon="7.986975">
        <ele>294.753722</ele>
        <time>2021-11-14T21:23:27.310Z</time>
      </trkpt>
      <trkpt lat="47.552152" lon="7.986883">
        <ele>294.685745</ele>
        <time>2021-11-14T21:23:28.290Z</time>
      </trkpt>
      <trkpt lat="47.551971" lon="7.986555">
        <ele>294.481297</ele>
        <time>2021-11-14T21:23:31.289Z</time>
      </trkpt>
      <trkpt lat="47.551917" lon="7.986288">
        <ele>294.346795</ele>
        <time>2021-11-14T21:23:33.369Z</time>
      </trkpt>
      <trkpt lat="47.551915" lon="7.986209">
        <ele>294.308647</ele>
        <time>2021-11-14T21:23:33.929Z</time>
      </trkpt>
      <trkpt lat="47.551898" lon="7.985654">
        <ele>294.040554</ele>
        <time>2021-11-14T21:23:39.437Z</time>
      </trkpt>
      <trkpt lat="47.551939" lon="7.985151">
        <ele>293.796067</ele>
        <time>2021-11-14T21:23:45.592Z</time>
      </trkpt>
      <trkpt lat="47.551934" lon="7.984260">
        <ele>294.430347</ele>
        <time>2021-11-14T21:23:59.174Z</time>
      </trkpt>
      <trkpt lat="47.551993" lon="7.984014">
        <ele>294.890931</ele>
        <time>2021-11-14T21:24:02.780Z</time>
      </trkpt>
      <trkpt lat="47.552007" lon="7.983931">
        <ele>295.041865</ele>
        <time>2021-11-14T21:24:04.354Z</time>
      </trkpt>
      <trkpt lat="47.552005" lon="7.983849">
        <ele>295.186625</ele>
        <time>2021-11-14T21:24:06.435Z</time>
      </trkpt>
      <trkpt lat="47.551911" lon="7.983632">
        <ele>295.641527</ele>
        <time>2021-11-14T21:24:10.628Z</time>
      </trkpt>
      <trkpt lat="47.551892" lon="7.983447">
        <ele>295.971665</ele>
        <time>2021-11-14T21:24:13.973Z</time>
      </trkpt>
      <trkpt lat="47.551861" lon="7.981113">
        <ele>299.248073</ele>
        <time>2021-11-14T21:24:57.262Z</time>
      </trkpt>
      <trkpt lat="47.551865" lon="7.980584">
        <ele>299.743290</ele>
        <time>2021-11-14T21:25:03.903Z</time>
      </trkpt>
      <trkpt lat="47.551873" lon="7.980135">
        <ele>300.163735</ele>
        <time>2021-11-14T21:25:08.659Z</time>
      </trkpt>
      <trkpt lat="47.551933" lon="7.979363">
        <ele>300.752022</ele>
        <time>2021-11-14T21:25:17.018Z</time>
      </trkpt>
      <trkpt lat="47.551923" lon="7.979308">
        <ele>300.731376</ele>
        <time>2021-11-14T21:25:17.386Z</time>
      </trkpt>
      <trkpt lat="47.551901" lon="7.979190">
        <ele>300.687005</ele>
        <time>2021-11-14T21:25:18.357Z</time>
      </trkpt>
      <trkpt lat="47.551829" lon="7.976305">
        <ele>299.862905</ele>
        <time>2021-11-14T21:25:43.405Z</time>
      </trkpt>
      <trkpt lat="47.551793" lon="7.974325">
        <ele>300.010821</ele>
        <time>2021-11-14T21:26:05.518Z</time>
      </trkpt>
      <trkpt lat="47.551755" lon="7.972603">
        <ele>299.743666</ele>
        <time>2021-11-14T21:26:22.817Z</time>
      </trkpt>
      <trkpt lat="47.551725" lon="7.970823">
        <ele>299.349255</ele>
        <time>2021-11-14T21:26:38.046Z</time>
      </trkpt>
      <trkpt lat="47.551734" lon="7.970034">
        <ele>299.120747</ele>
        <time>2021-11-14T21:26:45.006Z</time>
      </trkpt>
      <trkpt lat="47.551750" lon="7.968659">
        <ele>298.796996</ele>
        <time>2021-11-14T21:26:58.195Z</time>
      </trkpt>
      <trkpt lat="47.551825" lon="7.968445">
        <ele>298.837899</ele>
        <time>2021-11-14T21:27:00.448Z</time>
      </trkpt>
      <trkpt lat="47.551847" lon="7.968315">
        <ele>298.860634</ele>
        <time>2021-11-14T21:27:01.918Z</time>
      </trkpt>
      <trkpt lat="47.551839" lon="7.968208">
        <ele>298.878895</ele>
        <time>2021-11-14T21:27:03.120Z</time>
      </trkpt>
      <trkpt lat="47.551767" lon="7.967910">
        <ele>298.932587</ele>
        <time>2021-11-14T21:27:06.353Z</time>
      </trkpt>
      <trkpt lat="47.551902" lon="7.964650">
        <ele>299.459064</ele>
        <time>2021-11-14T21:27:42.754Z</time>
      </trkpt>
      <trkpt lat="47.551918" lon="7.963725">
        <ele>299.599706</ele>
        <time>2021-11-14T21:27:52.152Z</time>
      </trkpt>
      <trkpt lat="47.551906" lon="7.962453">
        <ele>299.306314</ele>
        <time>2021-11-14T21:28:04.082Z</time>
      </trkpt>
      <trkpt lat="47.551859" lon="7.961133">
        <ele>298.919723</ele>
        <time>2021-11-14T21:28:15.666Z</time>
      </trkpt>
      <trkpt lat="47.551894" lon="7.960729">
        <ele>298.815855</ele>
        <time>2021-11-14T21:28:19.417Z</time>
      </trkpt>
      <trkpt lat="47.551882" lon="7.960631">
        <ele>298.796263</ele>
        <time>2021-11-14T21:28:20.187Z</time>
      </trkpt>
      <trkpt lat="47.551865" lon="7.960528">
        <ele>298.775406</ele>
        <time>2021-11-14T21:28:21.133Z</time>
      </trkpt>
      <trkpt lat="47.551677" lon="7.960100">
        <ele>298.674956</ele>
        <time>2021-11-14T21:28:25.657Z</time>
      </trkpt>
      <trkpt lat="47.551300" lon="7.958844">
        <ele>298.404563</ele>
        <time>2021-11-14T21:28:38.568Z</time>
      </trkpt>
      <trkpt lat="47.550869" lon="7.957700">
        <ele>298.357707</ele>
        <time>2021-11-14T21:28:51.932Z</time>
      </trkpt>
      <trkpt lat="47.550745" lon="7.957569">
        <ele>298.366456</ele>
        <time>2021-11-14T21:28:54.170Z</time>
      </trkpt>
      <trkpt lat="47.550735" lon="7.957541">
        <ele>298.367685</ele>
        <time>2021-11-14T21:28:54.612Z</time>
      </trkpt>
      <trkpt lat="47.550613" lon="7.957254">
        <ele>298.380836</ele>
        <time>2021-11-14T21:28:57.951Z</time>
      </trkpt>
      <trkpt lat="47.550549" lon="7.957126">
        <ele>298.387013</ele>
        <time>2021-11-14T21:28:59.499Z</time>
      </trkpt>
      <trkpt lat="47.550445" lon="7.956918">
        <ele>298.397050</ele>
        <time>2021-11-14T21:29:02.172Z</time>
      </trkpt>
      <trkpt lat="47.550380" lon="7.956806">
        <ele>298.402778</ele>
        <time>2021-11-14T21:29:03.656Z</time>
      </trkpt>
      <trkpt lat="47.550205" lon="7.956552">
        <ele>298.416852</ele>
        <time>2021-11-14T21:29:07.366Z</time>
      </trkpt>
      <trkpt lat="47.549444" lon="7.955496">
        <ele>298.539948</ele>
        <time>2021-11-14T21:29:23.732Z</time>
      </trkpt>
      <trkpt lat="47.549157" lon="7.955099">
        <ele>298.590771</ele>
        <time>2021-11-14T21:29:29.533Z</time>
      </trkpt>
      <trkpt lat="47.549042" lon="7.954942">
        <ele>298.611012</ele>
        <time>2021-11-14T21:29:31.885Z</time>
      </trkpt>
      <trkpt lat="47.548833" lon="7.954652">
        <ele>298.648076</ele>
        <time>2021-11-14T21:29:36.241Z</time>
      </trkpt>
      <trkpt lat="47.548542" lon="7.954269">
        <ele>298.752721</ele>
        <time>2021-11-14T21:29:42.259Z</time>
      </trkpt>
      <trkpt lat="47.548342" lon="7.954009">
        <ele>298.834678</ele>
        <time>2021-11-14T21:29:46.441Z</time>
      </trkpt>
      <trkpt lat="47.548251" lon="7.953895">
        <ele>298.871385</ele>
        <time>2021-11-14T21:29:48.369Z</time>
      </trkpt>
      <trkpt lat="47.548115" lon="7.953729">
        <ele>298.925661</ele>
        <time>2021-11-14T21:29:51.238Z</time>
      </trkpt>
      <trkpt lat="47.547994" lon="7.953584">
        <ele>298.973598</ele>
        <time>2021-11-14T21:29:53.800Z</time>
      </trkpt>
      <trkpt lat="47.547871" lon="7.953437">
        <ele>299.022274</ele>
        <time>2021-11-14T21:29:56.391Z</time>
      </trkpt>
      <trkpt lat="47.547797" lon="7.953355">
        <ele>299.050738</ele>
        <time>2021-11-14T21:29:57.894Z</time>
      </trkpt>
      <trkpt lat="47.547624" lon="7.953160">
        <ele>299.117695</ele>
        <time>2021-11-14T21:30:01.387Z</time>
      </trkpt>
      <trkpt lat="47.547550" lon="7.953078">
        <ele>299.146159</ele>
        <time>2021-11-14T21:30:02.912Z</time>
      </trkpt>
      <trkpt lat="47.547458" lon="7.952975">
        <ele>299.181678</ele>
        <time>2021-11-14T21:30:04.925Z</time>
      </trkpt>
      <trkpt lat="47.547400" lon="7.952910">
        <ele>299.204079</ele>
        <time>2021-11-14T21:30:06.207Z</time>
      </trkpt>
      <trkpt lat="47.547090" lon="7.952543">
        <ele>299.342854</ele>
        <time>2021-11-14T21:30:12.655Z</time>
      </trkpt>
      <trkpt lat="47.546935" lon="7.952372">
        <ele>299.411085</ele>
        <time>2021-11-14T21:30:15.547Z</time>
      </trkpt>
      <trkpt lat="47.546776" lon="7.952185">
        <ele>299.482760</ele>
        <time>2021-11-14T21:30:18.871Z</time>
      </trkpt>
      <trkpt lat="47.546695" lon="7.952091">
        <ele>299.519087</ele>
        <time>2021-11-14T21:30:20.679Z</time>
      </trkpt>
      <trkpt lat="47.546634" lon="7.952024">
        <ele>299.545897</ele>
        <time>2021-11-14T21:30:22.122Z</time>
      </trkpt>
      <trkpt lat="47.546421" lon="7.951793">
        <ele>299.639096</ele>
        <time>2021-11-14T21:30:26.533Z</time>
      </trkpt>
      <trkpt lat="47.546231" lon="7.951558">
        <ele>299.726482</ele>
        <time>2021-11-14T21:30:31.086Z</time>
      </trkpt>
      <trkpt lat="47.546212" lon="7.951535">
        <ele>299.735145</ele>
        <time>2021-11-14T21:30:31.331Z</time>
      </trkpt>
      <trkpt lat="47.546135" lon="7.951406">
        <ele>299.776184</ele>
        <time>2021-11-14T21:30:33.141Z</time>
      </trkpt>
      <trkpt lat="47.545886" lon="7.951110">
        <ele>299.795771</ele>
        <time>2021-11-14T21:30:37.960Z</time>
      </trkpt>
      <trkpt lat="47.545824" lon="7.951061">
        <ele>299.763840</ele>
        <time>2021-11-14T21:30:39.102Z</time>
      </trkpt>
      <trkpt lat="47.545759" lon="7.950982">
        <ele>299.725635</ele>
        <time>2021-11-14T21:30:40.508Z</time>
      </trkpt>
      <trkpt lat="47.545727" lon="7.950947">
        <ele>299.707561</ele>
        <time>2021-11-14T21:30:41.309Z</time>
      </trkpt>
      <trkpt lat="47.545625" lon="7.950829">
        <ele>299.648754</ele>
        <time>2021-11-14T21:30:42.864Z</time>
      </trkpt>
      <trkpt lat="47.545567" lon="7.950765">
        <ele>299.615890</ele>
        <time>2021-11-14T21:30:43.898Z</time>
      </trkpt>
      <trkpt lat="47.545494" lon="7.950684">
        <ele>299.574446</ele>
        <time>2021-11-14T21:30:45.265Z</time>
      </trkpt>
      <trkpt lat="47.545434" lon="7.950668">
        <ele>299.546743</ele>
        <time>2021-11-14T21:30:46.351Z</time>
      </trkpt>
      <trkpt lat="47.545166" lon="7.950366">
        <ele>299.393735</ele>
        <time>2021-11-14T21:30:50.691Z</time>
      </trkpt>
      <trkpt lat="47.544901" lon="7.950044">
        <ele>299.237993</ele>
        <time>2021-11-14T21:30:54.824Z</time>
      </trkpt>
      <trkpt lat="47.544521" lon="7.949558">
        <ele>299.059572</ele>
        <time>2021-11-14T21:31:01.014Z</time>
      </trkpt>
      <trkpt lat="47.544239" lon="7.949202">
        <ele>299.289883</ele>
        <time>2021-11-14T21:31:05.921Z</time>
      </trkpt>
      <trkpt lat="47.543864" lon="7.948694">
        <ele>299.605759</ele>
        <time>2021-11-14T21:31:13.885Z</time>
      </trkpt>
      <trkpt lat="47.543760" lon="7.948548">
        <ele>299.694824</ele>
        <time>2021-11-14T21:31:16.127Z</time>
      </trkpt>
      <trkpt lat="47.543579" lon="7.948287">
        <ele>299.851839</ele>
        <time>2021-11-14T21:31:21.845Z</time>
      </trkpt>
      <trkpt lat="47.543532" lon="7.948214">
        <ele>299.894169</ele>
        <time>2021-11-14T21:31:22.971Z</time>
      </trkpt>
      <trkpt lat="47.543435" lon="7.948000">
        <ele>300.002333</ele>
        <time>2021-11-14T21:31:26.033Z</time>
      </trkpt>
      <trkpt lat="47.543407" lon="7.947938">
        <ele>300.033634</ele>
        <time>2021-11-14T21:31:27.890Z</time>
      </trkpt>
      <trkpt lat="47.543280" lon="7.947656">
        <ele>300.265067</ele>
        <time>2021-11-14T21:31:32.377Z</time>
      </trkpt>
      <trkpt lat="47.543142" lon="7.947250">
        <ele>301.087082</ele>
        <time>2021-11-14T21:31:39.841Z</time>
      </trkpt>
      <trkpt lat="47.543086" lon="7.947052">
        <ele>301.475295</ele>
        <time>2021-11-14T21:31:43.270Z</time>
      </trkpt>
      <trkpt lat="47.543056" lon="7.946935">
        <ele>301.701623</ele>
        <time>2021-11-14T21:31:46.112Z</time>
      </trkpt>
      <trkpt lat="47.543045" lon="7.946881">
        <ele>301.803623</ele>
        <time>2021-11-14T21:31:47.268Z</time>
      </trkpt>
      <trkpt lat="47.542982" lon="7.946547">
        <ele>302.430753</ele>
        <time>2021-11-14T21:31:52.668Z</time>
      </trkpt>
      <trkpt lat="47.542974" lon="7.946495">
        <ele>302.527199</ele>
        <time>2021-11-14T21:31:54.309Z</time>
      </trkpt>
      <trkpt lat="47.542960" lon="7.946400">
        <ele>302.703040</ele>
        <time>2021-11-14T21:31:56.374Z</time>
      </trkpt>
      <trkpt lat="47.542916" lon="7.945730">
        <ele>303.920365</ele>
        <time>2021-11-14T21:32:09.040Z</time>
      </trkpt>
      <trkpt lat="47.542913" lon="7.945267">
        <ele>304.757677</ele>
        <time>2021-11-14T21:32:17.535Z</time>
      </trkpt>
      <trkpt lat="47.543007" lon="7.943867">
        <ele>305.945797</ele>
        <time>2021-11-14T21:32:38.702Z</time>
      </trkpt>
      <trkpt lat="47.543161" lon="7.942213">
        <ele>306.778780</ele>
        <time>2021-11-14T21:32:57.108Z</time>
      </trkpt>
      <trkpt lat="47.543435" lon="7.940670">
        <ele>305.657740</ele>
        <time>2021-11-14T21:33:10.057Z</time>
      </trkpt>
      <trkpt lat="47.543826" lon="7.939433">
        <ele>304.397988</ele>
        <time>2021-11-14T21:33:20.458Z</time>
      </trkpt>
      <trkpt lat="47.544472" lon="7.937932">
        <ele>302.246527</ele>
        <time>2021-11-14T21:33:33.782Z</time>
      </trkpt>
      <trkpt lat="47.544705" lon="7.937395">
        <ele>301.514096</ele>
        <time>2021-11-14T21:33:38.621Z</time>
      </trkpt>
      <trkpt lat="47.544903" lon="7.936917">
        <ele>300.899494</ele>
        <time>2021-11-14T21:33:42.882Z</time>
      </trkpt>
      <trkpt lat="47.545074" lon="7.936484">
        <ele>300.349731</ele>
        <time>2021-11-14T21:33:46.712Z</time>
      </trkpt>
      <trkpt lat="47.545457" lon="7.935110">
        <ele>298.917979</ele>
        <time>2021-11-14T21:33:58.081Z</time>
      </trkpt>
      <trkpt lat="47.545674" lon="7.933625">
        <ele>298.548940</ele>
        <time>2021-11-14T21:34:11.161Z</time>
      </trkpt>
      <trkpt lat="47.545702" lon="7.933290">
        <ele>298.466952</ele>
        <time>2021-11-14T21:34:14.741Z</time>
      </trkpt>
      <trkpt lat="47.545724" lon="7.932758">
        <ele>298.337495</ele>
        <time>2021-11-14T21:34:21.008Z</time>
      </trkpt>
      <trkpt lat="47.545721" lon="7.931992">
        <ele>299.196404</ele>
        <time>2021-11-14T21:34:31.047Z</time>
      </trkpt>
      <trkpt lat="47.545696" lon="7.931497">
        <ele>299.793613</ele>
        <time>2021-11-14T21:34:38.253Z</time>
      </trkpt>
      <trkpt lat="47.545661" lon="7.930955">
        <ele>300.448681</ele>
        <time>2021-11-14T21:34:46.948Z</time>
      </trkpt>
      <trkpt lat="47.545563" lon="7.929641">
        <ele>301.655216</ele>
        <time>2021-11-14T21:35:09.288Z</time>
      </trkpt>
      <trkpt lat="47.545475" lon="7.928419">
        <ele>302.012518</ele>
        <time>2021-11-14T21:35:25.590Z</time>
      </trkpt>
      <trkpt lat="47.545421" lon="7.927686">
        <ele>302.226897</ele>
        <time>2021-11-14T21:35:31.694Z</time>
      </trkpt>
      <trkpt lat="47.545406" lon="7.927306">
        <ele>302.081823</ele>
        <time>2021-11-14T21:35:34.598Z</time>
      </trkpt>
      <trkpt lat="47.545407" lon="7.927001">
        <ele>301.414362</ele>
        <time>2021-11-14T21:35:36.884Z</time>
      </trkpt>
      <trkpt lat="47.545409" lon="7.926773">
        <ele>300.915371</ele>
        <time>2021-11-14T21:35:38.513Z</time>
      </trkpt>
      <trkpt lat="47.545417" lon="7.925848">
        <ele>298.890962</ele>
        <time>2021-11-14T21:35:44.849Z</time>
      </trkpt>
      <trkpt lat="47.545446" lon="7.925350">
        <ele>297.797106</ele>
        <time>2021-11-14T21:35:48.140Z</time>
      </trkpt>
      <trkpt lat="47.545466" lon="7.924880">
        <ele>296.766530</ele>
        <time>2021-11-14T21:35:51.194Z</time>
      </trkpt>
      <trkpt lat="47.545481" lon="7.924396">
        <ele>295.781690</ele>
        <time>2021-11-14T21:35:54.277Z</time>
      </trkpt>
      <trkpt lat="47.545521" lon="7.923709">
        <ele>294.420528</ele>
        <time>2021-11-14T21:35:58.802Z</time>
      </trkpt>
      <trkpt lat="47.545536" lon="7.923407">
        <ele>293.822774</ele>
        <time>2021-11-14T21:36:01.192Z</time>
      </trkpt>
      <trkpt lat="47.545553" lon="7.923142">
        <ele>293.297312</ele>
        <time>2021-11-14T21:36:02.913Z</time>
      </trkpt>
      <trkpt lat="47.545587" lon="7.922895">
        <ele>292.799704</ele>
        <time>2021-11-14T21:36:05.314Z</time>
      </trkpt>
      <trkpt lat="47.545641" lon="7.922610">
        <ele>292.215376</ele>
        <time>2021-11-14T21:36:07.313Z</time>
      </trkpt>
      <trkpt lat="47.545690" lon="7.922369">
        <ele>291.718535</ele>
        <time>2021-11-14T21:36:10.004Z</time>
      </trkpt>
      <trkpt lat="47.545699" lon="7.922325">
        <ele>291.627780</ele>
        <time>2021-11-14T21:36:10.265Z</time>
      </trkpt>
      <trkpt lat="47.545714" lon="7.922249">
        <ele>291.471476</ele>
        <time>2021-11-14T21:36:10.855Z</time>
      </trkpt>
      <trkpt lat="47.545778" lon="7.921947">
        <ele>291.121339</ele>
        <time>2021-11-14T21:36:14.011Z</time>
      </trkpt>
      <trkpt lat="47.545810" lon="7.921755">
        <ele>291.020962</ele>
        <time>2021-11-14T21:36:15.368Z</time>
      </trkpt>
      <trkpt lat="47.545881" lon="7.921096">
        <ele>290.682249</ele>
        <time>2021-11-14T21:36:20.717Z</time>
      </trkpt>
      <trkpt lat="47.545913" lon="7.920765">
        <ele>290.512534</ele>
        <time>2021-11-14T21:36:23.584Z</time>
      </trkpt>
      <trkpt lat="47.545973" lon="7.920313">
        <ele>290.278725</ele>
        <time>2021-11-14T21:36:28.731Z</time>
      </trkpt>
      <trkpt lat="47.546128" lon="7.919617">
        <ele>289.906739</ele>
        <time>2021-11-14T21:36:35.194Z</time>
      </trkpt>
      <trkpt lat="47.546262" lon="7.919081">
        <ele>289.707982</ele>
        <time>2021-11-14T21:36:41.193Z</time>
      </trkpt>
      <trkpt lat="47.546821" lon="7.916867">
        <ele>288.977178</ele>
        <time>2021-11-14T21:37:01.946Z</time>
      </trkpt>
      <trkpt lat="47.547032" lon="7.916218">
        <ele>288.846354</ele>
        <time>2021-11-14T21:37:08.436Z</time>
      </trkpt>
      <trkpt lat="47.547091" lon="7.916039">
        <ele>288.810177</ele>
        <time>2021-11-14T21:37:10.254Z</time>
      </trkpt>
      <trkpt lat="47.547113" lon="7.915971">
        <ele>288.796482</ele>
        <time>2021-11-14T21:37:10.853Z</time>
      </trkpt>
      <trkpt lat="47.547423" lon="7.915080">
        <ele>288.614438</ele>
        <time>2021-11-14T21:37:20.497Z</time>
      </trkpt>
      <trkpt lat="47.547994" lon="7.913433">
        <ele>289.102695</ele>
        <time>2021-11-14T21:37:40.216Z</time>
      </trkpt>
      <trkpt lat="47.548027" lon="7.913334">
        <ele>289.149064</ele>
        <time>2021-11-14T21:37:41.575Z</time>
      </trkpt>
      <trkpt lat="47.548412" lon="7.912168">
        <ele>289.734300</ele>
        <time>2021-11-14T21:37:57.978Z</time>
      </trkpt>
      <trkpt lat="47.549012" lon="7.910340">
        <ele>291.301410</ele>
        <time>2021-11-14T21:38:24.939Z</time>
      </trkpt>
      <trkpt lat="47.549102" lon="7.910058">
        <ele>291.541897</ele>
        <time>2021-11-14T21:38:29.117Z</time>
      </trkpt>
      <trkpt lat="47.549195" lon="7.909756">
        <ele>291.844227</ele>
        <time>2021-11-14T21:38:33.364Z</time>
      </trkpt>
      <trkpt lat="47.549244" lon="7.909593">
        <ele>292.047484</ele>
        <time>2021-11-14T21:38:35.747Z</time>
      </trkpt>
      <trkpt lat="47.549320" lon="7.909342">
        <ele>292.360851</ele>
        <time>2021-11-14T21:38:39.202Z</time>
      </trkpt>
      <trkpt lat="47.549520" lon="7.908678">
        <ele>293.189111</ele>
        <time>2021-11-14T21:38:48.695Z</time>
      </trkpt>
      <trkpt lat="47.549539" lon="7.908625">
        <ele>293.257471</ele>
        <time>2021-11-14T21:38:49.456Z</time>
      </trkpt>
      <trkpt lat="47.550497" lon="7.905558">
        <ele>298.538849</ele>
        <time>2021-11-14T21:39:44.275Z</time>
      </trkpt>
      <trkpt lat="47.550283" lon="7.905413">
        <ele>299.175823</ele>
        <time>2021-11-14T21:39:52.442Z</time>
      </trkpt>
      <trkpt lat="47.550067" lon="7.905245">
        <ele>299.932574</ele>
        <time>2021-11-14T21:40:01.128Z</time>
      </trkpt>
      <trkpt lat="47.549867" lon="7.905155">
        <ele>300.734143</ele>
        <time>2021-11-14T21:40:08.756Z</time>
      </trkpt>
      <trkpt lat="47.549868" lon="7.905010">
        <ele>301.109471</ele>
        <time>2021-11-14T21:40:12.162Z</time>
      </trkpt>
      <trkpt lat="47.550025" lon="7.904774">
        <ele>301.967157</ele>
        <time>2021-11-14T21:40:20.313Z</time>
      </trkpt>
      <trkpt lat="47.550302" lon="7.904164">
        <ele>303.870113</ele>
        <time>2021-11-14T21:40:38.612Z</time>
      </trkpt>
      <trkpt lat="47.550498" lon="7.903445">
        <ele>305.877163</ele>
        <time>2021-11-14T21:40:58.184Z</time>
      </trkpt>
      <trkpt lat="47.550688" lon="7.902451">
        <ele>308.524735</ele>
        <time>2021-11-14T21:41:20.732Z</time>
      </trkpt>
      <trkpt lat="47.550757" lon="7.901591">
        <ele>310.737471</ele>
        <time>2021-11-14T21:41:40.528Z</time>
      </trkpt>
      <trkpt lat="47.550769" lon="7.901362">
        <ele>311.324317</ele>
        <time>2021-11-14T21:41:46.436Z</time>
      </trkpt>
      <trkpt lat="47.550801" lon="7.900244">
        <ele>314.257817</ele>
        <time>2021-11-14T21:42:10.834Z</time>
      </trkpt>
      <trkpt lat="47.550819" lon="7.898109">
        <ele>320.178974</ele>
        <time>2021-11-14T21:42:57.874Z</time>
      </trkpt>
      <trkpt lat="47.550648" lon="7.896481">
        <ele>322.665973</ele>
        <time>2021-11-14T21:43:25.529Z</time>
      </trkpt>
      <trkpt lat="47.550639" lon="7.896345">
        <ele>322.849954</ele>
        <time>2021-11-14T21:43:27.904Z</time>
      </trkpt>
      <trkpt lat="47.550660" lon="7.896255">
        <ele>322.978162</ele>
        <time>2021-11-14T21:43:28.705Z</time>
      </trkpt>
      <trkpt lat="47.550838" lon="7.895509">
        <ele>324.043452</ele>
        <time>2021-11-14T21:43:38.873Z</time>
      </trkpt>
      <trkpt lat="47.550878" lon="7.895158">
        <ele>324.485874</ele>
        <time>2021-11-14T21:43:42.935Z</time>
      </trkpt>
      <trkpt lat="47.550908" lon="7.894308">
        <ele>325.451041</ele>
        <time>2021-11-14T21:43:53.407Z</time>
      </trkpt>
      <trkpt lat="47.550892" lon="7.893176">
        <ele>326.734944</ele>
        <time>2021-11-14T21:44:08.125Z</time>
      </trkpt>
      <trkpt lat="47.550904" lon="7.891725">
        <ele>330.595641</ele>
        <time>2021-11-14T21:44:37.887Z</time>
      </trkpt>
      <trkpt lat="47.550915" lon="7.890600">
        <ele>334.514436</ele>
        <time>2021-11-14T21:45:06.727Z</time>
      </trkpt>
      <trkpt lat="47.550833" lon="7.889069">
        <ele>340.531104</ele>
        <time>2021-11-14T21:45:49.361Z</time>
      </trkpt>
      <trkpt lat="47.550831" lon="7.888611">
        <ele>342.451884</ele>
        <time>2021-11-14T21:46:01.931Z</time>
      </trkpt>
      <trkpt lat="47.550789" lon="7.887816">
        <ele>345.796120</ele>
        <time>2021-11-14T21:46:22.543Z</time>
      </trkpt>
      <trkpt lat="47.550758" lon="7.887295">
        <ele>347.958722</ele>
        <time>2021-11-14T21:46:36.364Z</time>
      </trkpt>
      <trkpt lat="47.550677" lon="7.886476">
        <ele>350.945007</ele>
        <time>2021-11-14T21:46:57.853Z</time>
      </trkpt>
      <trkpt lat="47.550548" lon="7.885799">
        <ele>353.482915</ele>
        <time>2021-11-14T21:47:15.056Z</time>
      </trkpt>
      <trkpt lat="47.550391" lon="7.885109">
        <ele>356.109913</ele>
        <time>2021-11-14T21:47:32.693Z</time>
      </trkpt>
      <trkpt lat="47.550332" lon="7.884727">
        <ele>357.484744</ele>
        <time>2021-11-14T21:47:41.384Z</time>
      </trkpt>
      <trkpt lat="47.550234" lon="7.883221">
        <ele>361.429388</ele>
        <time>2021-11-14T21:48:14.215Z</time>
      </trkpt>
      <trkpt lat="47.549927" lon="7.881490">
        <ele>366.114097</ele>
        <time>2021-11-14T21:48:46.479Z</time>
      </trkpt>
      <trkpt lat="47.549726" lon="7.880786">
        <ele>368.127856</ele>
        <time>2021-11-14T21:49:02.455Z</time>
      </trkpt>
      <trkpt lat="47.549327" lon="7.879547">
        <ele>371.716678</ele>
        <time>2021-11-14T21:49:32.239Z</time>
      </trkpt>
      <trkpt lat="47.549318" lon="7.879398">
        <ele>372.082930</ele>
        <time>2021-11-14T21:49:35.428Z</time>
      </trkpt>
      <trkpt lat="47.549140" lon="7.879391">
        <ele>372.728821</ele>
        <time>2021-11-14T21:49:42.298Z</time>
      </trkpt>
      <trkpt lat="47.548718" lon="7.879258">
        <ele>374.293802</ele>
        <time>2021-11-14T21:49:55.969Z</time>
      </trkpt>
      <trkpt lat="47.548422" lon="7.878959">
        <ele>375.593301</ele>
        <time>2021-11-14T21:50:06.616Z</time>
      </trkpt>
      <trkpt lat="47.548234" lon="7.878638">
        <ele>376.633828</ele>
        <time>2021-11-14T21:50:15.048Z</time>
      </trkpt>
      <trkpt lat="47.547992" lon="7.877974">
        <ele>377.781239</ele>
        <time>2021-11-14T21:50:28.145Z</time>
      </trkpt>
      <trkpt lat="47.547574" lon="7.876801">
        <ele>377.274156</ele>
        <time>2021-11-14T21:50:41.908Z</time>
      </trkpt>
      <trkpt lat="47.547126" lon="7.875801">
        <ele>376.505345</ele>
        <time>2021-11-14T21:50:50.691Z</time>
      </trkpt>
      <trkpt lat="47.546309" lon="7.874154">
        <ele>369.924935</ele>
        <time>2021-11-14T21:51:03.879Z</time>
      </trkpt>
      <trkpt lat="47.546135" lon="7.873859">
        <ele>368.663659</ele>
        <time>2021-11-14T21:51:06.261Z</time>
      </trkpt>
      <trkpt lat="47.546077" lon="7.873763">
        <ele>368.236061</ele>
        <time>2021-11-14T21:51:07.072Z</time>
      </trkpt>
      <trkpt lat="47.545934" lon="7.873549">
        <ele>366.842440</ele>
        <time>2021-11-14T21:51:08.877Z</time>
      </trkpt>
      <trkpt lat="47.545746" lon="7.873302">
        <ele>365.119583</ele>
        <time>2021-11-14T21:51:11.165Z</time>
      </trkpt>
      <trkpt lat="47.545515" lon="7.873015">
        <ele>363.052527</ele>
        <time>2021-11-14T21:51:13.864Z</time>
      </trkpt>
      <trkpt lat="47.545478" lon="7.872968">
        <ele>362.718355</ele>
        <time>2021-11-14T21:51:14.306Z</time>
      </trkpt>
      <trkpt lat="47.545375" lon="7.872836">
        <ele>361.784584</ele>
        <time>2021-11-14T21:51:15.499Z</time>
      </trkpt>
      <trkpt lat="47.545131" lon="7.872664">
        <ele>359.931905</ele>
        <time>2021-11-14T21:51:17.958Z</time>
      </trkpt>
      <trkpt lat="47.544883" lon="7.872555">
        <ele>358.158278</ele>
        <time>2021-11-14T21:51:20.281Z</time>
      </trkpt>
      <trkpt lat="47.544390" lon="7.872423">
        <ele>354.897784</ele>
        <time>2021-11-14T21:51:24.743Z</time>
      </trkpt>
      <trkpt lat="47.543332" lon="7.872237">
        <ele>348.635116</ele>
        <time>2021-11-14T21:51:34.505Z</time>
      </trkpt>
      <trkpt lat="47.543251" lon="7.872152">
        <ele>348.051636</ele>
        <time>2021-11-14T21:51:35.454Z</time>
      </trkpt>
      <trkpt lat="47.543233" lon="7.872082">
        <ele>347.754411</ele>
        <time>2021-11-14T21:51:35.875Z</time>
      </trkpt>
      <trkpt lat="47.543013" lon="7.872182">
        <ele>346.401724</ele>
        <time>2021-11-14T21:51:38.102Z</time>
      </trkpt>
      <trkpt lat="47.542919" lon="7.872226">
        <ele>345.822256</ele>
        <time>2021-11-14T21:51:39.032Z</time>
      </trkpt>
      <trkpt lat="47.542814" lon="7.872280">
        <ele>345.373396</ele>
        <time>2021-11-14T21:51:40.085Z</time>
      </trkpt>
      <trkpt lat="47.542714" lon="7.872334">
        <ele>345.373396</ele>
        <time>2021-11-14T21:51:41.155Z</time>
      </trkpt>
      <trkpt lat="47.542537" lon="7.872430">
        <ele>345.373396</ele>
        <time>2021-11-14T21:51:42.896Z</time>
      </trkpt>
      <trkpt lat="47.542436" lon="7.872494">
        <ele>345.373396</ele>
        <time>2021-11-14T21:51:44.226Z</time>
      </trkpt>
      <trkpt lat="47.542394" lon="7.872341">
        <ele>345.373396</ele>
        <time>2021-11-14T21:51:45.314Z</time>
      </trkpt>
      <trkpt lat="47.542218" lon="7.871866">
        <ele>345.373396</ele>
        <time>2021-11-14T21:51:49.033Z</time>
      </trkpt>
      <trkpt lat="47.542091" lon="7.871721">
        <ele>345.373396</ele>
        <time>2021-11-14T21:51:50.580Z</time>
      </trkpt>
      <trkpt lat="47.542067" lon="7.871664">
        <ele>345.373396</ele>
        <time>2021-11-14T21:51:51.322Z</time>
      </trkpt>
      <trkpt lat="47.542039" lon="7.871556">
        <ele>345.373396</ele>
        <time>2021-11-14T21:51:52.208Z</time>
      </trkpt>
      <trkpt lat="47.541953" lon="7.871286">
        <ele>345.373396</ele>
        <time>2021-11-14T21:51:54.481Z</time>
      </trkpt>
      <trkpt lat="47.541796" lon="7.871042">
        <ele>345.373396</ele>
        <time>2021-11-14T21:51:57.069Z</time>
      </trkpt>
      <trkpt lat="47.541576" lon="7.870664">
        <ele>345.373396</ele>
        <time>2021-11-14T21:52:00.928Z</time>
      </trkpt>
      <trkpt lat="47.541410" lon="7.870791">
        <ele>345.373396</ele>
        <time>2021-11-14T21:52:03.010Z</time>
      </trkpt>
      <trkpt lat="47.541164" lon="7.870995">
        <ele>345.373396</ele>
        <time>2021-11-14T21:52:06.773Z</time>
      </trkpt>
    </trkseg>
  </trk>
</gpx>